[[{"header":{"parameterUnit":"m.s-1","parameterCategory":1,"la1":30.6,"la2":28.766,"lo1":-90.7593,"lo2":-88.6598,"dy":0.0162,"dx":0.0183,"nx":116,"ny":114,"refTime":"2024-06-19T12:00:00:Z","depth":0,"parameterNumber":2,"parameterNumberName":"U-component_of_WINDS"},"data":[0.0,0.0,0.0,0.0,0.0,0.0,0.0,0.0,0.0,0.0,0.0,0.0,0.0,0.0,0.0,0.0,0.0,0.0,0.0,0.0,0.0,0.0,0.0,0.0,0.0,0.0,0.0,0.0,0.0,0.0,0.0,0.0,0.0,0.0,0.0,0.0,0.0,0.0,0.0,0.0,0.0,0.0,0.0,0.0,0.0,0.0,0.0,0.0,0.0,0.0,0.0,0.0,0.0,0.0,0.0,0.0,0.0,0.0,0.0,0.0,0.0,0.0,0.0,0.0,0.0,0.0,0.0,0.0,0.0,0.0,0.0,0.0,0.0,0.0,0.0,0.0,0.0,0.0,0.0,0.0,0.0,0.0,0.0,0.0,0.0,0.0,0.0,0.0,0.0,0.0,0.0,0.0,0.0,0.0,0.0,0.0,0.0,0.0,0.0,0.0,0.0,0.0,0.0,0.0,0.0,0.0,0.0,0.0,0.0,0.0,0.0,0.0,0.0,0.0,0.0,0.0,0.0,0.0,0.0,0.0,0.0,0.0,0.0,0.0,0.0,0.0,0.0,0.0,0.0,0.0,0.0,0.0,0.0,0.0,0.0,0.0,0.0,0.0,0.0,0.0,0.0,0.0,0.0,0.0,0.0,0.0,0.0,0.0,0.0,0.0,0.0,0.0,0.0,0.0,0.0,0.0,0.0,0.0,0.0,0.0,0.0,0.0,0.0,0.0,0.0,0.0,0.0,0.0,0.0,0.0,0.0,0.0,0.0,0.0,0.0,0.0,0.0,0.0,0.0,0.0,0.0,0.0,0.0,0.0,0.0,0.0,0.0,0.0,0.0,0.0,0.0,0.0,0.0,0.0,0.0,0.0,0.0,0.0,0.0,0.0,0.0,0.0,0.0,0.0,0.0,0.0,0.0,0.0,0.0,0.0,0.0,0.0,0.0,0.0,0.0,0.0,0.0,0.0,0.0,0.0,0.0,0.0,0.0,0.0,0.0,0.0,0.0,0.0,0.0,0.0,0.0,0.0,0.0,0.0,0.0,0.0,0.0,0.0,0.0,0.0,0.0,0.0,0.0,0.0,0.0,0.0,0.0,0.0,0.0,0.0,0.0,0.0,0.0,0.0,0.0,0.0,0.0,0.0,0.0,0.0,0.0,0.0,0.0,0.0,0.0,0.0,0.0,0.0,0.0,0.0,0.0,0.0,0.0,0.0,0.0,0.0,0.0,0.0,0.0,0.0,0.0,0.0,0.0,0.0,0.0,0.0,0.0,0.0,0.0,0.0,0.0,0.0,0.0,0.0,0.0,0.0,0.0,0.0,0.0,0.0,0.0,0.0,0.0,0.0,0.0,0.0,0.0,0.0,0.0,0.0,0.0,0.0,0.0,0.0,0.0,0.0,0.0,0.0,0.0,0.0,0.0,0.0,0.0,0.0,0.0,0.0,0.0,0.0,0.0,0.0,0.0,0.0,0.0,0.0,0.0,0.0,0.0,0.0,0.0,0.0,0.0,0.0,0.0,0.0,0.0,0.0,0.0,0.0,0.0,0.0,0.0,0.0,0.0,0.0,0.0,0.0,0.0,0.0,0.0,0.0,0.0,0.0,0.0,0.0,0.0,0.0,0.0,0.0,0.0,0.0,0.0,0.0,0.0,0.0,0.0,0.0,0.0,0.0,0.0,0.0,0.0,0.0,0.0,0.0,0.0,0.0,0.0,0.0,0.0,0.0,0.0,0.0,0.0,0.0,0.0,0.0,0.0,0.0,0.0,0.0,0.0,0.0,0.0,0.0,0.0,0.0,0.0,0.0,0.0,0.0,0.0,0.0,0.0,0.0,0.0,0.0,0.0,0.0,0.0,0.0,0.0,0.0,0.0,0.0,0.0,0.0,0.0,0.0,0.0,0.0,0.0,0.0,0.0,0.0,0.0,0.0,0.0,0.0,0.0,0.0,0.0,0.0,0.0,0.0,0.0,0.0,0.0,0.0,0.0,0.0,0.0,0.0,0.0,0.0,0.0,0.0,0.0,0.0,0.0,0.0,0.0,0.0,0.0,0.0,0.0,0.0,0.0,0.0,0.0,0.0,0.0,0.0,0.0,0.0,0.0,0.0,0.0,0.0,0.0,0.0,0.0,0.0,0.0,0.0,0.0,0.0,0.0,0.0,0.0,0.0,0.0,0.0,0.0,0.0,0.0,0.0,0.0,0.0,0.0,0.0,0.0,0.0,0.0,0.0,0.0,0.0,0.0,0.0,0.0,0.0,0.0,0.0,0.0,0.0,0.0,0.0,0.0,0.0,0.0,0.0,0.0,0.0,0.0,0.0,0.0,0.0,0.0,0.0,0.0,0.0,0.0,0.0,0.0,0.0,0.0,0.0,0.0,0.0,0.0,0.0,0.0,0.0,0.0,0.0,0.0,0.0,0.0,0.0,0.0,0.0,0.0,0.0,0.0,0.0,0.0,0.0,0.0,0.0,0.0,0.0,0.0,0.0,0.0,0.0,0.0,0.0,0.0,0.0,0.0,0.0,0.0,0.0,0.0,0.0,0.0,0.0,0.0,0.0,0.0,0.0,0.0,0.0,0.0,0.0,0.0,0.0,0.0,0.0,0.0,0.0,0.0,0.0,0.0,0.0,0.0,0.0,0.0,0.0,0.0,0.0,0.0,0.0,0.0,0.0,0.0,0.0,0.0,0.0,0.0,0.0,0.0,0.0,0.0,0.0,0.0,0.0,0.0,0.0,0.0,0.0,0.0,0.0,0.0,0.0,0.0,0.0,0.0,0.0,0.0,0.0,0.0,0.0,0.0,0.0,0.0,0.0,0.0,0.0,0.0,0.0,0.0,0.0,0.0,0.0,0.0,0.0,0.0,0.0,0.0,0.0,0.0,0.0,0.0,0.0,0.0,0.0,0.0,0.0,0.0,0.0,0.0,0.0,0.0,0.0,0.0,0.0,0.0,0.0,0.0,0.0,0.0,0.0,0.0,0.0,0.0,0.0,0.0,0.0,0.0,0.0,0.0,0.0,0.0,0.0,0.0,0.0,0.0,0.0,0.0,0.0,0.0,0.0,0.0,0.0,0.0,0.0,0.0,0.0,0.0,0.0,0.0,0.0,0.0,0.0,0.0,0.0,0.0,0.0,0.0,0.0,0.0,0.0,0.0,0.0,0.0,0.0,0.0,0.0,0.0,0.0,0.0,0.0,0.0,0.0,0.0,0.0,0.0,0.0,0.0,0.0,0.0,0.0,0.0,0.0,0.0,0.0,0.0,0.0,0.0,0.0,0.0,0.0,0.0,0.0,0.0,0.0,0.0,0.0,0.0,0.0,0.0,0.0,0.0,0.0,0.0,0.0,0.0,0.0,0.0,0.0,0.0,0.0,0.0,0.0,0.0,0.0,0.0,0.0,0.0,0.0,0.0,0.0,0.0,0.0,0.0,0.0,0.0,0.0,0.0,0.0,0.0,0.0,0.0,0.0,0.0,0.0,0.0,0.0,0.0,0.0,0.0,0.0,0.0,0.0,0.0,0.0,0.0,0.0,0.0,0.0,0.0,0.0,0.0,0.0,0.0,0.0,0.0,0.0,0.0,0.0,0.0,0.0,0.0,0.0,0.0,0.0,0.0,0.0,0.0,0.0,0.0,0.0,0.0,0.0,0.0,0.0,0.0,0.0,0.0,0.0,0.0,0.0,0.0,0.0,0.0,0.0,0.0,0.0,0.0,0.0,0.0,0.0,0.0,0.0,0.0,0.0,0.0,0.0,0.0,0.0,0.0,0.0,0.0,0.0,0.0,0.0,0.0,0.0,0.0,0.0,0.0,0.0,0.0,0.0,0.0,0.0,0.0,0.0,0.0,0.0,0.0,0.0,0.0,0.0,0.0,0.0,0.0,0.0,0.0,0.0,0.0,0.0,0.0,0.0,0.0,0.0,0.0,0.0,0.0,0.0,0.0,0.0,0.0,0.0,0.0,0.0,0.0,0.0,0.0,0.0,0.0,0.0,0.0,0.0,0.0,0.0,0.0,0.0,0.0,0.0,0.0,0.0,0.0,0.0,0.0,0.0,0.0,0.0,0.0,0.0,0.0,0.0,0.0,0.0,0.0,0.0,0.0,0.0,0.0,0.0,0.0,0.0,0.0,0.0,0.0,0.0,0.0,0.0,0.0,0.0,0.0,0.0,0.0,0.0,0.0,0.0,0.0,0.0,0.0,0.0,0.0,0.0,0.0,0.0,0.0,0.0,0.0,0.0,0.0,0.0,0.0,0.0,0.0,0.0,0.0,0.0,0.0,0.0,0.0,0.0,0.0,0.0,0.0,0.0,0.0,0.0,0.0,0.0,0.0,0.0,0.0,0.0,0.0,0.0,0.0,0.0,0.0,0.0,0.0,0.0,0.0,0.0,0.0,0.0,0.0,0.0,0.0,0.0,0.0,0.0,0.0,0.0,0.0,0.0,0.0,0.0,0.0,0.0,0.0,0.0,0.0,0.0,0.0,0.0,0.0,0.0,0.0,0.0,0.0,0.0,0.0,0.0,0.0,0.0,0.0,0.0,0.0,0.0,0.0,0.0,0.0,0.0,0.0,0.0,0.0,0.0,0.0,0.0,0.0,0.0,0.0,0.0,0.0,0.0,0.0,0.0,0.0,0.0,0.0,0.0,0.0,0.0,0.0,0.0,0.0,0.0,0.0,0.0,0.0,0.0,0.0,0.0,0.0,0.0,0.0,0.0,0.0,0.0,0.0,0.0,0.0,0.0,0.0,0.0,0.0,0.0,0.0,0.0,0.0,0.0,0.0,0.0,0.0,0.0,0.0,0.0,0.0,0.0,0.0,0.0,0.0,0.0,0.0,0.0,0.0,0.0,0.0,0.0,0.0,0.0,0.0,0.0,0.0,0.0,0.0,0.0,0.0,0.0,0.0,0.0,0.0,0.0,0.0,0.0,0.0,0.0,0.0,0.0,0.0,0.0,0.0,0.0,0.0,0.0,0.0,0.0,0.0,0.0,0.0,0.0,0.0,0.0,0.0,0.0,0.0,0.0,0.0,0.0,0.0,0.0,0.0,0.0,0.0,0.0,0.0,0.0,0.0,0.0,0.0,0.0,0.0,0.0,0.0,0.0,0.0,0.0,0.0,0.0,0.0,0.0,0.0,0.0,0.0,0.0,0.0,0.0,0.0,0.0,0.0,0.0,0.0,0.0,0.0,0.0,0.0,0.0,0.0,0.0,0.0,0.0,0.0,0.0,0.0,0.0,0.0,0.0,0.0,0.0,0.0,0.0,0.0,0.0,0.0,0.0,0.0,0.0,0.0,0.0,0.0,0.0,0.0,0.0,0.0,0.0,0.0,0.0,0.0,0.0,0.0,0.0,0.0,0.0,0.0,0.0,0.0,0.0,0.0,0.0,0.0,0.0,0.0,0.0,0.0,0.0,0.0,0.0,0.0,0.0,0.0,0.0,0.0,0.0,0.0,0.0,0.0,0.0,0.0,0.0,0.0,0.0,0.0,0.0,0.0,0.0,0.0,0.0,0.0,0.0,0.0,0.0,0.0,0.0,0.0,0.0,0.0,0.0,0.0,0.0,0.0,0.0,0.0,0.0,0.0,0.0,0.0,0.0,0.0,0.0,0.0,0.0,0.0,0.0,0.0,0.0,0.0,0.0,0.0,0.0,0.0,0.0,0.0,0.0,0.0,0.0,0.0,0.0,0.0,0.0,0.0,0.0,0.0,0.0,0.0,0.0,0.0,0.0,0.0,0.0,0.0,0.0,0.0,0.0,0.0,0.0,0.0,0.0,0.0,0.0,0.0,0.0,0.0,0.0,0.0,0.0,0.0,0.0,0.0,0.0,0.0,0.0,0.0,0.0,0.0,0.0,0.0,0.0,0.0,0.0,0.0,0.0,0.0,0.0,0.0,0.0,0.0,0.0,0.0,0.0,0.0,0.0,0.0,0.0,0.0,0.0,0.0,0.0,0.0,0.0,0.0,0.0,0.0,0.0,0.0,0.0,0.0,0.0,0.0,0.0,0.0,0.0,0.0,0.0,0.0,0.0,0.0,0.0,0.0,0.0,0.0,0.0,0.0,0.0,0.0,0.0,0.0,0.0,0.0,0.0,0.0,0.0,0.0,0.015,0.0,0.0,0.0,0.0,0.0,0.0,0.0,0.0,0.0,0.0,0.0,0.0,0.0,0.0,0.0,0.0,0.0,0.0,0.0,0.0,0.0,0.0,0.0,-0.367,-0.4067,-0.4707,-0.4834,-0.51,-0.5695,-0.5662,-0.5604,-0.553,-0.5473,-0.539,-0.5293,-0.5219,-0.5141,-0.5038,-0.5002,-0.4895,-0.4742,-0.4742,-0.3862,-0.2321,0.0,0.0,0.0,0.0,0.0,0.0,0.0,0.0,0.0,0.0,0.0,0.0,0.0,0.0,0.0,0.0,0.0,0.0,0.0,0.0,0.0,0.0,0.0,0.0,0.0,0.0,0.0,0.0,0.0,0.0,0.0,0.0,0.0,0.0,0.0,0.0,0.0,0.0,0.0,0.0,0.0,0.0,0.0,0.0,0.0,0.0,0.0,0.0,0.0,0.0,0.0,0.0,0.0,0.0,0.0,0.0,0.0,0.0,0.0,0.0,0.0,0.0,0.0,0.0,0.0,0.0,0.0,0.0,0.0,0.0,0.0,0.0,0.0,0.0,0.0,0.0,0.0,0.0,0.0,0.0,0.0,0.0,0.0,0.0,0.0,0.0,0.0,0.0,0.0,0.0,0.0,0.0,0.0,-0.3747,-0.4136,-0.4351,-0.4921,-0.6042,-0.6169,-0.6614,-0.7601,-0.7651,-0.7584,-0.7478,-0.7444,-0.7353,-0.7202,-0.706,-0.6972,-0.6945,-0.6769,-0.6634,-0.6532,-0.6532,-0.5533,-0.3714,-0.3502,0.0,0.0,0.0,0.0,0.0,0.0,0.0,0.0,0.0,0.0,0.0,0.0,0.0,0.0,0.0,0.0,0.0,0.0,0.0,0.0,0.0,0.0,0.0,0.0,0.0,0.0,0.0,0.0,0.0,0.0,0.0,0.0,0.0,0.0,0.0,0.0,0.0,0.0,0.0,0.0,0.0,0.0,0.0,0.0,0.0,0.0,0.0,0.0,0.0,0.0,0.0,0.0,0.0,0.0,0.0,0.0,0.0,0.0,0.0,0.0,0.0,0.0,0.0,-0.4704,-0.3129,-0.0424,-0.0424,-0.0283,0.0,0.0,0.0,0.0,0.0,0.0,0.0,0.0,0.0,0.0,0.0,0.0,0.0,0.0,0.0,0.0,0.0,0.0,0.0,0.0,0.0,0.0,0.0,0.0,-0.5268,-0.6358,-0.6853,-0.7223,-0.7502,-0.7633,-0.7779,-0.7934,-0.7831,-0.7773,-0.7753,-0.7638,-0.7556,-0.7543,-0.7416,-0.7244,-0.7065,-0.6816,-0.6688,-0.6668,-0.6668,-0.651,-0.6176,-0.5122,-0.4236,-0.3523,0.0,0.0,0.0,0.0,0.0,0.0,0.0,0.0,0.0,0.0,0.0,0.0,0.0,0.0,0.0,0.0,0.0,0.0,0.0,0.0,0.0,0.0,0.0,0.0,0.0,0.0,0.0,0.0,0.0,0.0,0.0,0.0,0.0,0.0,0.0,0.0,0.0,0.0,0.0,0.0,0.0,-0.6262,-0.7747,0.0,0.0,0.0,0.0,0.0,0.0,0.0,0.0,0.0,0.0,0.0,0.0,0.0,-0.9124,-0.9124,-0.7944,-0.7135,-0.6754,-0.5445,-0.3905,-0.2159,-0.2159,-0.1373,0.0,0.0,0.0,0.0,0.0,0.0,0.0,0.0,0.0,0.0,0.0,0.0,0.0,0.0,0.0,0.0,0.0,0.0,0.0,0.0,0.0,0.0,0.0,0.0,0.0,0.0,-0.7357,-0.7658,-0.7801,-0.7851,-0.7925,-0.7982,-0.7871,-0.7814,-0.7814,-0.781,-0.7783,-0.7719,-0.7651,-0.7502,-0.7272,-0.7033,-0.6884,-0.6809,-0.6809,-0.6809,-0.6782,-0.6254,-0.5773,-0.5334,-0.5239,0.0,0.0,0.0,0.0,0.0,0.0,0.0,0.0,0.0,0.0,0.0,0.0,0.0,0.0,0.0,0.0,0.0,0.0,0.0,0.0,0.0,0.0,0.0,0.0,0.0,0.0,0.0,0.0,0.0,0.0,0.0,0.0,0.0,0.0,0.0,0.0,0.0,0.0,0.0,-0.6008,-0.6748,-0.7317,-0.8052,-0.8486,0.0,0.0,0.0,0.0,0.0,0.0,0.0,0.0,0.0,-0.9278,-0.9456,-0.9571,-0.9652,-0.9164,-0.8432,-0.747,-0.6856,-0.5683,-0.4142,-0.4142,-0.3185,-0.1517,-0.1503,-0.0941,0.0,0.0,0.0,0.0,0.0,0.0,0.0,0.0,0.0,0.0192,0.0,0.0,0.0,0.0,0.0,0.0,0.0,0.0,0.0,0.0,0.0,0.0,-0.7085,-0.7391,-0.7658,-0.7801,-0.7814,-0.7837,-0.7946,-0.7885,-0.7824,-0.7814,-0.7932,-0.7959,-0.7851,-0.7804,-0.7685,-0.745,-0.7278,-0.7121,-0.7019,-0.6979,-0.6965,-0.6965,-0.7006,-0.698,-0.6865,-0.679,-0.6252,-0.545,0.0,0.0,0.0,0.0,0.0,0.0,0.0,0.0,0.0,0.0,0.0,0.0,0.0,0.0,0.0,0.0,0.0,0.0,0.0,0.0,0.0,0.0,0.0,0.0,0.0,0.0,0.0,0.0,0.0,0.0,0.0,0.0,0.0,0.0,0.0,0.0,0.0,-0.6872,-0.6926,-0.7218,-0.8236,-0.8879,0.0,0.0,0.0,0.0,0.0,0.0,-0.9403,-0.941,-0.9533,-0.9774,-0.9917,-1.0015,-1.013,-1.0276,-0.9717,-0.8488,-0.8454,-0.7348,-0.533,-0.533,-0.4112,-0.1994,-0.2004,-0.1235,0.0,0.0,0.0,0.0,0.0,0.0,0.0,0.0,0.0,0.0171,0.0,0.0,0.0,0.0,0.0,0.0,0.0,0.0,0.0,0.0,0.0,-0.7092,-0.7098,-0.7391,-0.7658,-0.7801,-0.7814,-0.7814,-0.7821,-0.7925,-0.7939,-0.7821,-0.7932,-0.7988,-0.7982,-0.7858,-0.774,-0.759,-0.7457,-0.7376,-0.7369,-0.7175,-0.7085,-0.7092,-0.7285,-0.7369,-0.7342,-0.7012,-0.6922,-0.6972,-0.6706,0.0,0.0,0.0,0.0,0.0,0.0,0.0,0.0,0.0,0.0,0.0,0.0,0.0,0.0,0.0,0.0,0.0,0.0,0.0,0.0,0.0,0.0,0.0,0.0,0.0,0.0,0.0,0.0,0.0,0.0,0.0,0.0,0.0,0.0,0.0,0.0,0.0,0.0,-0.9089,-0.944,0.0,0.0,0.0,0.0,-0.9564,-0.9663,-0.9812,-0.9967,-1.0005,-1.0111,-1.0274,-1.0385,-1.046,-1.0466,-1.048,-1.0447,-1.035,-1.0248,-0.8411,-0.5102,-0.5102,-0.328,-0.0129,-0.0129,-0.0097,0.0,0.0,0.0,0.0,0.0,0.0,0.0,0.0,0.0,0.0,0.0,0.0,0.0,-0.2436,-0.3057,-0.3666,-0.4741,-0.6042,-0.664,-0.5951,-0.6773,-0.7411,-0.7411,-0.7536,-0.7658,-0.7801,-0.7726,-0.7753,-0.7918,-0.7891,-0.7891,-0.7932,-0.7986,-0.7988,-0.7988,-0.7864,-0.7787,-0.7733,-0.759,-0.7516,-0.7516,-0.7461,-0.7411,-0.7418,-0.7495,-0.757,-0.7645,-0.7441,-0.7333,-0.7278,-0.7199,-0.7075,0.0,0.0,0.0,0.0,0.0,0.0,0.0,0.0,0.0,0.0,0.0,0.0,0.0,0.0,0.0,0.0,0.0,0.0,0.0,0.0,0.0,0.0,0.0,0.0,0.0,0.0,0.0,0.0,0.0,0.0,0.0,0.0,0.0,0.0,0.0,0.0,0.0,-0.9473,-0.9771,0.0,-0.968,-0.9771,-0.9859,-0.9859,-1.0032,-1.0181,-1.0324,-1.0337,-1.0405,-1.0561,-1.0616,-1.0636,-1.0636,-1.0636,-1.0636,-1.0636,-1.0588,-0.93,-0.6957,-0.6957,-0.505,-0.1753,-0.1738,-0.1078,0.0,0.0,0.0,0.0,0.0,0.0,0.0,0.0,0.0,0.0,0.0,0.0,0.0,-0.2462,-0.2796,-0.3159,-0.424,-0.5218,-0.5607,-0.4895,-0.6083,-0.6982,-0.6932,-0.7378,-0.7706,-0.7801,-0.7726,-0.7753,-0.7925,-0.7891,-0.7885,-0.7939,-0.7986,-0.7988,-0.7988,-0.7912,-0.7864,-0.7864,-0.774,-0.7672,-0.7672,-0.7624,-0.7597,-0.7604,-0.7651,-0.7726,-0.7807,-0.7743,-0.7658,-0.7539,-0.7491,-0.7387,-0.7263,0.0,0.0,0.0,0.0,0.0,0.0,0.0,0.0,0.0,0.0,0.0,0.0,0.0,0.0,0.0,0.0,0.0,0.0,0.0,0.0,0.0,0.0,0.0,0.0,0.0,0.0,0.0,0.0,0.0,0.0,0.0,0.0,0.0,0.0,-0.7955,-0.8099,-0.9755,-1.0123,-1.0184,-1.0059,-1.0157,-1.0245,-1.0245,-1.0371,-1.0473,-1.0561,-1.0568,-1.0616,-1.0684,-1.0684,-1.0684,-1.0684,-1.0684,-1.0684,-1.0684,-1.0684,-0.9443,-0.7131,-0.7131,-0.5158,-0.1779,-0.1796,-0.1094,0.0,0.0,0.0,0.0,0.0,0.0,0.0,0.0,0.0,0.0,0.0,0.0,-0.0336,-0.1418,-0.1609,-0.1999,-0.3171,-0.3384,-0.3458,-0.3543,-0.4827,-0.5697,-0.5569,-0.6852,-0.7742,-0.7742,-0.779,-0.7814,-0.7821,-0.7932,-0.7946,-0.7804,-0.7939,-0.7988,-0.7988,-0.7988,-0.7988,-0.7988,-0.7864,-0.7821,-0.7814,-0.7678,-0.7611,-0.7617,-0.7753,-0.7821,-0.7804,-0.7952,-0.7932,-0.7807,-0.7672,-0.7611,-0.7611,0.0,0.0,0.0,0.0,0.0,0.0,0.0,0.0,0.0,0.0,0.0,0.0,0.0,0.0,0.0,0.0,0.0,0.0,0.0,0.0,0.0,0.0,0.0,0.0,0.0,0.0,0.0,0.0,0.0,0.0,0.0,0.0,0.0,-0.6848,-0.7405,-0.8124,-0.994,-1.0385,-1.0491,-1.0416,-1.053,-1.0658,-1.0691,-1.0691,-1.0698,-1.0738,-1.0738,-1.0738,-1.0738,-1.0738,-1.0738,-1.0738,-1.0698,-1.0691,-1.0691,-1.0691,-0.8839,-0.5396,-0.5396,-0.3423,0.0,0.0,0.0,0.0,0.0,0.0,0.0,0.0,0.0,0.0,0.0,0.0,0.0,0.0,0.0,-0.0367,-0.1544,-0.1748,-0.1852,-0.2185,-0.307,-0.3379,-0.2542,-0.3644,-0.4472,-0.4449,-0.5591,-0.6382,-0.6495,-0.7284,-0.7837,-0.7946,-0.7993,-0.7993,-0.7952,-0.7993,-0.7988,-0.7988,-0.7988,-0.7988,-0.7988,-0.7973,-0.7952,-0.7952,-0.7912,-0.7891,-0.7898,-0.7932,-0.7952,-0.7952,-0.7975,-0.7993,-0.7946,-0.7912,-0.7891,-0.7891,0.0,0.0,0.0,0.0,0.0,0.0,0.0,0.0,0.0,0.0,0.0,0.0,0.0,0.0,0.0,0.0,0.0,0.0,0.0,0.0,0.0,0.0,0.0,0.0,0.0,0.0,0.0,0.0,0.0,0.0,0.0,-0.2426,-0.2987,-0.5262,-0.4704,-0.4717,-0.6518,-0.6801,-0.7322,-0.8557,-0.8712,-0.9313,-1.0739,-1.0853,-1.0901,-1.1036,-1.1077,-1.1077,-1.1077,-1.1077,-1.1077,-1.1077,-1.0901,-1.0853,-1.0846,-1.0738,-0.8839,-0.5396,-0.5396,-0.3423,0.0,0.0,0.0,0.0,0.0,0.0,0.0,0.0,0.0,0.0,0.0,0.0,0.0,0.0,0.0,-0.023,-0.0917,-0.1045,-0.1045,-0.1037,-0.1713,-0.1963,-0.1262,-0.2323,-0.3165,-0.3165,-0.4302,-0.5086,-0.5168,-0.6311,-0.7076,-0.7154,-0.769,-0.7988,-0.7988,-0.7988,-0.7988,-0.7988,-0.7988,-0.7988,-0.7988,-0.7988,-0.7988,-0.7988,-0.7988,-0.7988,-0.7988,-0.7988,-0.7988,-0.7988,-0.7988,-0.7988,-0.7988,-0.7988,-0.7988,-0.7988,-0.7988,-0.7959,-0.7885,-0.7885,-0.7831,-0.7763,-0.7763,0.0,0.0,0.0,0.0,0.0,0.0,0.0,0.0,0.0,0.0,0.0,0.0,0.0,0.0,0.0,0.0,0.0,0.0,0.0,0.0,0.0,0.0,0.0,0.0,-0.1281,-0.166,-0.2715,-0.2769,-0.3364,-0.5201,-0.541,-0.5792,-0.6808,-0.691,-0.7378,-0.851,-0.8584,-0.8644,-0.8783,-0.8783,-0.8783,-0.8783,-0.8783,-0.8783,-0.8783,-0.865,-0.8584,-0.8584,-0.8515,-0.6999,-0.4262,-0.4262,-0.2701,0.0,0.0,0.0,0.0,0.0,0.0,0.0,0.0,0.0,0.0,0.0,0.0,0.0,0.0,0.0,0.0,0.0,0.0,0.0,0.0,0.0,0.0,0.0,-0.1033,-0.1762,-0.1762,-0.2964,-0.3767,-0.3767,-0.5006,-0.5776,-0.5761,-0.6896,-0.756,-0.756,-0.7541,-0.7609,-0.7759,-0.7771,-0.7839,-0.7988,-0.7988,-0.7988,-0.7988,-0.7988,-0.7988,-0.7988,-0.7988,-0.7988,-0.7988,-0.7988,-0.7988,-0.7988,-0.7988,-0.7988,-0.7988,-0.7988,-0.8027,-0.8015,-0.7841,-0.7797,-0.7785,-0.7616,0.0,0.0,0.0,0.0,0.0,0.0,0.0,0.0,0.0,0.0,0.0,0.0,0.0,0.0,0.0,0.0,0.0,0.0,0.0,0.0,0.0,0.0,0.0,0.0,0.0,0.0,0.0,-0.1384,-0.298,-0.4615,-0.4801,-0.4859,-0.509,-0.5093,-0.52,-0.5419,-0.5426,-0.5436,-0.5442,-0.5452,0.0,0.0,0.0,-0.5439,-0.5432,-0.5423,-0.5419,-0.5419,-0.5409,-0.4442,-0.2714,-0.2714,-0.1706,0.0,0.0,0.0,0.0,0.0,0.0,0.0,0.0,0.0,0.0,0.0,0.0,0.0032,0.0,0.0,0.0,0.0,0.0,0.0,0.0,0.0,0.0,0.0,-0.0227,-0.0378,-0.0378,-0.1586,-0.2389,-0.2389,-0.3615,-0.4391,-0.4377,-0.4616,-0.4773,-0.4773,-0.4785,-0.5286,-0.6369,-0.638,-0.6905,-0.7988,-0.7988,-0.7988,-0.7988,-0.7988,-0.7988,-0.7988,-0.7988,-0.7988,-0.7988,-0.7988,-0.7988,-0.7988,-0.7988,-0.7988,-0.7988,-0.7988,-0.8094,-0.8069,-0.6833,-0.6478,-0.6438,-0.5184,-0.4759,-0.4738,-0.4745,-0.4743,0.0,0.0,0.0,0.0,0.0,0.0,0.0,0.0,0.0,0.0,0.0,0.0,0.0,0.0,0.0,0.0,0.0,0.0,0.0,-0.0033,0.0,0.0,0.0,-0.0313,-0.0659,-0.0997,-0.104,-0.1606,-0.3075,-0.3215,-0.386,-0.5456,-0.5551,-0.5611,-0.5706,-0.5726,-0.5729,-0.5713,-0.571,-0.5716,-0.5728,-0.5631,-0.5566,-0.5566,-0.5436,0.0,-0.2683,-0.2683,-0.1696,0.0,0.0,0.0,0.0,0.0,0.0,0.0,0.0,0.0,0.0,0.0,0.0,0.0196,0.0,0.0,0.0,0.0,0.0,0.0,0.0,0.0,0.0,0.0,0.0,0.0,0.0,-0.0605,-0.1008,-0.1008,-0.2225,-0.3278,-0.3945,-0.4004,-0.4004,-0.4004,-0.3995,-0.4315,-0.4996,-0.5003,-0.5317,-0.5985,-0.5985,-0.5985,-0.5985,-0.5985,-0.64,-0.7123,-0.6349,-0.6836,-0.8211,-0.7456,-0.7584,-0.8262,-0.8262,-0.7821,-0.7143,-0.7028,-0.7071,-0.6955,-0.5504,-0.5051,-0.5027,-0.425,-0.4001,-0.3998,-0.3988,-0.4001,-0.4004,0.0,0.0,0.0,0.0,0.0,0.0,0.0,0.0,0.0,0.0,0.0,0.0,0.0,0.0,0.0,0.0,0.0,0.0,0.0,0.0,0.0,0.0,0.0,0.0,0.0,0.0,-0.0356,-0.1262,-0.1335,-0.174,-0.2714,-0.2807,-0.2825,-0.288,-0.2898,-0.29,-0.2882,-0.2882,-0.2902,-0.2902,-0.2846,-0.2791,-0.2809,-0.2719,-0.2241,-0.1345,-0.1345,-0.0843,0.0,0.0,0.0,0.0,0.0,0.0,0.0,0.0,0.0,0.0,0.0,0.0,0.0266,0.0,0.0,0.0,0.0,0.0,0.0,0.0,0.0,0.0,0.0,0.0,0.0,0.0,0.0,0.0,0.0,-0.0981,-0.2076,-0.3146,-0.3232,-0.3232,-0.3232,-0.3222,-0.3345,-0.3601,-0.3613,-0.3739,-0.4004,-0.4004,-0.4004,-0.4004,-0.4004,-0.4665,-0.58,-0.4559,-0.5352,-0.7547,-0.6358,-0.6542,-0.7632,-0.7632,-0.6916,-0.5795,-0.537,-0.5404,-0.5465,-0.411,-0.3633,-0.3615,-0.331,-0.3233,-0.3214,-0.323,-0.3214,-0.3232,-0.3232,-0.2457,0.0,0.0,0.0,0.0,0.0,0.0,0.0,0.0,0.0,0.0,0.0,0.0,0.0,0.0,0.0,0.0,0.0,0.0,0.0,0.0,0.0,0.0,0.0,0.0,0.0,0.0,0.0,0.0,0.0,0.0,0.0,0.0,0.0,0.0,0.0,0.0,0.0,0.0,0.0,0.0,0.0,0.0,0.0,0.0,0.0,0.0,0.0,0.0,0.0,0.0,0.0,0.0,0.0,0.0,0.0202,0.0471,0.0135,0.0235,0.0773,0.0,0.0,0.0,0.0,0.0,0.0,0.0,0.0,0.0,0.0,0.0,0.0,0.0,0.0,0.0,0.0,-0.0133,-0.0298,-0.0426,-0.0456,-0.0456,-0.0456,-0.0449,-0.0995,-0.2203,-0.2222,-0.2815,-0.4004,-0.4004,-0.4004,-0.4004,-0.4004,-0.4083,-0.4242,-0.4083,-0.4189,-0.4506,-0.4321,-0.4348,-0.4506,-0.4506,-0.4401,-0.4116,-0.2911,-0.3252,-0.4199,-0.2744,-0.2306,-0.2191,-0.0877,-0.044,-0.0445,-0.0438,-0.0445,-0.0456,-0.0456,-0.0346,-0.0234,-0.0234,-0.0118,0.0,0.0,0.0,0.0,0.0,0.0,0.0,0.0,0.0,0.0,0.0,0.0,0.0,0.0,0.0,0.0,0.0,0.0,0.0,0.0,0.0,0.0,0.0,0.0,0.0,0.0,0.0,0.0,0.0,0.0,0.0,0.0,0.0,0.0,0.0,0.0,0.0,0.0,0.0,0.0,0.0,0.0,0.0,0.0,0.0,0.0,0.0,0.0,0.0,0.0,0.0,0.0975,0.2216,0.0606,0.1009,0.2652,0.2322,0.2327,0.2333,0.234,0.1028,0.0,0.0,0.0,0.0,0.0,0.0,0.0,0.0,0.0,0.0,0.0,0.0,0.0,0.0,0.0,0.0,0.0,0.0,-0.0259,-0.0828,-0.0822,-0.1101,-0.1664,-0.1664,-0.1664,-0.1664,-0.1664,-0.2143,-0.2902,-0.2059,-0.2648,-0.422,-0.3321,-0.3471,-0.4298,-0.4298,-0.3749,-0.29,-0.2317,-0.1964,-0.1689,-0.1053,-0.0863,0.0,-0.0195,0.0,0.0,0.0,0.0,0.0,0.0,0.0,0.0,0.0,0.0,0.0,0.0,0.0,0.0,0.0,0.0,0.0,0.0,0.0,0.0,0.0,0.0,0.0,0.0,0.0,0.0,0.0,0.0,0.0,0.0,0.0,0.0,0.0,0.0,0.0,0.0,0.0,0.0,0.0,0.0,0.0,0.0,0.0,0.0,0.0,0.0,0.0,0.0,0.0,0.0,0.0,0.0,0.0,0.0,0.0,0.0,0.0,0.0,0.061,0.1579,0.1579,0.2685,0.4057,0.2249,0.2719,0.4526,0.3938,0.3979,0.3989,0.3989,0.2389,0.1109,0.1109,0.1109,0.1109,0.1109,0.1109,0.1111,0.1142,0.1156,0.1177,0.1231,0.0851,0.0619,0.0606,0.0234,0.0,0.0,0.0,0.0,0.0,0.0,0.0,0.0,0.0,0.0,0.0,0.0,-0.0563,-0.1539,-0.0474,-0.1211,-0.3198,-0.2056,-0.2245,-0.3255,-0.3255,-0.2576,-0.1588,-0.1579,-0.093,0.0,0.0,0.0,0.0,0.0,0.0,0.0,0.0,0.0,0.0,0.0,0.0,0.0,0.0,0.0,0.0,0.0,0.0,0.0,0.0,0.0,0.0,0.0,0.0,0.0,0.0,0.0,0.0,0.0,0.0,0.0,0.0,0.0,0.0,0.0,0.0,0.0,0.0,0.0,0.0,0.0,0.0,0.0,0.0,0.0,0.0,0.0,0.0,0.0,0.0,0.0,0.0,0.0,0.0,0.0,0.0,0.0,0.0,0.0036,0.0573,0.0813,0.0832,0.1342,0.2316,0.3506,0.3461,0.4526,0.5964,0.466,0.4991,0.6297,0.0,0.392,0.3989,0.3989,0.3942,0.3889,0.3889,0.3889,0.3889,0.3889,0.3889,0.3918,0.4068,0.4078,0.4139,0.4341,0.3,0.2119,0.2135,0.0794,0.0,0.0,0.0,0.0,0.0,0.0,0.0,0.0,0.0,0.0,0.0,0.0,-0.003,-0.006,-0.003,-0.006,-0.0147,-0.0088,-0.0088,-0.0147,-0.0147,-0.0118,-0.0059,-0.0058,-0.0029,0.0,0.0,0.0,0.0,0.0,0.0,0.0,0.0,0.0,0.0,0.0,0.0,0.0,0.0,0.0,0.0,0.0,0.0,0.0,0.0,0.0,0.0,0.0,0.0,0.0,0.0,0.0,0.0,0.0,0.0,0.0,0.0,0.0,0.0,0.0,0.0,0.0,0.0,0.0,0.0,0.0,0.0,0.0,0.0,0.0,0.0,0.0,0.0,0.0,0.0,0.0,0.0,0.0,0.0,0.0,0.0,0.0,0.0,0.0109,0.2009,0.2815,0.2949,0.4701,0.5468,0.5491,0.5356,0.6398,0.7931,0.7864,0.7864,0.7931,0.0,0.0,0.665,0.665,0.665,0.665,0.665,0.5143,0.4034,0.4111,0.424,0.0,0.0,0.0,0.0,0.0,0.403,0.3714,0.3718,0.3357,0.3107,0.3125,0.3216,0.3302,0.338,0.338,0.2872,0.178,0.178,0.1192,0.0,0.0,0.0,0.0,0.0,0.0,0.0,0.0,0.0,0.0,0.0,0.0,0.0,0.0,0.0,0.0,0.0,0.0,0.0,0.0,0.0,0.0,0.0,0.0,0.0,0.0,0.0,0.0,0.0,0.0,0.0,0.0,0.0,0.0,0.0,0.0,0.0,0.0,0.0,0.0,0.0,0.0,0.0,0.0,0.0,0.0,0.0,0.0,0.0,0.0,0.0,0.0,0.0,0.0,0.0,0.0,0.0,0.0,0.0,0.0,0.0,0.0,0.0,0.0,0.0,0.0,0.0,0.0,0.0,0.0732,0.2039,0.1952,0.2662,0.4006,0.4571,0.4809,0.4876,0.5465,0.6426,0.7509,0.7374,0.8384,0.9906,0.9813,0.9775,0.9775,0.0,0.0,0.0,0.7988,0.7988,0.0,0.0,0.0,0.0,0.0,0.0,0.0,0.0,0.0,0.0,0.0,0.0,0.5285,0.5284,0.4925,0.4714,0.4711,0.4814,0.4937,0.5015,0.5015,0.4552,0.357,0.357,0.3015,0.1915,0.1915,0.1915,0.1915,0.1267,0.0971,0.0934,0.0286,0.0,0.0,0.0,0.0,0.0,0.0,0.0,0.0,0.0,0.0,0.0,0.0,0.0,0.0,0.0,0.0,0.0,0.0,0.0,0.0,0.0,0.0,0.0,0.0,0.0,0.0,0.0,0.0,0.0,0.0,0.0,0.0,0.0,0.0,0.0,0.0,0.0,0.0,0.0,0.0,0.0,0.0,0.0,0.0,0.0,0.0,0.0,0.0,0.0,0.0,0.0,0.0,0.0,0.0,0.0,0.0,0.0,0.0,0.0353,0.1098,0.1866,0.2936,0.4225,0.4157,0.4814,0.6024,0.6637,0.6889,0.6876,0.7522,0.8494,0.9509,0.9383,0.9989,1.0907,1.0894,1.0812,1.0684,0.0,0.0,0.0,0.0,0.0,0.0,0.0,0.0,0.0,0.0,0.0,0.0,0.0,0.0,0.0,0.0,0.0,0.0,0.6814,0.5627,0.4928,0.4943,0.5088,0.5165,0.5168,0.5168,0.5173,0.5217,0.522,0.5298,0.5381,0.5384,0.5384,0.5315,0.3614,0.2773,0.2573,0.0858,0.0095,0.0,0.0,0.0,0.0,0.0,0.0,0.0,0.0,0.0,0.0,0.0,0.0,0.0,0.0,0.0,0.0,0.0,0.0,0.0,0.0,0.0,0.0,0.0,0.0,0.0,0.0,0.0,0.0,0.0,0.0,0.0,0.0,0.0,0.0,0.0,0.0,0.0,0.0,0.0,0.0,0.0,0.0,0.0,0.0,0.0,0.0,0.0,0.0,0.0,0.0,0.0,0.0,0.0,0.0,0.0041,0.016,0.0277,0.1334,0.3286,0.5318,0.6372,0.6455,0.6452,0.6404,0.6407,0.8246,0.8956,0.8992,1.0705,1.1402,1.1389,1.1268,1.109,1.0955,1.1118,1.0982,1.0744,0.0,0.0,0.0,0.0,0.0,0.0,0.0,0.0,0.0,0.0,0.0,0.0,0.0,0.0,0.0,0.0,0.0,0.0,0.8341,0.8253,0.8189,0.8195,0.8438,0.8609,0.871,0.871,0.8145,0.6955,0.7066,0.6446,0.5184,0.5341,0.5304,0.5152,0.4844,0.3904,0.2514,0.2156,0.1225,0.0,0.0,0.0,0.0,0.0,0.0,0.0,0.0,0.0,0.0,0.0,0.0,0.0,0.0,0.0,0.0,0.0,0.0,0.0,0.0,0.0,0.0,0.0,0.0,0.0,0.0,0.0,0.0,0.0,0.0,0.0,0.0,0.0,0.0,0.0,0.0,0.0,0.0,0.0,0.0,0.0,0.0,0.0,0.0,0.0,0.0,0.0,0.0,0.0,0.0,0.0,0.0,0.0,0.0,0.0781,0.2456,0.4046,0.5049,0.5474,0.602,0.7104,0.8591,0.8511,0.9292,1.0712,1.0958,1.1035,1.1027,1.1404,1.1558,1.1545,1.1396,1.1307,1.1267,1.1227,1.1152,1.1084,0.0,0.0,0.0,0.0,0.0,0.0,0.0,0.0,0.0,0.0,0.0,0.0,0.0,0.0,0.0,0.0,0.0,0.0,0.0,0.9313,0.9449,0.9417,0.9666,0.9832,0.9913,0.9981,0.9556,0.8643,0.8808,0.841,0.7471,0.7523,0.7523,0.7439,0.6701,0.5762,0.4674,0.3968,0.2687,0.0,0.0,0.0661,0.0,0.0,0.0,0.0,0.0,0.0514,0.1186,0.1197,0.0663,0.0,0.0,0.0,0.0,0.0,0.0,0.0,0.0,0.0,0.0,0.0,0.0,0.0,0.0,0.0,0.0,0.0,0.0,0.0,0.0,0.0746,0.1387,0.142,0.2293,0.2955,0.3001,0.3064,0.3116,0.3116,0.3073,0.3043,0.3043,0.2988,0.2939,0.2939,0.2058,0.1471,0.1429,0.2394,0.2939,0.2939,0.2947,0.3539,0.4785,0.6825,0.7808,0.7758,0.8618,0.9648,1.0779,1.0664,1.1262,1.2284,1.2108,1.1959,1.1786,1.1705,1.1638,1.1577,1.1525,1.145,1.1389,1.1369,1.1315,1.1206,0.0,0.0,0.0,0.0,0.0,0.0,0.0,0.0,0.0,0.8519,0.8737,0.8967,0.9165,0.9228,0.0,0.0,0.0,0.0,0.0,0.0,0.9551,0.9415,0.9673,0.9792,0.9792,0.992,0.9988,0.9988,1.0175,1.031,1.0432,1.0331,1.0337,1.0361,0.8706,0.7821,0.7478,0.593,0.4307,0.2841,0.2835,0.1989,0.0732,0.0,0.072,0.0715,0.0723,0.1715,0.3064,0.3064,0.1865,0.0324,0.0065,0.0164,0.0363,0.0364,0.0568,0.0744,0.0755,0.0757,0.076,0.077,0.0743,0.0747,0.074,0.0742,0.0709,0.0737,0.053,0.0357,0.0393,0.1843,0.3121,0.3276,0.5199,0.6699,0.6855,0.7019,0.7067,0.7078,0.6994,0.6904,0.6894,0.6793,0.671,0.6703,0.5198,0.4111,0.3776,0.5616,0.67,0.67,0.7011,0.714,0.7099,0.9072,1.0051,1.0019,1.1726,1.2522,1.2501,1.2501,1.2433,1.2318,1.2298,1.2135,1.1854,1.1834,1.1753,1.1674,1.1653,1.1565,1.1463,1.1579,1.145,1.1274,0.0,0.0,0.0,0.0,0.0,0.0,0.0,0.0,0.0,0.0,0.8798,0.8967,0.9165,0.9294,0.0,0.0,0.0,0.0,0.0,0.0,0.0,0.9571,0.9734,0.9792,0.9792,0.9819,0.9832,0.9832,0.9981,1.0069,1.0096,1.0229,1.0222,1.0065,0.9912,0.8925,0.7431,0.7224,0.6162,0.4632,0.464,0.4559,0.4467,0.4455,0.4457,0.0,0.4473,0.4675,0.4945,0.4945,0.3737,0.1967,0.0468,0.1036,0.2246,0.2375,0.3473,0.4649,0.4747,0.48,0.4782,0.4811,0.4724,0.4633,0.464,0.4547,0.4494,0.46,0.3361,0.2255,0.2385,0.2687,0.3007,0.3276,0.5043,0.6513,0.6848,0.6932,0.6962,0.7071,0.7085,0.7006,0.6897,0.688,0.6807,0.6707,0.804,0.804,0.6199,0.6491,0.67,0.67,0.8523,0.9421,0.9274,1.1463,1.2441,1.2174,1.2502,1.2623,1.2501,1.2501,1.2488,1.2461,1.2338,1.2257,1.2203,1.2074,1.2043,1.2009,1.1843,1.1739,1.1705,1.1617,1.1586,1.1545,0.0,0.0,0.0,0.0,0.0,0.0,0.0,0.8336,0.8532,0.8581,0.8859,0.9103,0.9281,0.9437,0.953,0.0,0.0,0.0,0.0,0.0,0.0,0.9612,0.9717,0.9792,0.9792,0.9978,1.0019,0.9907,0.0,1.0168,1.0136,1.008,1.0046,0.9984,1.0046,0.9528,0.8651,0.8712,0.7852,0.6408,0.6412,0.5985,0.5384,0.5393,0.5398,0.0,0.6431,0.6765,0.6765,0.6765,0.616,0.5158,0.3354,0.3423,0.4135,0.426,0.4925,0.5632,0.5751,0.5782,0.5803,0.5808,0.5696,0.5606,0.5603,0.5484,0.545,0.5584,0.4863,0.4243,0.437,0.5299,0.6132,0.6438,0.8251,0.9795,1.0323,1.0469,1.0572,1.0835,1.0796,1.0707,1.0649,1.0492,1.0361,1.0309,1.1212,1.0798,0.854,0.9545,1.0169,1.0169,1.1261,1.1771,1.1664,1.2675,1.3105,1.2956,1.2767,1.2652,1.2617,1.2535,1.2501,1.2501,1.2427,1.2359,1.2284,1.221,1.2173,1.2091,1.1979,1.1952,1.1932,1.1782,1.1692,1.1678,0.0,0.0,0.0,0.0,0.0,0.0,0.8101,0.833,0.8532,0.8574,0.8941,0.924,0.939,0.9517,0.9666,0.0,0.0,0.0,0.0,0.0,0.0,0.0,0.9731,0.9805,0.9839,0.0,0.0,1.0069,1.0222,0.0,0.0,0.0,0.0,0.0,0.9893,0.9819,0.9792,0.9792,0.918,0.0,0.0,0.7523,0.653,0.0,0.0,0.0,0.0,0.8568,0.8568,0.8568,0.8568,0.8335,0.6965,0.6264,0.5979,0.613,0.6471,0.6833,0.6966,0.7025,0.7059,0.7058,0.692,0.6782,0.6817,0.6649,0.6583,0.6753,0.6475,0.624,0.6378,0.7774,0.8991,0.9357,1.1211,1.2855,1.3457,1.3687,1.3903,1.4217,1.4177,1.4109,1.4119,1.3831,1.3619,1.3592,1.3485,1.2602,1.084,1.2436,1.3403,1.3403,1.3403,1.3403,1.3403,1.3281,1.3248,1.3207,1.2935,1.2753,1.2686,1.2603,1.2535,1.2501,1.2501,1.244,1.2338,1.2338,1.2264,1.2193,1.2159,1.2145,1.2132,1.1938,1.182,1.178,0.0,0.0,0.0,0.0,0.0,0.0,0.8397,0.8492,0.8581,0.8831,0.9049,0.924,0.939,0.9517,0.9666,0.0,0.0,0.0,0.0,0.0,0.0,0.0,0.0,0.0,0.0,0.0,0.0,1.0256,1.0308,0.0,0.0,0.0,0.0,0.0,0.0,0.992,0.9792,0.9792,0.0,0.0,0.0,0.0,0.0,0.0,0.0,0.0,0.0,1.0452,1.0452,1.0452,1.0452,1.0419,1.0246,0.9072,0.7784,0.7999,0.9308,1.0722,1.085,1.0986,1.1054,1.1067,1.0867,1.0688,1.0675,1.0427,1.031,1.0631,0.9267,0.8119,0.8397,0.8595,0.8862,0.9342,1.1132,1.2732,1.3336,1.3619,1.3862,1.4075,1.4204,1.4224,1.4132,1.3919,1.3727,1.3599,1.3485,1.3314,1.3106,1.3272,1.3403,1.3403,1.3403,1.3403,1.3403,1.339,1.3308,1.3214,1.3186,1.299,1.2693,1.2679,1.263,1.2501,1.2501,1.2494,1.2481,1.2481,1.2474,1.2447,1.2318,1.2271,1.225,1.2132,1.1952,1.1793,0.0,0.0,0.0,0.0,0.0,0.0,0.8169,0.8364,0.8526,0.8648,0.8872,0.9083,0.9254,0.941,0.9564,0.9771,0.0,0.0,0.0,0.0,0.0,0.0,0.0,0.0,0.0,0.0,1.0344,1.0405,1.0405,0.0,0.0,0.0,0.0,0.0,0.0,0.9988,0.9927,0.9927,0.0,0.0,0.0,0.0,0.0,0.0,0.0,0.0,0.0,0.0,1.0684,1.0684,1.0684,1.0684,1.0684,1.0213,0.9667,0.9808,1.0496,1.1234,1.1348,1.1504,1.1584,1.1584,1.1457,1.1308,1.122,1.1104,1.1057,1.1172,1.0635,1.0229,1.0413,1.0449,1.0553,1.0952,1.1737,1.2486,1.3051,1.3308,1.3559,1.3892,1.4068,1.4136,1.4119,1.3933,1.37,1.3512,1.3437,1.3403,1.3403,1.3403,1.3403,1.3403,1.3403,1.3403,1.3403,1.3403,1.337,1.3308,1.3254,1.3105,1.2868,1.2773,1.2644,1.2501,1.2501,1.2501,1.2501,1.2501,1.2501,1.2494,1.244,1.242,1.24,1.225,1.2162,1.2081,0.0,0.0,0.0,0.0,0.0,0.8033,0.8074,0.8323,0.8526,0.8547,0.8811,0.9042,0.92,0.9362,0.9551,0.9771,0.9792,0.0,0.0,0.0,0.0,0.0,0.0,0.0,0.0,0.0,1.0514,1.0561,1.0561,1.0561,0.0,0.0,1.0385,1.0337,0.0,0.0,0.0,0.0,0.0,0.0,0.0,0.0,0.0,0.0,0.0,0.0,0.0,0.0,0.0,0.0,0.0,1.0684,1.0684,1.0684,1.0711,1.0819,1.1016,1.122,1.1329,1.147,1.1584,1.1584,1.1504,1.1362,1.1288,1.1234,1.1206,1.1254,1.1314,1.1436,1.1592,1.1617,1.1769,1.2057,1.2173,1.2411,1.2928,1.3159,1.3376,1.3693,1.3878,1.396,1.4,1.3865,1.3653,1.3485,1.3424,1.3403,1.3403,1.3403,1.3403,1.3403,1.3403,1.3403,1.3403,1.3403,1.3403,1.3397,1.3295,1.3186,1.2996,1.2847,1.2691,1.2501,1.2501,1.2501,1.2501,1.2501,1.2501,1.2501,1.2501,1.2501,1.2488,1.2386,1.2325,1.2257,0.0,0.0,0.0,0.0,0.0,0.0,0.8267,0.8417,0.8533,0.8689,0.8995,0.9207,0.9207,0.9422,0.9666,0.9778,0.9792,0.0,0.0,0.0,0.0,0.0,0.0,0.0,0.0,0.0,1.0568,1.0684,1.0684,1.0684,1.0684,1.0684,1.0636,1.0487,0.0,0.0,0.0,0.0,0.0,0.0,0.0,0.0,1.0684,0.0,0.0,0.0,0.0,0.0,0.0,0.0,0.0,0.0,0.0,1.0684,1.0684,1.0691,1.0928,1.12,1.12,1.1389,1.1584,1.1584,1.1504,1.1389,1.1389,1.1308,1.124,1.1355,1.1389,1.1436,1.1592,1.1698,1.184,1.2077,1.2305,1.2603,1.2955,1.3214,1.3458,1.3572,1.3592,1.3646,1.3788,1.3673,1.3592,1.3585,1.3485,1.3403,1.3403,1.3403,1.3403,1.3403,1.3403,1.3403,1.3403,1.3403,1.3403,1.3403,1.3397,1.3247,1.3003,1.3003,1.2833,1.2501,1.2501,1.2501,1.2501,1.2501,1.2501,1.2501,1.2501,1.2501,1.2501,1.2501,1.2413,1.2291,0.0,0.0,0.0,0.0,0.0,0.0,0.8081,0.8323,0.8526,0.8547,0.8818,0.9042,0.92,0.9362,0.9551,0.9771,0.9886,0.0,0.0,0.0,0.0,0.0,0.0,0.0,0.0,1.0595,1.067,1.0684,1.0684,1.0684,1.0684,1.0684,1.0697,1.0643,1.0541,1.0466,0.0,0.0,0.0,0.0,1.0671,1.0684,1.0684,0.0,0.0,0.0,0.0,0.0,0.0,0.0,0.0,0.0,0.0,0.0,0.0,1.0684,1.0826,1.0982,1.0982,1.1158,1.1342,1.1342,1.1348,1.1362,1.1295,1.1362,1.1457,1.1402,1.147,1.1592,1.1698,1.1766,1.1918,1.2176,1.2379,1.2569,1.2773,1.3057,1.3302,1.3458,1.3524,1.3646,1.3781,1.362,1.3471,1.3471,1.3431,1.3403,1.3403,1.3403,1.3403,1.3403,1.3403,1.3403,1.3403,1.3403,1.3403,1.3403,1.3403,1.3295,1.3146,1.3043,1.2887,1.2611,1.2549,1.2501,1.2501,1.2501,1.2501,1.2501,1.2501,1.2501,1.2501,1.2501,1.2474,1.242,0.0,0.0,0.0,0.0,0.0,0.0,0.7988,0.8289,0.8505,0.8505,0.8798,0.9055,0.9172,0.9369,0.9585,0.9852,1.0015,0.0,0.0,0.0,0.0,0.0,0.0,0.0,1.0487,0.9971,0.9676,0.9676,0.9676,0.9676,0.9709,1.0386,1.0684,1.0684,1.0622,1.0575,0.0,0.0,0.0,0.0,1.0684,1.0684,1.0684,0.0,0.0,0.0,0.0,0.0,0.0,0.0,0.0,0.0,0.0,0.0,0.0,0.0,1.0752,1.084,1.0901,1.1056,1.1213,1.1268,1.1356,1.1382,1.1341,1.1484,1.1592,1.1497,1.1552,1.1647,1.1698,1.1843,1.1979,1.2176,1.2372,1.2576,1.2786,1.2976,1.3186,1.3295,1.3498,1.3599,1.3632,1.3505,1.3424,1.3485,1.3437,1.3403,1.3403,1.3403,1.3403,1.3403,1.3403,1.3403,1.3403,1.3403,1.3403,1.3403,1.3403,1.3322,1.3207,1.3064,1.2874,1.2679,1.2569,1.2501,0.0,1.2501,1.2501,1.2501,1.2501,1.2501,1.2501,1.2501,1.2501,1.2488,0.0,0.0,0.0,0.0,0.0,0.0,0.0,0.8289,0.8505,0.8505,0.8893,0.9172,0.9221,0.9422,0.969,1.0008,1.0195,0.0,0.0,0.0,0.0,0.0,0.0,0.0,1.0305,0.8811,0.7931,0.7831,0.7831,0.7831,0.7864,0.9676,1.0518,1.0518,1.0651,1.0684,0.0,0.0,0.0,0.0,1.0684,1.0684,0.0,0.0,0.0,0.0,0.0,0.0,0.0,0.0,0.0,0.0,0.0,0.0,0.0,0.0,0.0,0.0,0.0,1.1029,1.12,1.1307,1.1362,1.1409,1.1552,1.1606,0.0,1.1584,1.1584,1.1626,1.1647,1.187,1.2091,1.2125,1.2325,1.2603,1.2941,1.3003,1.3071,1.3227,1.3444,1.3559,1.3431,1.341,1.3458,1.3558,1.3485,1.3403,1.3403,1.3403,1.3403,1.3403,1.3403,1.3403,1.3403,1.3403,1.3403,1.3403,1.3403,1.3329,1.3227,1.3084,1.2895,1.2713,1.2603,1.2535,1.2535,1.2522,1.2515,1.2515,1.2508,1.2501,1.2501,1.2501,1.2579,1.2688,0.0,0.0,0.0,0.0,0.0,0.0,0.0,0.0,0.0,0.0,0.8777,0.9076,0.9328,0.9424,0.9646,0.0,0.0,0.0,0.0,0.0,0.0,0.0,0.0,0.0,0.8624,0.822,0.7331,0.5997,0.5997,0.5997,0.6064,0.7797,0.8634,0.8701,1.0081,1.0684,0.0,0.0,0.0,0.0,1.0684,1.0684,0.0,0.0,0.0,0.0,1.0684,1.0684,0.0,0.0,0.0,0.0,0.0,0.0,0.0,0.0,1.0684,1.0691,1.0732,0.0,1.0833,1.0867,1.105,1.1261,0.0,1.145,1.1584,1.1584,1.1584,1.1687,1.1955,1.1918,1.1999,1.2345,1.2454,1.2569,1.2759,1.2983,1.322,1.3492,1.3485,1.3485,1.3566,1.3471,1.3417,1.3451,1.3424,1.3403,1.3403,1.3403,1.3403,1.3403,1.3403,1.3403,1.3403,1.3403,1.3403,1.3403,1.3403,1.3383,1.3342,1.3193,1.3146,1.3064,1.2955,1.2894,1.2887,1.2725,1.2638,1.2625,1.2549,1.2501,1.2501,1.2501,1.3452,1.4782,0.0,0.0,0.0,0.0,0.0,0.0,0.0,0.0,0.0,0.0,0.8804,0.8834,0.8299,0.8318,0.8239,0.0,0.0,0.0,0.0,0.0,0.0,0.0,0.0,0.7598,0.6696,0.5941,0.5091,0.4158,0.4158,0.4158,0.4191,0.5964,0.7231,0.8064,0.9875,1.0684,0.0,0.0,1.0684,1.0684,1.0684,0.0,0.0,0.0,0.0,0.0,1.0684,1.0684,0.0,1.0684,1.0684,1.0684,0.0,0.0,0.0,0.0,1.0684,1.0684,1.0684,1.0819,1.0941,1.1009,1.1199,1.1389,1.1457,1.1545,1.1584,1.1584,1.1584,1.1667,1.183,1.1904,1.202,1.2302,1.2413,1.2576,1.2807,1.3091,1.3342,1.3505,1.3512,1.3512,1.3526,1.3451,1.3403,1.3403,1.3403,1.3403,1.3403,1.3403,1.3403,1.3403,1.3403,1.3403,1.3403,1.3403,1.3403,1.3403,1.3403,1.3403,1.3397,1.3241,1.3214,1.3207,1.3064,1.3003,1.2996,1.2868,1.2834,1.282,1.2664,1.318,1.402,1.3898,1.5157,1.6904,0.0,0.0,0.0,0.0,0.0,0.0,0.0,0.0,0.0,0.0,0.0,0.0,0.0,0.0,0.0,0.0,0.0,0.0,0.0,0.0,0.0,0.0,0.484,0.503,0.4726,0.3397,0.2548,0.2275,0.2281,0.2283,0.2316,0.4124,0.6064,0.8064,0.9609,1.0452,1.0684,1.0684,1.0684,1.0684,1.0684,0.0,0.0,0.0,0.0,0.0,0.0,0.0,0.0,1.0684,1.0684,1.0684,1.0684,0.0,0.0,0.0,0.0,0.0,1.0718,1.0989,1.1281,1.1307,1.147,1.1611,1.1705,1.1651,1.1584,1.1584,1.1584,1.1633,1.1681,1.187,1.2091,1.2186,1.2372,1.2637,1.2962,1.3214,1.3349,1.3397,1.3512,1.3504,1.341,1.3403,1.3403,1.3403,1.3403,1.3403,1.3403,1.3403,1.3403,1.3403,1.3403,1.3403,1.3403,1.3403,1.3403,1.3403,1.3403,1.3403,1.3397,1.3268,1.3248,1.32,1.3118,1.3071,1.3064,1.3043,1.303,1.3056,1.3177,1.4304,1.581,1.5987,1.7312,1.9101,0.0,0.0,0.0,0.0,0.0,0.0,0.0,0.0,0.0,0.0,0.0,0.0,0.0,0.0,0.0,0.0,0.0,0.0,0.0,0.0,0.0,0.0838,0.3711,0.4652,0.3089,0.2831,0.1936,0.043,0.0401,0.0404,0.0437,0.2283,0.4857,0.7997,0.8296,0.9271,1.0684,1.0684,1.0684,1.0684,1.0684,0.0,0.0,0.0,0.0,0.0,0.0,0.0,0.0,1.0684,1.0684,1.0684,1.0684,0.0,0.0,0.0,0.0,0.0,1.0846,1.1191,1.1463,1.107,1.1286,1.1592,1.1484,1.1545,1.1584,1.1584,1.1584,1.1694,1.1982,1.1925,1.1996,1.2503,1.2625,1.2759,1.2975,1.3043,1.3159,1.337,1.3424,1.3424,1.3403,1.3403,1.3403,1.3403,1.3403,1.3403,1.3403,1.3403,1.3403,1.3403,1.3403,1.3403,1.3403,1.3403,1.3403,1.3403,1.3403,1.3403,1.3403,1.3376,1.3363,1.3363,1.3342,1.3336,1.3322,1.3234,1.318,1.3328,1.5026,1.5727,1.6013,1.7788,1.961,2.1365,0.0,0.0,0.0,0.0,0.0,0.0,0.0,0.0,0.0,0.0,0.0,0.0,0.0,0.0,0.0,0.0,0.0,0.0,0.0,0.0,0.0871,0.0033,0.1594,0.2085,0.1251,0.1234,0.0835,0.0,0.0,0.0,0.0034,0.1848,0.3555,0.5192,0.616,0.7564,0.9238,0.9238,0.9809,1.0684,0.0,0.0,0.0,0.0,0.0,0.0,0.0,0.0,0.0,0.0,1.0684,1.0684,1.0684,0.0,0.0,0.0,0.0,0.0,1.0772,1.1117,1.145,1.1205,1.1586,1.1965,1.1891,1.1803,1.1698,1.1698,1.1638,1.1687,1.1898,1.1945,1.2128,1.2605,1.28,1.2908,1.3098,1.3118,1.32,1.3376,1.3403,1.3403,1.3403,1.3403,1.3403,1.3403,1.3403,1.3403,1.3403,1.3403,1.3403,1.3403,1.3403,1.3403,1.3403,1.3403,1.3403,1.3403,1.3403,1.3403,1.3403,1.3403,1.3403,1.3403,1.3403,1.3403,1.3397,1.3322,1.3979,1.5136,1.5964,1.7621,1.9748,2.1624,2.2703,2.3339,0.0,0.0,0.0,0.0,0.0,0.0,0.0,0.0,0.0,0.0,0.0,0.0,0.0,0.0,0.0,0.0,0.0,0.0,0.0,0.0,0.0,0.0,0.0,0.0,0.0,0.0,0.0,0.0,0.0,0.0,0.0034,0.1411,0.2283,0.2752,0.4158,0.573,0.7431,0.7831,0.8801,1.0114,0.0,0.0,0.0,0.0,0.0,0.0,0.0,0.0,0.0,0.0,0.0,0.0,0.0,0.0,0.0,1.0684,1.0684,1.0691,1.0732,1.105,1.1348,1.1382,1.1762,1.2149,1.2223,1.1999,1.1766,1.1834,1.1796,1.1769,1.1874,1.2094,1.2332,1.2632,1.2861,1.305,1.3193,1.3214,1.3268,1.3383,1.3403,1.3403,1.3403,1.3403,1.3403,1.3403,1.3403,1.3403,1.3403,1.3403,1.3403,1.3403,1.3403,1.3403,1.3403,1.3403,1.3403,1.3403,1.3403,1.3403,1.3403,1.3403,1.3403,1.3403,1.3403,1.3403,1.3445,1.3928,1.511,1.6671,1.7629,2.0212,2.3619,2.4787,2.4997,2.4706,0.0,0.0,0.0,0.0,0.0,0.0,0.0,0.0,0.0,0.0,0.0,0.0,0.0,0.0,0.0,0.0,0.0,0.0,0.0,0.0,0.0,0.0,0.0,0.0,0.0,0.0,0.0,0.0,0.0,0.0,0.0,0.0135,0.1076,0.2719,0.2853,0.389,0.5696,0.7298,0.8064,0.833,1.0014,0.0,0.0,0.0,0.0,0.0,0.0,0.0,0.0,0.0,0.0,0.0,0.0,0.0,1.0684,1.0684,1.0684,1.0718,1.086,1.1056,1.1247,1.1355,1.1531,1.1742,1.205,1.185,1.1714,1.2023,1.2077,1.2111,1.223,1.2488,1.2652,1.2686,1.2861,1.305,1.3193,1.3214,1.3268,1.3383,1.3403,1.3403,1.3403,1.3403,1.3403,1.3403,1.3403,1.3403,1.3403,1.3403,1.3403,1.3403,1.3403,1.3403,1.3403,1.3403,1.3403,1.3403,1.3403,1.3403,1.3403,1.3403,1.3403,1.3403,1.3403,1.3403,1.3562,1.5555,1.6442,1.7007,2.1047,2.39,2.5763,2.5521,2.5291,2.505,0.0,0.0,0.0,0.0,0.0,0.0,0.0,0.0,0.0,0.0,0.0,0.0,0.0,0.0,0.0,0.0,0.0,0.0,0.0,0.0,0.0,0.0,0.0,0.0,0.0,0.0,0.0,0.0,0.0,0.0,0.0,0.0,0.037,0.1009,0.1009,0.2016,0.3756,0.4423,0.5993,0.7964,0.7569,0.7636,0.0,0.0,0.0,0.0,0.0,0.0,0.0,0.0,1.0684,1.0684,1.0684,1.0684,1.0684,1.0684,1.0684,1.0698,1.0759,1.0982,1.1234,1.1355,1.1436,1.1579,1.2009,1.2084,1.2094,1.2291,1.2264,1.2223,1.2277,1.2528,1.272,1.2861,1.3037,1.3186,1.3295,1.3315,1.3336,1.3397,1.3403,1.3403,1.3403,1.3403,1.3403,1.3403,1.3403,1.3403,1.3403,1.3403,1.3403,1.3403,1.3403,1.3403,1.3403,1.3403,1.3403,1.3403,1.3403,1.3403,1.3403,1.3403,1.3403,1.3403,1.3403,1.4176,1.5432,1.6278,1.8191,2.0948,2.3991,2.5478,2.5984,2.5864,2.5529,2.5115,0.0,0.0,0.0,0.0,0.0,0.0,0.0,0.0,0.0,0.0,0.0,0.0,0.0,0.0,0.0,0.0,0.0,0.0,0.0,0.0,0.0,0.0,0.0,0.0,0.0,0.0,0.0,0.0,0.0,0.0,0.0,0.0,0.0,0.0,0.0,0.0672,0.1881,0.245,0.4091,0.626,0.5663,0.5763,0.0,0.0,0.0,0.0,0.0,0.0,0.0,0.0,1.0684,1.0684,1.0684,1.0684,1.0684,1.0684,1.0718,1.0759,1.0759,1.0941,1.1131,1.1315,1.1355,1.1497,1.1898,1.2067,1.221,1.2454,1.2427,1.2359,1.2359,1.2522,1.2705,1.2861,1.305,1.32,1.3308,1.337,1.3403,1.3403,1.3403,1.3403,1.3403,1.3356,1.3349,1.3397,1.3356,1.3349,1.3397,1.3403,1.3403,1.3403,1.3403,1.3403,1.3403,1.3403,1.3403,1.3403,1.3403,1.3403,1.3403,1.3403,1.3769,1.4417,1.4417,1.5638,1.7701,1.8354,2.0827,2.4271,2.5819,2.6305,2.6131,2.6131,2.5824,2.5396,0.0,0.0,0.0,0.0,0.0,0.0,0.0,0.0,0.0,0.0,0.0,0.0,0.0,0.0,0.0,0.0,0.0,0.0,0.0,0.0,0.0,0.0,0.0,0.0,0.0,0.0,0.0,0.0,0.0,0.0,0.0,0.0,0.0,0.0,0.0,0.0,0.0101,0.1915,0.2685,0.2853,0.466,0.4325,0.292,0.0,0.0,0.0,0.0,0.0,0.0,0.0,1.0684,1.0684,1.0684,1.0691,1.0691,1.0684,1.0792,1.0914,1.0914,1.0914,1.0948,1.1166,1.1315,1.147,1.1732,1.18,1.1928,1.2413,1.2501,1.2501,1.2501,1.2501,1.2556,1.2665,1.2861,1.305,1.3193,1.3302,1.3403,1.3403,1.3403,1.3403,1.3403,1.3261,1.3282,1.339,1.3261,1.3241,1.339,1.3403,1.3403,1.3403,1.3403,1.3403,1.3403,1.3403,1.3403,1.3403,1.3403,1.3403,1.3403,1.3403,1.4582,1.6606,1.6606,1.7874,2.0109,2.2247,2.4442,2.6386,2.6386,2.6386,2.6386,2.6386,2.6238,2.5998,0.0,0.0,0.0,0.0,0.0,0.0,0.0,0.0,0.0,0.0,0.0,0.0,0.0,0.0,0.0,0.0,0.0,0.0,0.0,0.0,0.0,0.0,0.0,0.0,0.0,0.0,0.0,0.0,0.0,0.0,0.0,0.0,0.0,0.0,0.0,0.0,0.0034,0.0572,0.1545,0.2752,0.3289,0.3957,0.466,0.0,0.0,0.0,0.0,0.0,0.0,0.0,0.0,0.0,1.0684,1.0759,1.0826,1.0718,1.0792,1.0894,1.0786,1.0833,1.0975,1.126,1.1436,1.1653,1.206,1.223,1.2372,1.2571,1.2625,1.2591,1.2522,1.2589,1.2638,1.2686,1.2942,1.3166,1.3207,1.3302,1.3403,1.3403,1.3403,1.3403,1.3403,1.3363,1.3349,1.3397,1.3356,1.3356,1.3397,1.3403,1.3403,1.3403,1.3403,1.3403,1.3403,1.3403,1.3403,1.3403,1.3403,1.3403,1.3403,1.3403,1.4582,1.6606,1.6606,1.872,2.2327,2.4522,2.5819,2.6386,2.6386,2.6386,2.6386,2.6386,2.6238,2.5998,0.0,0.0,0.0,0.0,0.0,0.0,0.0,0.0,0.0,0.0,0.0,0.0,0.0,0.0,0.0,0.0,0.0,0.0,0.0,0.0,0.0,0.0,0.0,0.0,0.0,0.0,0.0,0.0,0.0,0.0,0.0,0.0,0.0,0.0,0.0,0.0,0.0,0.0,0.0639,0.168,0.2417,0.3354,0.4492,0.0,0.0,0.0,0.0,0.0,0.0,0.0,0.0,0.0,1.0684,1.0752,1.0819,1.0786,1.088,1.1029,1.0995,1.1063,1.1239,1.1504,1.1681,1.1898,1.2284,1.244,1.2528,1.2584,1.2637,1.261,1.2522,1.2576,1.2618,1.2679,1.2935,1.3146,1.3207,1.3302,1.3403,1.3403,1.3403,1.3403,1.3403,1.3349,1.3336,1.3397,1.3342,1.3336,1.3397,1.3403,1.3403,1.3403,1.3403,1.3403,1.3403,1.3403,1.3403,1.3403,1.3403,1.3845,1.4657,1.4657,1.5843,1.7996,1.9735,2.1994,2.4522,2.5858,2.6386,2.6386,2.6386,2.6386,2.6386,2.6386,2.6319,2.6172,0.0,0.0,0.0,0.0,0.0,0.0,0.0,0.0,0.0,0.0,0.0,0.0,0.0,0.0,0.0,0.0,0.0,0.0,0.0,0.0,0.0,0.0,0.0,0.0,0.0,0.0,0.0,0.0,0.0,0.0,0.0,0.0,0.0,0.0,0.0,0.0,0.0,0.0,0.0,0.0168,0.2148,0.2954,0.332,0.6894,0.0,0.0,0.0,0.0,0.0,0.0,0.0,0.0,1.0684,1.0698,1.0732,1.086,1.1036,1.1227,1.1335,1.1484,1.1604,1.1773,1.1979,1.2213,1.244,1.2501,1.2501,1.2501,1.2501,1.2501,1.2501,1.2522,1.2583,1.2672,1.2881,1.3084,1.32,1.3302,1.3403,1.3403,1.3403,1.3403,1.3403,1.3275,1.3254,1.339,1.3275,1.3254,1.3397,1.3403,1.3403,1.3403,1.3403,1.3403,1.3403,1.3403,1.3403,1.3403,1.3604,1.4698,1.6606,1.6606,1.7914,2.0433,2.4602,2.6386,2.6386,2.6386,2.6386,2.6386,2.6386,2.6386,2.6386,2.6386,2.6386,2.6386,0.0,0.0,0.0,0.0,0.0,0.0,0.0,0.0,0.0,0.0,0.0,0.0,0.0,0.0,0.0,0.0,0.0,0.0,0.0,0.0,0.0,0.0,0.0,0.0,0.0,0.0,0.0,0.0,0.0,0.0,0.0,0.0,0.0,0.0,0.0,0.0,0.0,0.0,0.0,0.0269,0.3521,0.4827,0.5195,0.8773,1.0114,0.0,0.0,0.0,0.0,0.0,0.0,0.0,1.0684,1.0772,1.0846,1.0765,1.0955,1.1206,1.124,1.1321,1.1531,1.1955,1.221,1.2427,1.2488,1.2501,1.2501,1.2501,1.2501,1.2501,1.2501,1.2737,1.2834,1.2706,1.3057,1.3275,1.3227,1.3302,1.3403,1.3403,1.3403,1.3403,1.3403,1.337,1.3363,1.3397,1.337,1.3363,1.3397,1.3403,1.3403,1.3403,1.3403,1.3403,1.3403,1.3403,1.3403,1.3397,1.511,1.6164,1.6606,1.6606,1.872,2.2568,2.5251,2.6386,2.6386,2.6386,2.6386,2.6386,2.6386,2.6386,2.6386,2.6386,2.6386,2.6386,0.0,0.0,0.0,0.0,0.0,0.0,0.0,0.0,0.0,0.0,0.0,0.0,0.0,0.0,0.0,0.0,0.0,0.0,0.0,0.0,0.0,0.0,0.0,0.0,0.0,0.0,0.0,0.0,0.0,0.0,0.0,0.0,0.0,0.0,0.0,0.0,0.0,0.0,0.0505,0.1545,0.4292,0.5897,0.6931,0.9676,1.0684,1.0684,1.0684,0.0,0.0,0.0,0.0,0.0,0.0,0.0,1.0806,1.0799,1.0907,1.109,1.1268,1.1436,1.1708,1.2162,1.2386,1.2501,1.2501,1.2501,1.2501,1.2501,1.2562,1.261,1.261,1.2807,1.2996,1.2942,1.3139,1.3288,1.3281,1.3349,1.3403,1.3403,1.3403,1.3403,1.3403,1.3403,1.3403,1.3403,1.3403,1.3403,1.3403,1.3403,1.3403,1.3403,1.3403,1.3403,1.3403,1.3403,1.3403,1.3438,1.5555,1.7701,1.9694,1.9694,2.1512,2.4721,2.5898,2.6386,2.6386,2.6386,2.6386,2.6386,2.6386,2.6386,2.6386,2.6386,2.6386,2.6386,0.0,0.0,0.0,0.0,0.0,0.0,0.0,0.0,0.0,0.0,0.0,0.0,0.0,0.0,0.0,0.0,0.0,0.0,0.0,0.0,0.0,0.0,0.0,0.0,0.0,0.0,0.0,0.0,0.0,0.0,0.0,0.0,0.0,0.0,0.0,0.0,0.0034,0.0336,0.1344,0.2887,0.4994,0.6698,0.8197,1.0014,1.0684,1.0684,1.0684,1.0684,1.0684,1.0684,0.0,0.0,0.0,0.0,1.0711,1.084,1.0894,1.0975,1.128,1.1606,1.1965,1.2366,1.2481,1.2501,1.2501,1.2501,1.2501,1.2501,1.2623,1.2693,1.2693,1.2874,1.3077,1.3193,1.3234,1.3254,1.3383,1.3403,1.3403,1.3403,1.3403,1.3403,1.3403,1.3403,1.3403,1.3403,1.3403,1.3403,1.3403,1.3403,1.3403,1.3403,1.3403,1.3403,1.3403,1.3403,1.3604,1.3969,1.6524,1.9816,2.366,2.366,2.4681,2.6386,2.6386,2.6386,2.6386,2.6386,2.6386,2.6386,2.6386,2.6386,2.6386,2.6386,2.6386,2.6386,0.0,0.0,0.0,0.0,0.0,0.0,0.0,0.0,0.0,0.0,0.0,0.0,0.0,0.0,0.0,0.0,0.0,0.0,0.0,0.0,0.0,0.0,0.0,0.0,0.0,0.0,0.0,0.0,0.0,0.0,0.0,0.0,0.0,0.0,0.0,0.0,0.0101,0.168,0.2484,0.2985,0.6327,0.7797,0.8197,1.0014,1.0684,1.0684,1.0684,1.0684,1.0684,1.0684,1.0684,0.0,0.0,0.0,1.0691,1.0711,1.0813,1.0948,1.1179,1.1642,1.2111,1.2271,1.2413,1.2501,1.2501,1.2501,1.2501,1.2501,1.2623,1.2693,1.2693,1.2956,1.3193,1.3207,1.3281,1.3376,1.3397,1.3403,1.3403,1.3403,1.3403,1.3403,1.3403,1.3403,1.3403,1.3403,1.3403,1.3403,1.3403,1.3403,1.3403,1.3403,1.3403,1.3403,1.3403,1.3403,1.4334,1.6205,2.0301,2.354,2.5938,2.5938,2.6109,2.6386,2.6386,2.6386,2.6386,2.6386,2.6386,2.6386,2.6386,2.6386,2.6386,2.6386,2.6386,2.6386,0.0,0.0,0.0,0.0,0.0,0.0,0.0,0.0,0.0,0.0,0.0,0.0,0.0,0.0,0.0,0.0,0.0,0.0,0.0,0.0,0.0,0.0,0.0,0.0,0.0,0.0,0.0,0.0,0.0,0.0,0.0,0.0,0.0,0.0,0.0,0.0578,0.1563,0.2357,0.3856,0.5793,0.736,0.8601,0.9609,1.0419,1.0684,1.0684,1.0684,1.0684,1.0684,1.0684,1.0684,1.0684,1.0684,0.0,0.0,0.0,1.0732,1.0853,1.1206,1.1545,1.1891,1.221,1.2338,1.2406,1.2481,1.2501,1.2501,1.2501,1.2691,1.2861,1.2861,1.3098,1.3302,1.3302,1.3431,1.3532,1.3532,1.3532,1.3532,1.3532,1.3451,1.3403,1.3403,1.3403,1.3403,1.3403,1.3403,1.3403,1.3403,1.3403,1.3403,1.3403,1.3403,1.3403,1.3403,1.4582,1.6893,2.0261,2.2166,2.4271,2.6386,2.6386,2.6386,2.6386,2.6386,2.6386,2.6386,2.6386,2.6386,2.6386,2.6386,2.6386,2.6386,2.6386,2.6386,2.6386,0.0,0.0,0.0,0.0,0.0,0.0,0.0,0.0,0.0,0.0,0.0,0.0,0.0,0.0,0.0,0.0,0.0,0.0,0.0,0.0,0.0,0.0,0.0,0.0,0.0,0.0,0.0,0.0,0.0,0.0,0.0,0.0,0.0276,0.0743,0.0693,0.1441,0.2808,0.3676,0.5603,0.8105,0.8512,0.951,1.0684,1.0684,1.0684,1.0684,1.0684,1.0684,1.0684,1.0684,1.0684,1.0684,1.0684,1.0684,0.0,0.0,0.0,1.0765,1.1179,1.1416,1.166,1.2074,1.223,1.2325,1.2467,1.2501,1.2501,1.2501,1.2785,1.3003,1.3003,1.32,1.341,1.3451,1.3511,1.3599,1.3639,1.3639,1.3639,1.3639,1.3553,1.3458,1.3458,1.3458,1.3444,1.3403,1.3437,1.3444,1.3403,1.3403,1.3403,1.3403,1.3403,1.3403,1.3403,1.6082,1.9329,2.31,2.366,2.4801,2.6386,2.6386,2.6386,2.6386,2.6386,2.6386,2.6386,2.6386,2.6386,2.6386,2.6386,2.6386,2.6386,2.6386,2.6386,2.6386,0.0,0.0,0.0,0.0,0.0,0.0,0.0,0.0,0.0,0.0,0.0,0.0,0.0,0.0,0.0,0.0,0.0,0.0,0.0,0.0,0.0,0.0,0.0,0.0,0.0,0.0,0.0,0.0,0.0,0.0,0.0,0.0,0.0993,0.2753,0.2615,0.2673,0.3116,0.6367,0.7924,0.8426,0.9931,1.0618,1.0684,1.0684,1.0684,1.0684,1.0684,1.0684,1.0684,1.0684,1.0684,1.0684,1.0684,1.0684,1.0684,0.0,0.0,0.0,1.0894,1.1144,1.1477,1.1746,1.2074,1.2325,1.2467,1.2501,1.2501,1.2501,1.2785,1.3003,1.3003,1.32,1.3451,1.3551,1.3585,1.3632,1.3768,1.3788,1.3788,1.3788,1.366,1.3572,1.3572,1.3572,1.3559,1.341,1.3539,1.3511,1.341,1.3403,1.3403,1.3403,1.3403,1.3403,1.3403,1.7597,2.0878,2.314,2.5251,2.6307,2.6386,2.6386,2.6386,2.6386,2.6386,2.6386,2.6386,2.6386,2.6386,2.6386,2.6386,2.6386,2.6386,2.6386,2.6386,2.6386,0.0,0.0,0.0,0.0,0.0,0.0,0.0,0.0,0.0,0.0,0.0,0.0,0.0,0.0,0.0,0.0,0.0,0.0,0.0,0.0,0.0,0.0,0.0,0.0,0.0,0.0,0.0,0.0,0.0,0.0,0.0,0.0,0.0991,0.2766,0.2716,0.4058,0.6436,0.7536,0.8728,0.9883,1.0472,1.0684,1.0684,1.0684,1.0684,1.0684,1.0684,1.0684,1.0684,1.0684,1.0684,1.0684,1.0684,1.0684,1.0684,1.0684,1.0684,1.0718,1.0874,1.0995,1.1164,1.1563,1.1775,1.1925,1.2162,1.2298,1.2366,1.2366,1.2724,1.3003,1.3003,1.32,1.3417,1.3471,1.3599,1.3741,1.3788,1.3926,1.3987,1.3987,1.3858,1.3687,1.3599,1.3585,1.3524,1.341,1.3504,1.3565,1.3553,1.3546,1.3546,1.3546,1.3451,1.4747,1.7556,1.9136,2.1684,2.5251,2.6017,2.6386,2.6386,2.6386,2.6386,2.6386,2.6386,2.6386,2.6386,2.6386,2.6386,2.6386,2.6386,2.6386,2.6386,2.6386,2.6386,2.6386,0.0,0.0,0.0,0.0,0.0,0.0,0.0,0.0,0.0,0.0,0.0,0.0,0.0,0.0,0.0,0.0,0.0,0.0,0.0,0.0,0.0,0.0,0.0,0.0,0.0,0.0,0.0,0.0,0.0,0.0,0.0,0.0,0.1318,0.3654,0.3638,0.5342,0.834,0.8722,0.9634,1.0759,1.0711,1.0684,1.0684,1.0684,1.0684,1.0684,1.0684,1.0684,1.0684,1.0684,1.0684,1.0684,1.0684,1.0684,1.0684,1.0684,1.0684,1.0711,1.0813,1.0874,1.1009,1.1443,1.1545,1.1633,1.2016,1.2179,1.2268,1.2277,1.2603,1.2941,1.2989,1.3159,1.3356,1.3458,1.3639,1.3815,1.3869,1.4055,1.415,1.415,1.4014,1.3885,1.379,1.3777,1.3695,1.3492,1.3572,1.3612,1.3559,1.3511,1.3511,1.3511,1.3451,1.5152,1.877,1.9542,2.1724,2.529,2.607,2.6386,2.6386,2.6386,2.6386,2.6386,2.6386,2.6386,2.6386,2.6386,2.6386,2.6386,2.6386,2.6386,2.6386,2.6386,2.6386,2.6386,0.0,0.0,0.0,0.0,0.0,0.0,0.0,0.0,0.0,0.0,0.0,0.0,0.0,0.0,0.0,0.0,0.0,0.0,0.0,0.0,0.0,0.0,0.0,0.0,0.0,0.0,0.0,0.0,0.0,0.0,0.0,0.0,0.1966,0.5504,0.5433,0.6459,0.8397,0.9998,1.0765,1.0894,1.0738,1.0684,1.0684,1.0684,1.0684,1.0684,1.0691,1.0691,1.0691,1.0691,1.0691,1.0724,1.0691,1.0684,1.0684,1.0684,1.0684,1.0684,0.0,0.0,0.0,1.1307,1.1382,1.1497,1.1975,1.2084,1.2132,1.225,1.2515,1.2773,1.2969,1.3118,1.3268,1.3531,1.37,1.3849,1.4041,1.4197,1.4299,1.4299,1.417,1.4119,1.4119,1.4119,1.3953,1.3612,1.372,1.3673,1.3431,1.341,1.3403,1.3403,1.3403,1.4458,1.6688,1.8851,2.0999,2.322,2.537,2.6386,2.6386,2.6386,2.6386,2.6386,2.6386,2.6386,2.6386,2.6386,2.6386,2.6386,2.6386,2.6386,2.6386,2.6386,2.6386,2.6386,0.0,0.0,0.0,0.0,0.0,0.0,0.0,0.0,0.0,0.0,0.0,0.0,0.0,0.0,0.0,0.0,0.0,0.0,0.0,0.0,0.0,0.0,0.0,0.0,0.0,0.0,0.0,0.0,0.0,0.0,0.0,0.0,0.1241,0.3562,0.483,0.6401,0.8205,0.9853,1.0643,1.0738,1.0616,1.0622,1.0684,1.0684,1.0684,1.0698,1.0813,1.0853,1.0853,1.0853,1.0853,1.0833,1.0725,1.0684,1.0684,1.0684,1.0684,1.0684,1.0684,0.0,0.0,0.0,0.0,0.0,1.1497,1.166,1.1816,1.2111,1.2359,1.2644,1.2955,1.3118,1.3275,1.3431,1.3632,1.3815,1.3899,1.4129,1.4299,1.4299,1.4265,1.419,1.4125,1.4119,1.3994,1.3754,1.3774,1.3761,1.368,1.3578,1.3512,1.3403,1.3403,1.5193,1.8973,1.9582,2.1764,2.5489,2.6109,2.6386,2.6386,2.6386,2.6386,2.6386,2.6386,2.6386,2.6386,2.6386,2.6386,2.6386,2.6386,2.6386,2.6386,2.6386,2.6386,2.6386,0.0,0.0,0.0,0.0,0.0,0.0,0.0,0.0,0.0,0.0,0.0,0.0,0.0,0.0,0.0,0.0,0.0,0.0,0.0,0.0,0.0,0.0,0.0,0.0,0.0,0.0,0.0,0.0,0.0,0.0,0.0,0.0,0.1367,0.3856,0.4927,0.6798,0.9193,1.0065,1.0527,1.0677,1.0622,1.0644,1.0772,1.0711,1.0799,1.0907,1.0907,1.0955,1.1036,1.1036,1.0961,1.0887,1.0732,1.0684,1.0684,1.0684,1.0684,1.0684,1.0684,1.0684,1.0725,1.0874,0.0,0.0,1.1307,1.1457,1.1606,1.1904,1.2203,1.2488,1.2764,1.2982,1.3173,1.3281,1.3607,1.3795,1.3795,1.4109,1.4299,1.4299,1.4299,1.4265,1.4177,1.4163,1.4102,1.3946,1.3835,1.3741,1.3619,1.358,1.3492,1.3403,1.3403,1.5028,1.8485,1.9461,2.1603,2.5039,2.5938,2.6386,2.6386,2.6386,2.6386,2.6386,2.6386,2.6386,2.6386,2.6386,2.6386,2.6386,2.6386,2.6386,2.6386,2.6386,2.6386,2.6386,0.0,0.0,0.0,0.0,0.0,0.0,0.0,0.0,0.0,0.0,0.0,0.0,0.0,0.0,0.0,0.0,0.0,0.0,0.0,0.0,0.0,0.0,0.0,0.0,0.0,0.0,0.0,0.0,0.0,0.0,0.0,0.0,0.1814,0.5095,0.5295,0.726,1.0379,1.0336,1.0473,1.0697,1.0644,1.0738,1.0874,1.0738,1.0894,1.1159,1.0982,1.1063,1.122,1.12,1.107,1.0887,1.0732,1.0684,1.0684,1.0684,1.0684,1.0684,1.0684,1.0684,1.0718,1.0853,1.0799,0.0,1.1274,1.1382,1.1477,1.1732,1.2047,1.2291,1.2467,1.2725,1.3003,1.3166,1.3512,1.3761,1.3795,1.4109,1.4299,1.4299,1.4299,1.4299,1.4299,1.4299,1.4245,1.4153,1.3939,1.368,1.3444,1.341,1.3403,1.3403,1.3403,1.4541,1.6934,1.8933,2.112,2.35,2.5449,2.6386,2.6386,2.6386,2.6386,2.6386,2.6386,2.6386,2.6386,2.6386,2.6386,2.6386,2.6386,2.6386,2.6386,2.6386,2.6386,2.6386,0.0,0.0,0.0,0.0,0.0,0.0,0.0,0.0,0.0,0.0,0.0,0.0,0.0,0.0,0.0,0.0,0.0,0.0,0.0,0.0,0.0,0.0,0.0,0.0,0.0,0.0,0.0,0.0,0.0,0.0,0.0,0.0,0.1142,0.3289,0.476,0.6494,0.8465,0.9978,1.0595,1.0527,1.0412,1.0527,1.0732,1.0698,1.0799,1.0968,1.109,1.1254,1.1328,1.124,1.107,1.0887,1.0732,1.0684,1.0684,1.0684,1.0684,1.0684,1.0684,1.0684,1.0691,1.0725,1.0799,0.0,1.1193,1.1301,1.1477,1.1732,1.184,1.2003,1.2427,1.2549,1.2684,1.2996,1.3275,1.3566,1.3761,1.4109,1.4299,1.4299,1.4299,1.4299,1.4299,1.4299,1.4285,1.4258,1.3957,1.372,1.3551,1.3464,1.3403,1.3403,1.3403,1.5275,1.9217,1.9664,2.1885,2.5779,2.6188,2.6386,2.6386,2.6386,2.6386,2.6386,2.6386,2.6386,2.6386,2.6386,2.6386,2.6386,2.6386,2.6386,2.6386,2.6386,2.6386,2.6386,0.0,0.0,0.0,0.0,0.0,0.0,0.0,0.0,0.0,0.0,0.0,0.0,0.0,0.0,0.0,0.0,0.0,0.0,0.0,0.0,0.0,0.0,0.0,0.0,0.0,0.0,0.0,0.0,0.0,0.0,0.0,0.0,0.0975,0.2752,0.3655,0.5475,0.7949,0.878,0.9712,1.0602,1.0527,1.0636,1.0792,1.0718,1.086,1.1056,1.1056,1.1199,1.1355,1.1131,1.1056,1.1029,1.0846,1.0799,1.0799,1.0799,1.0799,1.0786,1.0711,1.0684,1.0704,1.0779,1.086,0.0,0.0,1.1335,1.1457,1.1644,1.1746,1.1861,1.2128,1.2352,1.2556,1.2705,1.3044,1.3342,1.3485,1.3899,1.4217,1.4292,1.4299,1.4299,1.4299,1.4299,1.4272,1.419,1.3973,1.3734,1.3592,1.3485,1.3403,1.3403,1.3403,1.5481,1.9866,1.9907,2.2086,2.6386,2.6386,2.6386,2.6386,2.6386,2.6386,2.6386,2.6386,2.6386,2.6386,2.6386,2.6386,2.6386,2.6386,2.6386,2.6386,2.6386,2.6386,2.6386,0.0,0.0,0.0,0.0,0.0,0.0,0.0,0.0,0.0,0.0,0.0,0.0,0.0,0.0,0.0,0.0,0.0,0.0,0.0,0.0,0.0,0.0,0.0,0.0,0.0,0.0,0.0,0.0,0.0,0.0,0.0,0.0,0.0975,0.2685,0.2685,0.4451,0.7422,0.7256,0.8134,0.9639,0.9672,1.0146,1.0813,1.0691,1.0839,1.1104,1.0975,1.1165,1.1348,1.1016,1.1043,1.1166,1.0928,1.0887,1.0914,1.0914,1.0934,1.0928,1.0839,1.0806,1.0833,1.0928,1.0975,1.1063,0.0,0.0,0.0,1.1592,1.1671,1.1759,1.1786,1.2128,1.2393,1.2447,1.2786,1.3105,1.3166,1.3615,1.401,1.415,1.417,1.4183,1.4211,1.419,1.4156,1.4122,1.3892,1.3687,1.3632,1.3498,1.3403,1.3403,1.3403,1.5275,1.9217,1.9704,2.1885,2.5779,2.6188,2.6386,2.6386,2.6386,2.6386,2.6386,2.6386,2.6386,2.6386,2.6386,2.6386,2.6386,2.6386,2.6386,2.6386,2.6386,2.6386,2.6386,0.0,0.0,0.0,0.0,0.0,0.0,0.0,0.0,0.0,0.0,0.0,0.0,0.0,0.0,0.0,0.0,0.0,0.0,0.0,0.0,0.0,0.0,0.0,0.0,0.0,0.0,0.0,0.0,0.0,0.0,0.0,0.0,0.0975,0.2685,0.2685,0.373,0.5424,0.557,0.5671,0.5752,0.5919,0.7827,1.0541,1.0527,1.0622,1.0806,1.1084,1.1281,1.1348,1.1016,1.1043,1.1145,1.0833,1.0806,1.0914,1.0914,1.1036,1.1166,1.1152,1.1145,1.1152,1.1166,1.1274,1.1348,1.1382,0.0,1.1563,1.1613,0.0,1.1644,1.1773,0.0,0.0,1.2271,1.2461,1.2671,1.2989,1.3193,1.3383,1.3632,1.366,1.3714,1.3835,1.3734,1.3865,1.4245,1.3763,1.3559,1.3761,1.3553,1.3403,1.3403,1.3403,1.4541,1.6934,1.8933,2.112,2.35,2.5449,2.6386,2.6386,2.6386,2.6386,2.6386,2.6386,2.6386,2.6386,2.6386,2.6386,2.6386,2.6386,2.6386,2.6386,2.6386,2.6386,2.6386,0.0,0.0,0.0,0.0,0.0,0.0,0.0,0.0,0.0,0.0,0.0,0.0,0.0,0.0,0.0,0.0,0.0,0.0,0.0,0.0,0.0,0.0,0.0,0.0,0.0,0.0,0.0,0.0,0.0,0.0,0.0,0.0,0.0404,0.1143,0.1143,0.2108,0.372,0.3722,0.4333,0.5279,0.517,0.6021,0.749,0.8607,0.9726,1.0718,1.0962,1.1131,1.1274,1.1111,1.1145,1.1193,1.1124,1.1002,1.0928,1.105,1.1118,1.1179,1.1063,1.1097,1.122,1.1308,1.1341,1.1416,1.1504,1.1572,1.1584,1.1584,0.0,0.0,0.0,0.0,0.0,0.0,1.2352,1.2549,1.2678,1.2745,1.2963,1.3437,1.3498,1.3553,1.366,1.3545,1.3648,1.3964,1.3641,1.3492,1.3666,1.3519,1.3403,1.3403,1.3403,1.4417,1.6565,1.8811,2.0999,2.314,2.533,2.6386,2.6386,2.6386,2.6386,2.6386,2.6386,2.6386,2.6386,2.6386,2.6386,2.6386,2.6386,2.6386,2.6386,2.6386,2.6386,2.6386,0.0,0.0,0.0,0.0,0.0,0.0,0.0,0.0,0.0,0.0,0.0,0.0,0.0,0.0,0.0,0.0,0.0,0.0,0.0,0.0,0.0,0.0,0.0,0.0,0.0,0.0,0.0,0.0,0.0,0.0,0.0,0.0,0.0,0.0,0.0,0.074,0.1946,0.1853,0.2634,0.3892,0.3641,0.3928,0.4714,0.7082,0.9162,1.0772,1.0921,1.1104,1.1254,1.1213,1.1227,1.1274,1.1342,1.1206,1.1049,1.1179,1.1254,1.1253,1.1076,1.1179,1.1307,1.1375,1.1423,1.1463,1.1491,1.1592,1.1631,1.159,1.1687,0.0,0.0,0.0,1.2111,1.2159,0.0,1.2461,1.2494,1.2501,1.2678,1.3159,1.3288,1.3397,1.3511,1.3397,1.3417,1.3714,1.3471,1.3383,1.3572,1.3485,1.3403,1.3403,1.3403,1.4417,1.6565,1.8811,2.0999,2.314,2.533,2.6386,2.6386,2.6386,2.6386,2.6386,2.6386,2.6386,2.6386,2.6386,2.6386,2.6386,2.6386,2.6386,2.6386,2.6386,2.6386,2.6386,0.0,0.0,0.0,0.0,0.0,0.0,0.0,0.0,0.0,0.0,0.0,0.0,0.0,0.0,0.0,0.0,0.0,0.0,0.0,0.0,0.0,0.0,0.0,0.0,0.0,0.0,0.0,0.0,0.0,0.0,0.0,0.0,0.0,0.0,0.0,0.0034,0.0101,0.0066,0.01,0.0168,0.0166,0.1203,0.3175,0.6661,0.9214,1.0928,1.1104,1.1288,1.1362,1.1247,1.1295,1.1362,1.1247,1.1302,1.1348,1.124,1.1369,1.1572,1.1416,1.1491,1.1572,1.1423,1.1504,1.1538,1.1281,1.1511,1.1746,1.1647,1.185,1.2084,1.2084,1.2091,1.2145,1.2257,1.2291,0.0,0.0,1.2501,1.2562,1.2693,1.3003,1.3282,1.3397,1.3186,1.3159,1.3558,1.3227,1.3166,1.3565,1.3485,1.3403,1.3403,1.3403,1.4417,1.6565,1.8811,2.0999,2.314,2.533,2.6386,2.6386,2.6386,2.6386,2.6386,2.6386,2.6386,2.6386,2.6386,2.6386,2.6386,2.6386,2.6386,2.6386,2.6386,2.6386,2.6386,0.0,0.0,0.0,0.0,0.0,0.0,0.0,0.0,0.0,0.0,0.0,0.0,0.0,0.0,0.0,0.0,0.0,0.0,0.0,0.0,0.0,0.0,0.0,0.0,0.0,0.0,0.0,0.0,0.0,0.0,0.0,0.0,0.0,0.0,0.0,0.0,0.0,0.0,0.0,0.0,0.0,0.1086,0.2947,0.5362,0.6676,0.7458,0.8893,0.9455,0.9677,1.1018,1.143,1.1402,1.145,1.1362,1.1288,1.1336,1.1389,1.1457,1.1402,1.1504,1.1606,1.1552,1.1504,1.1443,1.1335,1.1511,1.1644,1.1597,1.1857,1.2098,1.2098,1.2179,1.2268,1.2284,1.2372,1.2413,0.0,1.2366,1.2454,1.2659,1.2732,1.2786,1.2902,1.2773,1.284,1.3295,1.3003,1.3003,1.3451,1.3336,1.3295,1.3397,1.3403,1.4417,1.6565,1.8811,2.0999,2.314,2.533,2.6386,2.6386,2.6386,2.6386,2.6386,2.6386,2.6386,2.6386,2.6386,2.6386,2.6386,2.6386,2.6386,2.6386,2.6386,2.6507,2.6707,0.0,0.0,0.0,0.0,0.0,0.0,0.0,0.0,0.0,0.0,0.0,0.0,0.0,0.0,0.0,0.0,0.0,0.0,0.0,0.0,0.0,0.0,0.0,0.0,0.0,0.0,0.0,0.0,0.0,0.0,0.0,0.0,0.0,0.0,0.0,0.0,0.0,0.0,0.0,0.0,0.0,0.0692,0.1866,0.3035,0.4294,0.5666,0.7056,0.7986,0.878,1.0132,1.0973,1.1491,1.1586,1.1484,1.1335,1.1382,1.143,1.1457,1.1402,1.1504,1.1584,1.1584,1.1586,1.1518,1.1416,1.1592,1.1762,1.1708,1.1932,1.2193,1.2247,1.2298,1.2366,1.2366,1.244,1.2467,0.0,1.2325,1.2379,1.2584,1.2571,1.2623,1.2679,1.2598,1.2705,1.2996,1.284,1.2841,1.3227,1.3241,1.3261,1.3315,1.337,1.4417,1.6565,1.8811,2.0999,2.314,2.533,2.6386,2.6386,2.6386,2.6386,2.6386,2.6386,2.6386,2.6386,2.6386,2.6386,2.6386,2.6386,2.6386,2.6386,2.6386,2.6507,2.6694,0.0,0.0,0.0,0.0,0.0,0.0,0.0,0.0,0.0,0.0,0.0,0.0,0.0,0.0,0.0,0.0,0.0,0.0,0.0,0.0,0.0,0.0,0.0,0.0,0.0,0.0,0.0,0.0,0.0,0.0,0.0,0.0,0.0,0.0,0.0,0.0,0.0,0.0,0.0,0.0,0.0,0.0,0.0,0.0,0.2216,0.536,0.5568,0.6857,0.841,0.8523,0.9867,1.1476,1.1476,1.1512,1.1556,1.1443,1.1504,1.1556,1.145,1.1518,1.1597,1.1604,1.1698,1.1719,1.1477,1.1785,1.2057,1.1834,1.2088,1.2338,1.2467,1.2488,1.2488,1.2481,1.2474,1.2474,1.2481,1.2359,1.2318,1.2461,1.261,1.2665,1.2679,1.2672,1.2672,1.2686,1.2679,1.2779,1.2989,1.3132,1.3207,1.3214,1.3322,1.4417,1.6565,1.8811,2.0999,2.314,2.533,2.6386,2.6386,2.6386,2.6386,2.6386,2.6386,2.6386,2.6386,2.6386,2.6386,2.6386,2.6386,2.6386,2.6386,2.64,2.6413,2.6413,0.0,0.0,0.0,0.0,0.0,0.0,0.0,0.0,0.0,0.0,0.0,0.0,0.0,0.0,0.0,0.0,0.0,0.0,0.0,0.0,0.0,0.0,0.0,0.0,0.0,0.0,0.0,0.0,0.0,0.0,0.0,0.0,0.0,0.0,0.0,0.0,0.0,0.0,0.0,0.0,0.0,0.0,0.0,0.0,0.0584,0.1616,0.3097,0.3959,0.461,0.6062,0.7837,0.943,0.943,1.0449,1.1577,1.1572,1.1586,1.1597,1.1665,1.1712,1.1766,1.1918,1.1891,1.1773,1.1698,1.1898,1.2091,1.205,1.2237,1.2427,1.2359,1.2345,1.2311,1.2234,1.2081,1.204,1.2193,1.2047,1.2006,1.2193,1.2247,1.2318,1.2535,1.2467,1.2494,1.2672,1.2528,1.2569,1.2982,1.3037,1.3105,1.3207,1.3322,1.4417,1.6565,1.8811,2.0999,2.314,2.533,2.6386,2.6386,2.6386,2.6386,2.6386,2.6386,2.6386,2.6386,2.6386,2.6386,2.6386,2.6386,2.6386,2.6413,2.6627,2.6707,2.6747,0.0,0.0,0.0,0.0,0.0,0.0,0.0,0.0,0.0,0.0,0.0,0.0,0.0,0.0,0.0,0.0,0.0,0.0,0.0,0.0,0.0,0.0,0.0,0.0,0.0,0.0,0.0,0.0,0.0,0.0,0.0,0.0,0.0,0.0,0.0,0.0,0.0,0.0,0.0,0.0,0.0,0.0,0.0,0.0,0.0,0.015,0.1225,0.2174,0.3081,0.4167,0.5826,0.7589,0.8433,0.9438,1.0485,1.1361,1.1624,1.1692,1.1773,1.184,1.1972,1.2121,1.2094,1.2033,1.2033,1.2101,1.22,1.22,1.2244,1.2305,1.2291,1.2237,1.22,1.2111,1.1932,1.1884,1.2077,1.1932,1.1911,1.2173,1.2139,1.2213,1.2474,1.2372,1.2386,1.261,1.2474,1.2494,1.2785,1.282,1.2929,1.3118,1.322,1.4385,1.6565,1.8811,2.0999,2.314,2.533,2.6386,2.6386,2.6386,2.6386,2.6386,2.6386,2.6386,2.6386,2.6386,2.6386,2.6386,2.6386,2.6547,2.6774,2.6814,2.6747,2.668,0.0,0.0,0.0,0.0,0.0,0.0,0.0,0.0,0.0,0.0,0.0,0.0,0.0,0.0,0.0,0.0,0.0,0.0,0.0,0.0,0.0,0.0,0.0,0.0,0.0,0.0,0.0,0.0,0.0,0.0,0.0,0.0,0.0,0.0,0.0,0.0,0.0,0.0,0.0,0.0,0.0,0.0,0.0,0.0,0.0,0.0,0.0,0.109,0.253,0.2522,0.3795,0.5703,0.7424,0.8126,0.8708,1.0685,1.1319,1.1497,1.1774,1.1986,1.2166,1.2277,1.2318,1.2318,1.2318,1.2318,1.2311,1.2291,1.222,1.2159,1.221,1.2108,1.205,1.2064,1.1904,1.1857,1.205,1.1898,1.1874,1.2196,1.2132,0.0,1.244,1.2345,1.2325,1.2488,1.2481,1.2481,1.2501,1.2651,1.2793,1.2969,1.3111,1.4138,1.6123,1.8641,2.0684,2.2287,2.5092,2.6268,2.5977,2.6268,2.6386,2.6386,2.6386,2.6386,2.6386,2.6386,2.6386,2.6386,2.6426,2.676,2.7229,2.7001,2.676,2.6533,0.0,0.0,0.0,0.0,0.0,0.0,0.0,0.0,0.0,0.0,0.0,0.0,0.0,0.0,0.0,0.0,0.0,0.0,0.0,0.0,0.0,0.0,0.0,0.0,0.0,0.0,0.0,0.0,0.0,0.0,0.0,0.0,0.0,0.0,0.0,0.0,0.0,0.0,0.0,0.0,0.0,0.0,0.0,0.0,0.0,0.0,0.0,0.0229,0.0491,0.0492,0.181,0.3452,0.3796,0.5029,0.6698,0.876,0.9372,0.9826,1.1717,1.223,1.2284,1.2427,1.2467,1.2467,1.2467,1.2467,1.2433,1.2318,1.2271,1.2182,1.1915,1.1796,1.1735,1.1813,1.1712,1.1708,1.1813,1.1748,1.1685,1.1854,1.1782,1.1864,1.2284,1.2227,1.2254,1.2481,1.2393,1.2379,1.2494,1.2651,1.2706,1.2766,1.2955,1.3266,1.3771,1.7749,1.9072,1.7824,2.362,2.5449,2.3752,2.5581,2.6386,2.6386,2.6386,2.6386,2.6386,2.6386,2.6386,2.6413,2.6653,2.6814,2.6947,2.7388,2.7362,2.7162,0.0,0.0,0.0,0.0,0.0,0.0,0.0,0.0,0.0,0.0,0.0,0.0,0.0,0.0,0.0,0.0,0.0,0.0,0.0,0.0,0.0,0.0,0.0,0.0,0.0,0.0,0.0,0.0,0.0,0.0,0.0,0.0,0.0,0.0,0.0,0.0,0.0,0.0,0.0,0.0,0.0,0.0,0.0,0.0,0.0,0.0,0.0,0.0,0.0,0.0,0.0612,0.1589,0.2588,0.3529,0.4675,0.6706,0.7339,0.7882,1.0074,1.0753,1.1055,1.2211,1.2501,1.2501,1.2501,1.2447,1.2372,1.2305,1.2162,1.2006,1.182,1.1678,1.1694,1.1918,1.1823,1.1746,1.1932,1.1823,1.1782,1.1932,1.1755,1.1796,1.2244,1.2186,1.222,1.2481,1.244,1.2427,1.2501,1.2569,1.2651,1.2686,1.28,1.346,1.4727,1.6888,1.8062,1.8276,2.263,2.4111,2.318,2.537,2.6386,2.6386,2.6386,2.6386,2.64,2.6547,2.6533,2.6413,2.6707,2.6921,2.7081,2.7375,2.7429,2.7322,0.0,0.0,0.0,0.0,0.0,0.0,0.0,0.0,0.0,0.0,0.0,0.0,0.0,0.0,0.0,0.0,0.0,0.0,0.0,0.0,0.0,0.0,0.0,0.0,0.0,0.0,0.0,0.0,0.0,0.0,0.0,0.0,0.0,0.0,0.0,0.0,0.0,0.0,0.0,0.0,0.0,0.0,0.0,0.0,0.0,0.0,0.0,0.0,0.0,0.0,0.0,0.0267,0.1811,0.2303,0.2664,0.4634,0.5317,0.5855,0.8008,0.8997,0.9804,1.1443,1.2185,1.2501,1.2501,1.2393,1.2284,1.225,1.202,1.1793,1.1793,1.1769,1.1803,1.2104,1.1979,1.1932,1.2125,1.1979,1.1938,1.2132,1.1877,1.1864,1.225,1.2182,1.2254,1.2481,1.2501,1.2515,1.2549,1.2522,1.2556,1.2638,1.2638,1.3587,1.5511,1.609,1.7043,1.8402,2.1596,2.286,2.2499,2.5171,2.6386,2.6386,2.6386,2.6386,2.6413,2.664,2.6627,2.6507,2.6734,2.7041,2.7403,2.7403,2.7443,2.7523,0.0,0.0,0.0,0.0,0.0,0.0,0.0,0.0,0.0,0.0,0.0,0.0,0.0,0.0,0.0,0.0,0.0,0.0,0.0,0.0,0.0,0.0,0.0,0.0,0.0,0.0,0.0,0.0,0.0,0.0,0.0,0.0,0.0,0.0,0.0,0.0,0.0,0.0,0.0,0.0,0.0,0.0,0.0,0.0,0.0,0.0,0.0,0.0,0.0,0.0,0.0,0.0039,0.0196,0.0274,0.0665,0.2732,0.3355,0.3827,0.5971,0.7963,0.9454,0.9648,1.1089,1.2501,1.2501,1.2393,1.225,1.2145,1.1945,1.1793,1.1793,1.1932,1.2111,1.2244,1.2179,1.2132,1.225,1.2173,1.2132,1.225,1.2159,1.2132,1.2271,1.2277,1.2332,1.2488,1.2501,1.2562,1.2665,1.2576,1.2508,1.2522,1.2522,1.2782,1.3276,1.5257,1.5465,1.4072,2.017,2.2086,2.0352,2.4522,2.6386,2.6386,2.6386,2.6386,2.6386,2.6413,2.6573,2.6787,2.6774,2.7161,2.7655,2.7655,2.7871,2.8072,0.0,0.0,0.0,0.0,0.0,0.0,0.0,0.0,0.0,0.0,0.0,0.0,0.0,0.0,0.0,0.0,0.0,0.0,0.0,0.0,0.0,0.0,0.0,0.0,0.0,0.0,0.0,0.0,0.0,0.0,0.0,0.0,0.0,0.0,0.0,0.0,0.0,0.0,0.0,0.0,0.0,0.0,0.0,0.0,0.0,0.0,0.0,0.0,0.0,0.0,0.0,0.0,0.0,0.0,0.0157,0.0981,0.1254,0.1686,0.3795,0.5003,0.6212,0.875,1.0036,1.0973,1.2231,1.2318,1.2173,1.2111,1.1938,1.182,1.1952,1.2057,1.2179,1.2379,1.2291,1.2284,1.2522,1.2345,1.225,1.24,1.2121,1.1986,1.2179,1.2193,1.2254,1.2366,1.2454,1.2569,1.2679,1.2583,1.2501,1.2501,1.2501,1.2603,1.282,1.3778,1.3938,1.3343,1.8663,2.0716,2.0069,2.4402,2.6386,2.6386,2.6386,2.6386,2.64,2.6573,2.672,2.68,2.7014,2.7228,2.7483,2.7483,2.7402,2.7335,0.0,0.0,0.0,0.0,0.0,0.0,0.0,0.0,0.0,0.0,0.0,0.0,0.0,0.0,0.0,0.0,0.0,0.0,0.0,0.0,0.0,0.0,0.0,0.0,0.0,0.0,0.0,0.0,0.0,0.0,0.0,0.0,0.0,0.0,0.0,0.0,0.0,0.0,0.0,0.0,0.0,0.0,0.0,0.0,0.0,0.0,0.0,0.0,0.0,0.0,0.0,0.0,0.0,0.0,0.0,0.0,0.0,0.0316,0.178,0.2644,0.3815,0.6794,0.8496,0.9804,1.125,1.1886,1.2152,1.2111,1.2013,1.1999,1.2145,1.22,1.2295,1.2467,1.242,1.244,1.2659,1.2515,1.2386,1.2488,1.2182,1.1972,1.1993,1.207,1.2166,1.2277,1.2386,1.2488,1.2596,1.2535,1.2481,1.244,1.2522,1.2644,1.2793,1.2989,1.3139,1.3282,1.7118,1.9258,2.0069,2.4402,2.6386,2.6386,2.6386,2.6386,2.64,2.6613,2.6747,2.68,2.7054,2.7229,2.7309,2.7309,2.7134,2.6934,0.0,0.0,0.0,0.0,0.0,0.0,0.0,0.0,0.0,0.0,0.0,0.0,0.0,0.0,0.0,0.0,0.0,0.0,0.0,0.0,0.0,0.0,0.0,0.0,0.0,0.0,0.0,0.0,0.0,0.0,0.0,0.0,0.0,0.0,0.0,0.0,0.0,0.0,0.0,0.0,0.0,0.0,0.0,0.0,0.0,0.0,0.0,0.0,0.0,0.0,0.0,0.0,0.0,0.0,0.0,0.0,0.0,0.0,0.0041,0.1529,0.3107,0.3146,0.6305,0.9415,0.9415,1.0916,1.2244,1.2132,1.2182,1.2284,1.2284,1.24,1.2501,1.2501,1.2501,1.2556,1.2672,1.2596,1.2501,1.2501,1.2372,1.2169,1.1827,1.1972,1.2166,1.2277,1.2291,1.2291,1.2298,1.2427,1.244,1.2298,1.2576,1.28,1.2996,1.3139,1.3247,1.3438,1.5597,1.7783,2.0069,2.4402,2.6386,2.6386,2.6386,2.6386,2.6386,2.6386,2.656,2.6787,2.6787,2.7001,2.7309,2.7309,2.7309,2.7255,0.0,0.0,0.0,0.0,0.0,0.0,0.0,0.0,0.0,0.0,0.0,0.0,0.0,0.0,0.0,0.0,0.0,0.0,0.0,0.0,0.0,0.0,0.0,0.0,0.0,0.0,0.0,0.0,0.0,0.0,0.0,0.0,0.0,0.0,0.0,0.0,0.0,0.0,0.0,0.0,0.0,0.0,0.0,0.0,0.0,0.0,0.0,0.0,0.0,0.0,0.0,0.0,0.0,0.0,0.0,0.0,0.0,0.0,0.0,0.0487,0.1331,0.2756,0.5198,0.7657,0.908,1.0916,1.2244,1.2132,1.222,1.2291,1.2291,1.2406,1.2535,1.2598,1.2657,1.2745,1.2996,1.2813,1.2657,1.2657,1.2345,1.2054,1.1813,1.1972,1.2077,1.1979,1.2264,1.2481,1.2583,1.2535,1.2528,1.2589,1.2638,1.2847,1.3146,1.3193,1.3247,1.3438,1.5555,1.8516,2.2166,2.5092,2.6386,2.6386,2.6386,2.6386,2.6386,2.6386,2.656,2.6787,2.6787,2.6881,2.6961,2.6961,2.6841,2.6653,0.0,0.0,0.0,0.0,0.0,0.0,0.0,0.0,0.0,0.0,0.0,0.0,0.0,0.0,0.0,0.0,0.0,0.0,0.0,0.0,0.0,0.0,0.0,0.0,0.0,0.0,0.0,0.0,0.0,0.0,0.0,0.0,0.0,0.0,0.0,0.0,0.0,0.0,0.0,0.0,0.0,0.0,0.0,0.0,0.0,0.0,0.0,0.0,0.0,0.0,0.0,0.0,0.0,0.0,0.0,0.0,0.0,0.0,0.0,0.0,0.0327,0.1621,0.3529,0.5871,0.8735,1.0951,1.2345,1.2281,1.2305,1.2386,1.2447,1.2528,1.2637,1.2793,1.282,1.2881,1.3105,1.2881,1.2672,1.2611,1.2352,1.2125,1.1932,1.2043,1.2084,1.2006,1.2264,1.2488,1.2637,1.261,1.2603,1.2605,1.2807,1.2983,1.3214,1.3268,1.3308,1.3445,1.641,1.9248,2.2006,2.5012,2.6386,2.6386,2.6386,2.6386,2.6386,2.6386,2.6493,2.6653,2.6653,2.6653,2.6653,2.6653,2.6547,2.6386,0.0,0.0,0.0,0.0,0.0,0.0,0.0,0.0,0.0,0.0,0.0,0.0,0.0,0.0,0.0,0.0,0.0,0.0,0.0,0.0,0.0,0.0,0.0,0.0,0.0,0.0,0.0,0.0,0.0,0.0,0.0,0.0,0.0,0.0,0.0,0.0,0.0,0.0,0.0,0.0,0.0,0.0,0.0,0.0,0.0,0.0,0.0,0.0,0.0,0.0,0.0,0.0,0.0,0.0,0.0,0.0,0.0,0.0,0.0,0.0,0.0,0.0,0.1665,0.4405,0.8466,1.1023,1.2501,1.2501,1.2501,1.2549,1.2665,1.2693,1.2786,1.2989,1.3016,1.3016,1.3016,1.2834,1.2632,1.2522,1.2366,1.2254,1.2111,1.2111,1.2173,1.2277,1.2298,1.2366,1.2494,1.2657,1.2638,1.2542,1.2989,1.322,1.3227,1.3329,1.3403,1.3445,1.7678,1.9745,2.0028,2.4231,2.6268,2.6386,2.6386,2.6386,2.6386,2.6386,2.6386,2.6386,2.6413,2.6413,2.6386,2.6413,2.6413,2.6386,0.0,0.0,0.0,0.0,0.0,0.0,0.0,0.0,0.0,0.0,0.0,0.0,0.0,0.0,0.0,0.0,0.0,0.0,0.0,0.0,0.0,0.0,0.0,0.0,0.0,0.0,0.0,0.0,0.0,0.0,0.0,0.0,0.0,0.0,0.0,0.0,0.0,0.0,0.0,0.0,0.0,0.0,0.0,0.0,0.0,0.0,0.0,0.0,0.0,0.0,0.0,0.0,0.0,0.0,0.0,0.0,0.0,0.0,0.0,0.0,0.0,0.0,0.28,0.6204,0.8795,1.1005,1.2501,1.2501,1.2501,1.2549,1.2665,1.2693,1.2813,1.3118,1.3166,1.3166,1.3166,1.2895,1.2632,1.2522,1.2271,1.2139,1.2104,1.2207,1.225,1.2284,1.2393,1.2467,1.2501,1.2759,1.2888,1.2894,1.3105,1.3268,1.3349,1.3383,1.3403,1.3438,1.6123,1.8281,1.9988,2.2659,2.4801,2.6386,2.6386,2.6386,2.6386,2.6386,2.6386,2.6413,2.664,2.6587,2.6413,2.664,2.6587,2.6386,0.0,0.0,0.0,0.0,0.0,0.0,0.0,0.0,0.0,0.0,0.0,0.0,0.0,0.0,0.0,0.0,0.0,0.0,0.0,0.0,0.0,0.0,0.0,0.0,0.0,0.0,0.0,0.0,0.0,0.0,0.0,0.0,0.0,0.0,0.0,0.0,0.0,0.0,0.0,0.0,0.0,0.0,0.0,0.0,0.0,0.0,0.0,0.0,0.0,0.0,0.0,0.0,0.0,0.0,0.0,0.0,0.0,0.0,0.0,0.0,0.0,0.0,0.3229,0.67,0.7825,1.0487,1.2712,1.2712,1.2712,1.2759,1.2908,1.2929,1.301,1.3241,1.3261,1.3193,1.3125,1.2813,1.2596,1.2515,1.2305,1.2227,1.2295,1.2338,1.2386,1.2386,1.2461,1.2528,1.2603,1.2834,1.3003,1.3003,1.3207,1.3315,1.3403,1.3403,1.3403,1.3438,1.5555,1.722,1.8485,2.0689,2.2982,2.5122,2.5168,2.5731,2.6587,2.6587,2.6507,2.6413,2.6707,2.672,2.6627,2.6921,2.6921,2.6814,0.0,0.0,0.0,0.0,0.0,0.0,0.0,0.0,0.0,0.0,0.0,0.0,0.0,0.0,0.0,0.0,0.0,0.0,0.0,0.0,0.0,0.0,0.0,0.0,0.0,0.0,0.0,0.0,0.0,0.0,0.0,0.0,0.0,0.0,0.0,0.0,0.0,0.0,0.0,0.0,0.0,0.0,0.0,0.0,0.0,0.0,0.0,0.0,0.0,0.0,0.0,0.0,0.0,0.0,0.0,0.0,0.0,0.0,0.0,0.0,0.0084,0.0416,0.351,0.6571,0.6912,1.0126,1.3003,1.3003,1.3003,1.3043,1.3186,1.3214,1.322,1.3376,1.3275,1.3166,1.3023,1.2698,1.2501,1.2501,1.2379,1.2345,1.2488,1.2501,1.2501,1.2501,1.2522,1.2589,1.2686,1.2895,1.303,1.303,1.3261,1.3403,1.3403,1.3403,1.3403,1.3397,1.5267,1.6295,1.6698,1.8701,2.1074,2.3639,2.3739,2.496,2.6894,2.6894,2.6747,2.6547,2.6841,2.6934,2.6921,2.7215,2.7349,2.7269,0.0,0.0,0.0,0.0,0.0,0.0,0.0,0.0,0.0,0.0,0.0,0.0,0.0,0.0,0.0,0.0,0.0,0.0,0.0,0.0,0.0,0.0,0.0,0.0,0.0,0.0,0.0,0.0,0.0,0.0,0.0,0.0,0.0,0.0,0.0,0.0,0.0,0.0,0.0,0.0,0.0,0.0,0.0,0.0,0.0,0.0,0.0,0.0,0.0,0.0,0.0,0.0,0.0,0.0,0.0,0.0,0.0,0.0,0.0,0.0,0.0463,0.239,0.4692,0.6995,0.8866,1.1207,1.3003,1.3003,1.3003,1.3043,1.3186,1.3214,1.322,1.3376,1.3275,1.3166,1.3023,1.2698,1.2501,1.2501,1.2379,1.2345,1.2488,1.2501,1.2501,1.2501,1.2584,1.2665,1.2686,1.299,1.318,1.318,1.3308,1.3403,1.3403,1.3403,1.3403,1.3403,1.3728,1.4939,1.6851,1.7251,1.971,2.3774,2.378,2.5112,2.7242,2.7242,2.7215,2.7202,2.7455,2.7415,2.7269,2.7522,2.7468,2.7296,0.0,0.0,0.0,0.0,0.0,0.0,0.0,0.0,0.0,0.0,0.0,0.0,0.0,0.0,0.0,0.0,0.0,0.0,0.0,0.0,0.0,0.0,0.0,0.0,0.0,0.0,0.0,0.0,0.0,0.0,0.0,0.0,0.0,0.0,0.0,0.0,0.0,0.0,0.0,0.0,0.0,0.0,0.0,0.0,0.0,0.0,0.0,0.0,0.0,0.0,0.0,0.0,0.0,0.0,0.0,0.0,0.0,0.0,0.0,0.0895,0.2074,0.3111,0.5927,0.8677,0.9674,1.1623,1.3241,1.3241,1.3241,1.322,1.3281,1.3295,1.3315,1.339,1.3248,1.3077,1.3009,1.263,1.2413,1.2494,1.244,1.2461,1.2571,1.2698,1.2792,1.2792,1.2813,1.2888,1.2963,1.3139,1.3214,1.3295,1.3363,1.3403,1.3403,1.3485,1.3526,1.3526,1.3526,1.4098,1.5248,1.5248,1.7104,2.0502,2.18,2.3614,2.5733,2.6987,2.7443,2.7336,2.7589,2.7615,2.7535,2.7871,2.7898,2.775,0.0,0.0,0.0,0.0,0.0,0.0,0.0,0.0,0.0,0.0,0.0,0.0,0.0,0.0,0.0,0.0,0.0,0.0,0.0,0.0,0.0,0.0,0.0,0.0,0.0,0.0,0.0,0.0,0.0,0.0,0.0,0.0,0.0,0.0,0.0,0.0,0.0,0.0,0.0,0.0,0.0,0.0,0.0,0.0,0.0,0.0,0.0,0.0,0.0,0.0,0.0,0.0,0.0,0.0,0.0,0.0,0.0399,0.083,0.0821,0.2105,0.3672,0.4687,0.7566,1.0247,1.0679,1.2139,1.3403,1.3403,1.3403,1.3403,1.3403,1.3403,1.3403,1.3403,1.3152,1.3016,1.3043,1.2651,1.2447,1.2589,1.261,1.2657,1.2773,1.2895,1.3003,1.3003,1.303,1.3098,1.3207,1.3248,1.3281,1.3397,1.3437,1.3437,1.3403,1.3511,1.3585,1.3585,1.3585,1.368,1.3849,1.3849,1.521,1.769,2.0158,2.2375,2.4524,2.6858,2.7669,2.7536,2.7764,2.7802,2.7871,2.8098,2.8179,2.8152,0.0,0.0,0.0,0.0,0.0,0.0,0.0,0.0,0.0,0.0,0.0,0.0,0.0,0.0,0.0,0.0,0.0,0.0,0.0,0.0,0.0,0.0,0.0,0.0,0.0,0.0,0.0,0.0,0.0,0.0,0.0,0.0,0.0,0.0,0.0,0.0,0.0,0.0,0.0,0.0,0.0,0.0,0.0,0.0,0.0,0.0,0.0,0.0,0.0,0.0,0.0,0.0,0.0,0.0,0.0,0.0,0.1567,0.3342,0.3349,0.3446,0.4575,0.8739,1.0033,1.0772,1.2717,1.3272,1.3403,1.3403,1.3403,1.3403,1.3403,1.3403,1.3403,1.3403,1.3152,1.305,1.318,1.2888,1.2752,1.2948,1.2969,1.2969,1.2982,1.2996,1.3003,1.3003,1.3125,1.32,1.3214,1.3308,1.339,1.3403,1.3539,1.3546,1.3403,1.3511,1.3585,1.3585,1.3585,1.3777,1.4098,1.4098,1.5424,1.7912,2.0216,2.2514,2.4838,2.7197,2.8138,2.8125,2.8138,2.8152,2.8152,2.8179,2.8179,2.8179,0.0,0.0,0.0,0.0,0.0,0.0,0.0,0.0,0.0,0.0,0.0,0.0,0.0,0.0,0.0,0.0,0.0,0.0,0.0,0.0,0.0,0.0,0.0,0.0,0.0,0.0,0.0,0.0,0.0,0.0,0.0,0.0,0.0,0.0,0.0,0.0,0.0,0.0,0.0,0.0,0.0,0.0,0.0,0.0,0.0,0.0,0.0,0.0,0.0,0.0,0.0,0.0,0.0,0.1031,0.2507,0.3982,0.5053,0.6118,0.76,0.7929,0.828,0.9997,1.1379,1.2566,1.345,1.3532,1.3424,1.3519,1.3464,1.3403,1.3403,1.3403,1.3403,1.3403,1.3227,1.3152,1.3207,1.3037,1.2895,1.2996,1.3077,1.3132,1.3132,1.322,1.3234,1.3234,1.3281,1.3315,1.3315,1.3458,1.3538,1.3668,1.3824,1.379,1.3546,1.3783,1.3905,1.3905,1.3905,1.4014,1.4211,1.4159,1.4674,1.577,1.8069,2.0399,2.2697,2.5075,2.6024,2.6151,2.7617,2.7321,2.6193,2.7659,2.8179,2.8179,0.0,0.0,0.0,0.0,0.0,0.0,0.0,0.0,0.0,0.0,0.0,0.0,0.0,0.0,0.0,0.0,0.0,0.0,0.0,0.0,0.0,0.0,0.0,0.0,0.0,0.0,0.0,0.0,0.0,0.0,0.0,0.0,0.0,0.0,0.0,0.0,0.0,0.0,0.0,0.0,0.0,0.0,0.0,0.0,0.0,0.0,0.0,0.0,0.0,0.0,0.0,0.0135,0.0897,0.2776,0.5008,0.6611,0.764,0.8575,1.0268,1.1191,1.1674,1.1637,1.2711,1.3783,1.3788,1.3639,1.3566,1.3632,1.358,1.3485,1.3532,1.3505,1.3485,1.3532,1.341,1.3329,1.3376,1.3261,1.3159,1.3166,1.3214,1.3247,1.3247,1.3342,1.3403,1.3403,1.3403,1.3424,1.3471,1.3661,1.379,1.3795,1.4034,1.4021,1.377,1.3973,1.4119,1.4119,1.4119,1.415,1.4299,1.419,1.4197,1.4431,1.6765,1.8671,2.0313,2.2654,2.3598,2.3781,2.5373,2.502,2.3909,2.6236,2.7096,2.7194,0.0,0.0,0.0,0.0,0.0,0.0,0.0,0.0,0.0,0.0,0.0,0.0,0.0,0.0,0.0,0.0,0.0,0.0,0.0,0.0,0.0,0.0,0.0,0.0,0.0,0.0,0.0,0.0,0.0,0.0,0.0,0.0,0.0,0.0,0.0,0.0,0.0,0.0,0.0,0.0,0.0,0.0,0.0,0.0,0.0,0.0,0.0,0.0,0.0,0.0,0.0045,0.0449,0.291,0.5276,0.7146,0.7149,0.8842,1.0717,1.0717,1.2458,1.4265,1.4109,1.4119,1.4034,1.3835,1.3802,1.3795,1.3802,1.3687,1.3632,1.3774,1.3687,1.3632,1.3774,1.368,1.3639,1.3781,1.3587,1.3458,1.3572,1.3492,1.3403,1.3403,1.3403,1.3403,1.3403,1.3403,1.3471,1.3585,1.3912,1.4,1.3808,1.4143,1.4224,1.4119,1.4119,1.4119,1.4119,1.4119,1.415,1.4299,1.4299,1.4299,1.4431,1.6765,1.7755,1.7973,2.0226,2.1178,2.1178,2.1178,2.1178,2.148,2.3824,2.4691,2.5032,0.0,0.0,0.0,0.0,0.0,0.0,0.0,0.0,0.0,0.0,0.0,0.0,0.0,0.0,0.0,0.0,0.0,0.0,0.0,0.0,0.0,0.0,0.0,0.0,0.0,0.0,0.0,0.0,0.0,0.0,0.0,0.0,0.0,0.0,0.0,0.0,0.0,0.0,0.0,0.0,0.0,0.0,0.0,0.0,0.0,0.0,0.0,0.0,0.0269,0.1971,0.2507,0.3224,0.7283,0.9064,0.9957,1.1655,1.2642,1.3224,1.3224,1.3761,1.4292,1.4245,1.415,1.4132,1.415,1.395,1.3829,1.398,1.3885,1.3747,1.3788,1.3761,1.3747,1.3788,1.3761,1.3747,1.3795,1.3639,1.358,1.3585,1.3492,1.3403,1.3403,1.3403,1.3403,1.3403,1.3498,1.3675,1.3926,1.4064,1.4102,1.4163,1.4251,1.4278,1.4231,1.4231,1.4231,1.4231,1.4231,1.4258,1.4299,1.4299,1.4299,1.4343,1.5036,1.629,1.7851,1.854,1.8802,1.8976,2.0572,2.0226,1.9271,2.3255,2.4691,2.5032,0.0,0.0,0.0,0.0,0.0,0.0,0.0,0.0,0.0,0.0,0.0,0.0,0.0,0.0,0.0,0.0,0.0,0.0,0.0,0.0,0.0,0.0,0.0,0.0,0.0,0.0,0.0,0.0,0.0,0.0,0.0,0.0,0.0,0.0,0.0,0.0,0.0,0.0,0.0,0.0,0.0,0.0,0.0,0.0,0.0587,0.1443,0.1436,0.2016,0.3045,0.4472,0.5633,0.6923,0.978,1.1344,1.2414,1.385,1.4299,1.4299,1.4299,1.4299,1.4299,1.4299,1.4231,1.4183,1.4278,1.4156,1.4048,1.4143,1.4041,1.3953,1.4007,1.393,1.3953,1.3971,1.3977,1.3977,1.3977,1.3899,1.3804,1.3804,1.3668,1.3573,1.3573,1.3573,1.3573,1.3573,1.3715,1.3885,1.4105,1.4129,1.4204,1.4299,1.4299,1.4299,1.4299,1.4299,1.4299,1.4299,1.4299,1.4299,1.4299,1.4299,1.4299,1.4299,1.4299,1.508,1.6422,1.6422,1.6422,1.6553,1.7938,1.7632,1.686,2.0616,2.1954,2.2299,0.0,0.0,0.0,0.0,0.0,0.0,0.0,0.0,0.0,0.0,0.0,0.0,0.0,0.0,0.0,0.0,0.0,0.0,0.0,0.0,0.0,0.0,0.0,0.0,0.0,0.0,0.0,0.0,0.0,0.0,0.0,0.0,0.0,0.0,0.0,0.0,0.0,0.0,0.0,0.0,0.0,0.0,0.0046,0.0274,0.1686,0.3633,0.3866,0.5281,0.7146,0.7369,0.9019,1.1028,1.1028,1.2553,1.4299,1.4299,1.4299,1.4299,1.4299,1.4299,1.4299,1.4299,1.4299,1.4299,1.4299,1.4299,1.4299,1.4299,1.419,1.418,1.4272,1.4183,1.4136,1.4278,1.4299,1.4299,1.4299,1.417,1.4119,1.4119,1.3933,1.3795,1.3795,1.3795,1.3802,1.3815,1.3994,1.4119,1.4132,1.4224,1.4299,1.4299,1.4299,1.4299,1.4299,1.4299,1.4299,1.4299,1.4299,1.4299,1.4299,1.4299,1.4299,1.4299,1.4299,1.4299,1.4299,1.4299,1.4299,1.4299,1.4299,1.4299,1.4557,1.694,1.7807,1.8148,0.0,0.0,0.0,0.0,0.0,0.0,0.0,0.0,0.0,0.0,0.0,0.0,0.0,0.0,0.0,0.0,0.0,0.0,0.0,0.0,0.0,0.0,0.0,0.0,0.0,0.0,0.0,0.0,0.0,0.0,0.0,0.0,0.0,0.0,0.0,0.0,0.0,0.0,0.0,0.0,0.0,0.0,0.0231,0.2211,0.3251,0.3861,0.5844,0.6796,0.7372,0.9286,1.1522,1.354,1.354,1.3894,1.4299,1.4299,1.4299,1.4299,1.4299,1.4299,1.4299,1.4299,1.4299,1.4299,1.4299,1.4299,1.4299,1.4299,1.4272,1.4265,1.4292,1.4272,1.4265,1.4292,1.4299,1.4299,1.4299,1.417,1.4119,1.4119,1.3933,1.3795,1.3795,1.3795,1.3892,1.4014,1.4098,1.4166,1.4245,1.4285,1.4299,1.4299,1.4299,1.4299,1.4299,1.4299,1.4299,1.4299,1.4299,1.4299,1.4299,1.4299,1.4299,1.4299,1.4299,1.4299,1.4299,1.4299,1.4299,1.4299,1.4299,1.4299,1.4557,1.694,1.7807,1.8148,0.0,0.0,0.0,0.0,0.0,0.0,0.0,0.0,0.0,0.0,0.0,0.0,0.0,0.0,0.0,0.0,0.0,0.0,0.0,0.0,0.0,0.0,0.0,0.0,0.0,0.0,0.0,0.0,0.0,0.0,0.0,0.0,0.0,0.0,0.0,0.0,0.0,0.0,0.0,0.0,0.0,0.0,0.014,0.1491,0.2645,0.3919,0.6504,0.8804,1.0839,1.2095,1.3318,1.4299,1.4299,1.4299,1.4299,1.4299,1.4299,1.4299,1.4299,1.4299,1.4299,1.4299,1.4299,1.4299,1.4299,1.4299,1.4299,1.4299,1.4299,1.4299,1.4299,1.4299,1.4299,1.4299,1.4299,1.4299,1.4299,1.4231,1.4183,1.4183,1.4109,1.4061,1.4061,1.4061,1.4095,1.4177,1.4183,1.4217,1.4299,1.4299,1.4299,1.4299,1.4299,1.4299,1.4299,1.4299,1.4299,1.4299,1.4299,1.4299,1.4299,1.4299,1.4299,1.4299,1.4299,1.4299,1.4299,1.4299,1.4299,1.4299,1.4299,1.4299,1.4431,1.569,1.6122,1.629,0.0,0.0,0.0,0.0,0.0,0.0,0.0,0.0,0.0,0.0,0.0,0.0,0.0,0.0,0.0,0.0,0.0,0.0,0.0,0.0,0.0,0.0,0.0,0.0,0.0,0.0,0.0,0.0,0.0,0.0,0.0,0.0,0.0,0.0,0.0,0.0,0.0,0.0,0.0,0.0,0.0,0.0,0.0047,0.0471,0.2162,0.4585,0.7134,1.0861,1.455,1.455,1.4475,1.4373,1.4346,1.4353,1.4367,1.4312,1.4319,1.4333,1.4306,1.4299,1.4299,1.4299,1.4299,1.4299,1.4299,1.4299,1.4299,1.4299,1.4299,1.4299,1.4299,1.4299,1.4299,1.4299,1.4299,1.4299,1.4299,1.4299,1.4299,1.4299,1.4299,1.4299,1.4299,1.4299,1.4299,1.4299,1.4299,1.4299,1.4299,1.4299,1.4299,1.4299,1.4299,1.4299,1.4299,1.4299,1.4299,1.4299,1.4299,1.4299,1.4299,1.4299,1.4299,1.4299,1.4299,1.4299,1.4299,1.4299,1.4299,1.4299,1.4299,1.4299,1.4299,1.4299,1.4299,1.4299,0.0,0.0,0.0,0.0,0.0,0.0,0.0,0.0,0.0,0.0,0.0,0.0,0.0,0.0,0.0,0.0,0.0,0.0,0.0,0.0,0.0,0.0,0.0,0.0,0.0,0.0,0.0,0.0,0.0,0.0,0.0,0.0,0.0,0.0,0.0,0.0,0.0,0.0,0.0,0.0,0.0,0.0,0.0238,0.247,0.4764,0.72,0.9753,1.242,1.466,1.466,1.4654,1.4613,1.4523,1.4532,1.4586,1.4373,1.4387,1.4455,1.4333,1.4299,1.4299,1.4299,1.4299,1.4299,1.4299,1.4299,1.4299,1.4299,1.4299,1.4299,1.4299,1.4299,1.4299,1.4299,1.4299,1.4299,1.4299,1.4299,1.4299,1.4299,1.4299,1.4299,1.4299,1.4299,1.4299,1.4299,1.4299,1.4299,1.4299,1.4299,1.4299,1.4299,1.4299,1.4299,1.4299,1.4299,1.4299,1.4299,1.4299,1.4299,1.4299,1.4299,1.4299,1.4299,1.4299,1.4299,1.4299,1.4299,1.4299,1.4299,1.4299,1.4299,1.4299,1.4299,1.4299,1.4299,0.0,0.0,0.0,0.0,0.0,0.0,0.0,0.0,0.0,0.0,0.0,0.0,0.0,0.0,0.0,0.0,0.0,0.0,0.0,0.0,0.0,0.0,0.0,0.0,0.0,0.0,0.0,0.0,0.0,0.0,0.0,0.0,0.0,0.0,0.0,0.0,0.0,0.0,0.0,0.0,0.0,0.0,0.0286,0.2806,0.4454,0.5897,0.9897,1.2836,1.4869,1.4869,1.4808,1.4681,1.4613,1.464,1.4667,1.4539,1.459,1.4559,1.4462,1.4421,1.4401,1.4319,1.4299,1.4299,1.4299,1.4299,1.4299,1.4299,1.4299,1.4299,1.4299,1.4299,1.4299,1.4299,1.4299,1.4299,1.4299,1.4299,1.4299,1.4299,1.4299,1.4299,1.4299,1.4299,1.4299,1.4299,1.4299,1.4299,1.4299,1.4299,1.4299,1.4299,1.4299,1.4299,1.4299,1.4299,1.4299,1.4299,1.4299,1.4299,1.4299,1.4299,1.4299,1.4299,1.4299,1.4299,1.4299,1.4299,1.4299,1.4299,1.4299,1.4299,1.4299,1.4299,1.4299,1.4299]},{"header":{"parameterUnit":"m.s-1","parameterCategory":1,"la1":30.6,"la2":28.766,"lo1":-90.7593,"lo2":-88.6598,"dy":0.0162,"dx":0.0183,"nx":116,"ny":114,"refTime":"2024-06-19T12:00:00:Z","depth":0,"parameterNumber":3,"parameterNumberName":"V-component_of_WINDS"},"data":[0.0,0.0,0.0,0.0,0.0,0.0,0.0,0.0,0.0,0.0,0.0,0.0,0.0,0.0,0.0,0.0,0.0,0.0,0.0,0.0,0.0,0.0,0.0,0.0,0.0,0.0,0.0,0.0,0.0,0.0,0.0,0.0,0.0,0.0,0.0,0.0,0.0,0.0,0.0,0.0,0.0,0.0,0.0,0.0,0.0,0.0,0.0,0.0,0.0,0.0,0.0,0.0,0.0,0.0,0.0,0.0,0.0,0.0,0.0,0.0,0.0,0.0,0.0,0.0,0.0,0.0,0.0,0.0,0.0,0.0,0.0,0.0,0.0,0.0,0.0,0.0,0.0,0.0,0.0,0.0,0.0,0.0,0.0,0.0,0.0,0.0,0.0,0.0,0.0,0.0,0.0,0.0,0.0,0.0,0.0,0.0,0.0,0.0,0.0,0.0,0.0,0.0,0.0,0.0,0.0,0.0,0.0,0.0,0.0,0.0,0.0,0.0,0.0,0.0,0.0,0.0,0.0,0.0,0.0,0.0,0.0,0.0,0.0,0.0,0.0,0.0,0.0,0.0,0.0,0.0,0.0,0.0,0.0,0.0,0.0,0.0,0.0,0.0,0.0,0.0,0.0,0.0,0.0,0.0,0.0,0.0,0.0,0.0,0.0,0.0,0.0,0.0,0.0,0.0,0.0,0.0,0.0,0.0,0.0,0.0,0.0,0.0,0.0,0.0,0.0,0.0,0.0,0.0,0.0,0.0,0.0,0.0,0.0,0.0,0.0,0.0,0.0,0.0,0.0,0.0,0.0,0.0,0.0,0.0,0.0,0.0,0.0,0.0,0.0,0.0,0.0,0.0,0.0,0.0,0.0,0.0,0.0,0.0,0.0,0.0,0.0,0.0,0.0,0.0,0.0,0.0,0.0,0.0,0.0,0.0,0.0,0.0,0.0,0.0,0.0,0.0,0.0,0.0,0.0,0.0,0.0,0.0,0.0,0.0,0.0,0.0,0.0,0.0,0.0,0.0,0.0,0.0,0.0,0.0,0.0,0.0,0.0,0.0,0.0,0.0,0.0,0.0,0.0,0.0,0.0,0.0,0.0,0.0,0.0,0.0,0.0,0.0,0.0,0.0,0.0,0.0,0.0,0.0,0.0,0.0,0.0,0.0,0.0,0.0,0.0,0.0,0.0,0.0,0.0,0.0,0.0,0.0,0.0,0.0,0.0,0.0,0.0,0.0,0.0,0.0,0.0,0.0,0.0,0.0,0.0,0.0,0.0,0.0,0.0,0.0,0.0,0.0,0.0,0.0,0.0,0.0,0.0,0.0,0.0,0.0,0.0,0.0,0.0,0.0,0.0,0.0,0.0,0.0,0.0,0.0,0.0,0.0,0.0,0.0,0.0,0.0,0.0,0.0,0.0,0.0,0.0,0.0,0.0,0.0,0.0,0.0,0.0,0.0,0.0,0.0,0.0,0.0,0.0,0.0,0.0,0.0,0.0,0.0,0.0,0.0,0.0,0.0,0.0,0.0,0.0,0.0,0.0,0.0,0.0,0.0,0.0,0.0,0.0,0.0,0.0,0.0,0.0,0.0,0.0,0.0,0.0,0.0,0.0,0.0,0.0,0.0,0.0,0.0,0.0,0.0,0.0,0.0,0.0,0.0,0.0,0.0,0.0,0.0,0.0,0.0,0.0,0.0,0.0,0.0,0.0,0.0,0.0,0.0,0.0,0.0,0.0,0.0,0.0,0.0,0.0,0.0,0.0,0.0,0.0,0.0,0.0,0.0,0.0,0.0,0.0,0.0,0.0,0.0,0.0,0.0,0.0,0.0,0.0,0.0,0.0,0.0,0.0,0.0,0.0,0.0,0.0,0.0,0.0,0.0,0.0,0.0,0.0,0.0,0.0,0.0,0.0,0.0,0.0,0.0,0.0,0.0,0.0,0.0,0.0,0.0,0.0,0.0,0.0,0.0,0.0,0.0,0.0,0.0,0.0,0.0,0.0,0.0,0.0,0.0,0.0,0.0,0.0,0.0,0.0,0.0,0.0,0.0,0.0,0.0,0.0,0.0,0.0,0.0,0.0,0.0,0.0,0.0,0.0,0.0,0.0,0.0,0.0,0.0,0.0,0.0,0.0,0.0,0.0,0.0,0.0,0.0,0.0,0.0,0.0,0.0,0.0,0.0,0.0,0.0,0.0,0.0,0.0,0.0,0.0,0.0,0.0,0.0,0.0,0.0,0.0,0.0,0.0,0.0,0.0,0.0,0.0,0.0,0.0,0.0,0.0,0.0,0.0,0.0,0.0,0.0,0.0,0.0,0.0,0.0,0.0,0.0,0.0,0.0,0.0,0.0,0.0,0.0,0.0,0.0,0.0,0.0,0.0,0.0,0.0,0.0,0.0,0.0,0.0,0.0,0.0,0.0,0.0,0.0,0.0,0.0,0.0,0.0,0.0,0.0,0.0,0.0,0.0,0.0,0.0,0.0,0.0,0.0,0.0,0.0,0.0,0.0,0.0,0.0,0.0,0.0,0.0,0.0,0.0,0.0,0.0,0.0,0.0,0.0,0.0,0.0,0.0,0.0,0.0,0.0,0.0,0.0,0.0,0.0,0.0,0.0,0.0,0.0,0.0,0.0,0.0,0.0,0.0,0.0,0.0,0.0,0.0,0.0,0.0,0.0,0.0,0.0,0.0,0.0,0.0,0.0,0.0,0.0,0.0,0.0,0.0,0.0,0.0,0.0,0.0,0.0,0.0,0.0,0.0,0.0,0.0,0.0,0.0,0.0,0.0,0.0,0.0,0.0,0.0,0.0,0.0,0.0,0.0,0.0,0.0,0.0,0.0,0.0,0.0,0.0,0.0,0.0,0.0,0.0,0.0,0.0,0.0,0.0,0.0,0.0,0.0,0.0,0.0,0.0,0.0,0.0,0.0,0.0,0.0,0.0,0.0,0.0,0.0,0.0,0.0,0.0,0.0,0.0,0.0,0.0,0.0,0.0,0.0,0.0,0.0,0.0,0.0,0.0,0.0,0.0,0.0,0.0,0.0,0.0,0.0,0.0,0.0,0.0,0.0,0.0,0.0,0.0,0.0,0.0,0.0,0.0,0.0,0.0,0.0,0.0,0.0,0.0,0.0,0.0,0.0,0.0,0.0,0.0,0.0,0.0,0.0,0.0,0.0,0.0,0.0,0.0,0.0,0.0,0.0,0.0,0.0,0.0,0.0,0.0,0.0,0.0,0.0,0.0,0.0,0.0,0.0,0.0,0.0,0.0,0.0,0.0,0.0,0.0,0.0,0.0,0.0,0.0,0.0,0.0,0.0,0.0,0.0,0.0,0.0,0.0,0.0,0.0,0.0,0.0,0.0,0.0,0.0,0.0,0.0,0.0,0.0,0.0,0.0,0.0,0.0,0.0,0.0,0.0,0.0,0.0,0.0,0.0,0.0,0.0,0.0,0.0,0.0,0.0,0.0,0.0,0.0,0.0,0.0,0.0,0.0,0.0,0.0,0.0,0.0,0.0,0.0,0.0,0.0,0.0,0.0,0.0,0.0,0.0,0.0,0.0,0.0,0.0,0.0,0.0,0.0,0.0,0.0,0.0,0.0,0.0,0.0,0.0,0.0,0.0,0.0,0.0,0.0,0.0,0.0,0.0,0.0,0.0,0.0,0.0,0.0,0.0,0.0,0.0,0.0,0.0,0.0,0.0,0.0,0.0,0.0,0.0,0.0,0.0,0.0,0.0,0.0,0.0,0.0,0.0,0.0,0.0,0.0,0.0,0.0,0.0,0.0,0.0,0.0,0.0,0.0,0.0,0.0,0.0,0.0,0.0,0.0,0.0,0.0,0.0,0.0,0.0,0.0,0.0,0.0,0.0,0.0,0.0,0.0,0.0,0.0,0.0,0.0,0.0,0.0,0.0,0.0,0.0,0.0,0.0,0.0,0.0,0.0,0.0,0.0,0.0,0.0,0.0,0.0,0.0,0.0,0.0,0.0,0.0,0.0,0.0,0.0,0.0,0.0,0.0,0.0,0.0,0.0,0.0,0.0,0.0,0.0,0.0,0.0,0.0,0.0,0.0,0.0,0.0,0.0,0.0,0.0,0.0,0.0,0.0,0.0,0.0,0.0,0.0,0.0,0.0,0.0,0.0,0.0,0.0,0.0,0.0,0.0,0.0,0.0,0.0,0.0,0.0,0.0,0.0,0.0,0.0,0.0,0.0,0.0,0.0,0.0,0.0,0.0,0.0,0.0,0.0,0.0,0.0,0.0,0.0,0.0,0.0,0.0,0.0,0.0,0.0,0.0,0.0,0.0,0.0,0.0,0.0,0.0,0.0,0.0,0.0,0.0,0.0,0.0,0.0,0.0,0.0,0.0,0.0,0.0,0.0,0.0,0.0,0.0,0.0,0.0,0.0,0.0,0.0,0.0,0.0,0.0,0.0,0.0,0.0,0.0,0.0,0.0,0.0,0.0,0.0,0.0,0.0,0.0,0.0,0.0,0.0,0.0,0.0,0.0,0.0,0.0,0.0,0.0,0.0,0.0,0.0,0.0,0.0,0.0,0.0,0.0,0.0,0.0,0.0,0.0,0.0,0.0,0.0,0.0,0.0,0.0,0.0,0.0,0.0,0.0,0.0,0.0,0.0,0.0,0.0,0.0,0.0,0.0,0.0,0.0,0.0,0.0,0.0,0.0,0.0,0.0,0.0,0.0,0.0,0.0,0.0,0.0,0.0,0.0,0.0,0.0,0.0,0.0,0.0,0.0,0.0,0.0,0.0,0.0,0.0,0.0,0.0,0.0,0.0,0.0,0.0,0.0,0.0,0.0,0.0,0.0,0.0,0.0,0.0,0.0,0.0,0.0,0.0,0.0,0.0,0.0,0.0,0.0,0.0,0.0,0.0,0.0,0.0,0.0,0.0,0.0,0.0,0.0,0.0,0.0,0.0,0.0,0.0,0.0,0.0,0.0,0.0,0.0,0.0,0.0,0.0,0.0,0.0,0.0,0.0,0.0,0.0,0.0,0.0,0.0,0.0,0.0,0.0,0.0,0.0,0.0,0.0,0.0,0.0,0.0,0.0,0.0,0.0,0.0,0.0,0.0,0.0,0.0,0.0,0.0,0.0,0.0,0.0,0.0,0.0,0.0,0.0,0.0,0.0,0.0,0.0,0.0,0.0,0.0,0.0,0.0,0.0,0.0,0.0,0.0,0.0,0.0,0.0,0.0,0.0,0.0,0.0,0.0,0.0,0.0,0.0,0.0,0.0,0.0,0.0,0.0,0.0,0.0,0.0,0.0,0.0,0.0,0.0,0.0,0.0,0.0,0.0,0.0,0.0,0.0,0.0,0.0,0.0,0.0,0.0,0.0,0.0,0.0,0.0,0.0,0.0,0.0,0.0,0.0,0.0,0.0,0.0,0.0,0.0,0.0,0.0,0.0,0.0,0.0,0.0,0.0,0.0,0.0,0.0,0.0,0.0,0.0,0.0,0.0,0.0,0.0,0.0,0.0,0.0,0.0,0.0,0.0,0.0,0.0,0.0,0.0,0.0,0.0,0.0,0.0,0.0,0.0,0.0,0.0,0.0,0.0,0.0,0.0,0.0,0.0,0.0,0.0,0.0,0.0,0.0,0.0,0.0,0.0,0.0,0.0,0.0,0.0,0.0,0.0,0.0,0.0,0.0,0.0,0.0,0.0,0.0,0.0,0.0,0.0,0.0,0.0,0.0,0.0,0.0,0.0,0.0,0.0,0.0,0.0,0.0,0.0,0.0,0.0,0.0,0.0,0.0,0.0,0.0,0.0,0.0,0.0,0.0,0.0,0.0,0.0,0.0,0.0,0.0,0.0,0.0,0.0,0.0,0.0,0.0,0.0,0.0,0.0,0.0,0.0,0.0,0.0,0.0,0.0,0.0,0.0,0.0,0.0,0.0,0.0,0.0,0.0,0.0,0.0,0.0,0.0,0.0,0.0,0.0,0.0,0.0,0.0,0.0,0.0,0.0,0.0,0.0,0.0,0.0,0.0,0.0,0.0,0.0,0.0,0.0,0.0,0.0,0.0,0.0,0.0,0.0,0.0,0.0,0.0,0.0,0.0,0.0,0.0,0.0,0.0,0.0,4.6328,4.5742,0.0,0.0,0.0,0.0,0.0,0.0,0.0,0.0,0.0,0.0,0.0,0.0,0.0,0.0,0.0,0.0,0.0,0.0,0.0,0.0,0.0,0.0,0.0,4.042,4.1755,4.2553,4.305,4.3294,4.3259,4.283,4.2208,4.1311,4.0885,4.0266,3.9372,3.8988,3.8565,3.8106,3.7677,3.7022,3.6175,3.6175,3.5808,3.5119,0.0,0.0,0.0,0.0,0.0,0.0,0.0,0.0,0.0,0.0,0.0,0.0,0.0,0.0,0.0,0.0,0.0,0.0,0.0,0.0,0.0,0.0,0.0,0.0,0.0,0.0,0.0,0.0,0.0,0.0,0.0,0.0,0.0,0.0,0.0,0.0,0.0,0.0,0.0,0.0,0.0,0.0,0.0,0.0,0.0,0.0,0.0,0.0,0.0,0.0,0.0,0.0,0.0,0.0,0.0,0.0,0.0,0.0,0.0,0.0,0.0,0.0,0.0,0.0,0.0,0.0,0.0,0.0,0.0,0.0,4.8281,4.7539,0.0,0.0,0.0,0.0,0.0,0.0,0.0,0.0,0.0,0.0,0.0,0.0,0.0,0.0,0.0,0.0,0.0,0.0,0.0,0.0,0.0,3.7626,3.9353,4.1177,4.2568,4.3331,4.355,4.3603,4.3521,4.3393,4.3008,4.2273,4.2081,4.17,4.0973,4.0165,3.9665,3.9511,3.8511,3.7623,3.6927,3.6927,3.6615,3.6098,3.5963,0.0,0.0,0.0,0.0,0.0,0.0,0.0,0.0,0.0,0.0,0.0,0.0,0.0,0.0,0.0,0.0,0.0,0.0,0.0,0.0,0.0,0.0,0.0,0.0,0.0,0.0,0.0,0.0,0.0,0.0,0.0,0.0,0.0,0.0,0.0,0.0,0.0,0.0,0.0,0.0,0.0,0.0,0.0,0.0,0.0,0.0,0.0,0.0,0.0,0.0,0.0,0.0,0.0,0.0,0.0,0.0,0.0,0.0,0.0,0.0,0.0,0.0,0.0,5.1504,5.1624,5.1834,5.1834,5.1835,5.1797,5.0391,4.9609,4.9258,4.8398,0.0,0.0,0.0,0.0,0.0,0.0,0.0,0.0,0.0,0.0,0.0,0.0,0.0,0.0,0.0,0.0,0.0,0.0,0.0,3.7483,3.9175,4.1508,4.3308,4.4093,4.4863,4.5274,4.5287,4.4551,4.4085,4.397,4.3316,4.2854,4.2777,4.1927,4.1085,4.0323,3.878,3.793,3.7815,3.7815,3.7763,3.7661,3.703,3.7181,3.7883,0.0,0.0,0.0,0.0,0.0,0.0,0.0,0.0,0.0,0.0,0.0,0.0,0.0,0.0,0.0,0.0,0.0,0.0,0.0,0.0,0.0,0.0,0.0,0.0,0.0,0.0,0.0,0.0,0.0,0.0,0.0,0.0,0.0,0.0,0.0,0.0,0.0,0.0,0.0,0.0,0.0,4.6967,4.7735,0.0,0.0,0.0,0.0,0.0,0.0,0.0,0.0,0.0,0.0,0.0,0.0,0.0,5.1582,5.1582,5.2567,5.3077,5.3088,5.3199,5.3334,5.3472,5.3472,5.3537,5.3633,5.3437,0.0,5.1016,5.0195,0.0,0.0,0.0,0.0,0.0,0.0,0.0,0.0,0.0,0.0,0.0,0.0,0.0,0.0,0.0,0.0,0.0,0.0,0.0,0.0,0.0,4.1858,4.3431,4.4239,4.4667,4.509,4.5556,4.4782,4.4316,4.4316,4.4436,4.4282,4.3778,4.3393,4.2547,4.1239,4.0012,3.9165,3.8742,3.8742,3.8742,3.8707,3.84,3.8199,3.8105,3.7724,0.0,0.0,0.0,0.0,0.0,0.0,0.0,0.0,0.0,0.0,0.0,0.0,0.0,0.0,0.0,0.0,0.0,0.0,0.0,0.0,0.0,0.0,0.0,0.0,0.0,0.0,0.0,0.0,0.0,0.0,0.0,0.0,0.0,0.0,0.0,0.0,0.0,0.0,0.0,4.7433,4.8399,4.8237,4.8278,4.8125,0.0,0.0,0.0,0.0,0.0,0.0,0.0,0.0,0.0,5.2784,5.3626,5.428,5.4741,5.5696,5.6207,5.6264,5.6342,5.6433,5.6567,5.6567,5.6629,5.6737,5.623,5.5656,5.4883,5.2578,5.1601,5.1523,0.0,0.0,0.0,0.0,5.0312,5.0351,0.0,0.0,0.0,0.0,0.0,0.0,0.0,0.0,0.0,0.0,0.0,0.0,4.0439,4.2051,4.3431,4.4239,4.4316,4.459,4.5205,4.4859,4.4513,4.4316,4.5128,4.5282,4.4667,4.4397,4.3585,4.2119,4.1277,4.0512,3.9935,3.9704,3.9627,3.9627,3.9858,3.9585,3.8931,3.8507,3.8124,3.7733,0.0,0.0,0.0,0.0,0.0,0.0,0.0,0.0,0.0,0.0,0.0,0.0,0.0,0.0,0.0,0.0,0.0,0.0,0.0,0.0,0.0,0.0,0.0,0.0,0.0,0.0,0.0,0.0,0.0,0.0,0.0,0.0,0.0,0.0,0.0,0.0,0.0,4.9289,5.007,4.9595,5.0228,5.0356,0.0,0.0,0.0,0.0,0.0,0.0,5.3159,5.3197,5.389,5.5434,5.6242,5.6978,5.7632,5.828,5.8654,5.8765,5.8533,5.8525,5.8704,5.8704,5.8802,5.8951,5.8286,5.8073,5.7969,5.4726,5.3359,5.3281,5.2422,5.207,5.207,5.207,5.207,5.2148,0.0,0.0,0.0,0.0,0.0,0.0,0.0,0.0,0.0,0.0,0.0,4.0477,4.0516,4.2051,4.3431,4.4239,4.4316,4.4316,4.4355,4.509,4.5167,4.4355,4.5128,4.5594,4.5556,4.4705,4.3893,4.3047,4.2158,4.1696,4.1658,4.0819,4.0439,4.0477,4.1316,4.1658,4.1504,3.9896,3.9634,4.0181,3.8522,0.0,0.0,0.0,0.0,0.0,0.0,0.0,0.0,0.0,0.0,0.0,0.0,0.0,0.0,0.0,0.0,0.0,0.0,0.0,0.0,0.0,0.0,0.0,0.0,0.0,0.0,0.0,0.0,0.0,0.0,0.0,0.0,0.0,0.0,0.0,0.0,0.0,0.0,5.2897,5.3708,0.0,0.0,0.0,0.0,5.4241,5.4977,5.5824,5.6709,5.6742,5.7159,5.8083,5.8896,5.9319,5.9358,5.9435,5.944,5.9457,5.8682,5.846,5.8685,5.8685,5.8893,5.9179,5.914,5.914,5.8945,5.6289,5.5156,5.5078,5.4219,5.3867,5.3867,5.3867,5.3867,5.3867,0.0,0.0,0.0,3.6559,3.6552,3.681,3.7593,3.8553,3.9286,3.9673,4.1165,4.2166,4.2166,4.2739,4.3431,4.4239,4.3816,4.397,4.5051,4.4898,4.4898,4.5128,4.5436,4.5594,4.5594,4.4744,4.4162,4.3855,4.3047,4.2624,4.2624,4.2316,4.2166,4.2205,4.2508,4.2931,4.3355,4.22,4.1585,4.1277,4.0696,4.0123,0.0,0.0,0.0,0.0,0.0,0.0,0.0,0.0,0.0,0.0,0.0,0.0,0.0,0.0,0.0,0.0,0.0,0.0,0.0,0.0,0.0,0.0,0.0,0.0,0.0,0.0,0.0,0.0,0.0,0.0,0.0,0.0,0.0,0.0,0.0,0.0,0.0,5.4773,5.5593,0.0,5.4895,5.5593,5.6093,5.6093,5.6896,5.7742,5.855,5.8627,5.9011,5.9896,6.0204,6.0319,6.0319,6.0319,6.0319,6.0319,6.005,5.9986,6.0185,6.0185,6.0375,6.0639,6.0092,5.9873,5.9844,5.8398,5.7461,5.6953,5.664,5.6172,5.5664,5.5664,5.5664,5.5664,3.5781,3.6016,0.0,3.6949,3.7082,3.7523,3.891,3.9973,4.0867,4.1549,4.2773,4.3466,4.3158,4.3361,4.3701,4.4239,4.3816,4.397,4.509,4.4898,4.4859,4.5167,4.5436,4.5594,4.5594,4.5013,4.4744,4.4744,4.3893,4.3508,4.3508,4.3239,4.3085,4.3124,4.3393,4.3816,4.4278,4.4051,4.3431,4.262,4.235,4.1893,4.132,0.0,0.0,0.0,0.0,0.0,0.0,0.0,0.0,0.0,0.0,0.0,0.0,0.0,0.0,0.0,0.0,0.0,0.0,0.0,0.0,0.0,0.0,0.0,0.0,0.0,0.0,0.0,0.0,0.0,0.0,0.0,0.0,0.0,0.0,5.529,5.6729,5.6587,5.7594,5.794,5.7049,5.7786,5.8286,5.8286,5.8819,5.9396,5.9896,5.9935,6.0204,6.0787,6.0787,6.0787,6.0787,6.0787,6.0787,6.0787,6.0787,6.0913,6.1109,6.1109,6.1267,6.1537,6.095,6.0771,6.0781,6.0273,5.9531,5.8711,5.8437,5.8008,5.7422,5.7148,5.7031,5.6992,3.5703,3.6055,3.6287,3.7121,3.7309,3.8151,4.0579,4.0993,4.1614,4.3214,4.4072,4.4205,4.3394,4.3882,4.4329,4.4329,4.4321,4.4316,4.4355,4.5128,4.5205,4.4397,4.5167,4.5594,4.5594,4.5594,4.5594,4.5594,4.4744,4.4355,4.4316,4.3547,4.3162,4.3201,4.397,4.4355,4.4397,4.5244,4.5128,4.4278,4.3508,4.3162,4.3162,0.0,0.0,0.0,0.0,0.0,0.0,0.0,0.0,0.0,0.0,0.0,0.0,0.0,0.0,0.0,0.0,0.0,0.0,0.0,0.0,0.0,0.0,0.0,0.0,0.0,0.0,0.0,0.0,0.0,0.0,0.0,0.0,0.0,5.6028,5.7454,5.8501,5.8418,5.9848,6.0464,5.9644,6.0298,6.0831,6.0825,6.0825,6.0864,6.0896,6.0896,6.0896,6.0896,6.0896,6.0896,6.0896,6.0864,6.0825,6.0825,6.0825,6.0964,6.1286,6.1286,6.1467,6.1719,6.1719,6.1719,6.1719,6.1719,6.1211,6.0351,5.9531,5.9219,5.9101,5.8242,5.793,5.7773,3.6601,3.6953,3.7381,3.8758,3.9532,4.0387,4.17,4.2898,4.3854,4.4341,4.5048,4.5405,4.5172,4.473,4.4703,4.5318,4.4723,4.459,4.5205,4.5475,4.5475,4.5244,4.5475,4.5594,4.5594,4.5594,4.5594,4.5594,4.5359,4.5244,4.5244,4.5013,4.4898,4.4936,4.5128,4.5244,4.5244,4.5518,4.5475,4.5205,4.5013,4.4898,4.4898,0.0,0.0,0.0,0.0,0.0,0.0,0.0,0.0,0.0,0.0,0.0,0.0,0.0,0.0,0.0,0.0,0.0,0.0,0.0,0.0,0.0,0.0,0.0,0.0,0.0,0.0,0.0,0.0,0.0,0.0,0.0,5.698,5.8205,5.7965,5.8953,5.9932,6.0431,6.0871,6.1007,6.0649,6.0785,6.117,6.1689,6.1749,6.2018,6.2589,6.2621,6.2621,6.2621,6.2621,6.2621,6.2621,6.2018,6.1749,6.171,6.1095,6.0964,6.1286,6.1286,6.1467,6.1719,6.1719,6.1719,6.1719,6.1719,6.1562,6.125,6.039,5.9726,5.918,5.8945,5.8437,5.7773,3.7031,3.7578,3.8359,4.0028,4.0768,4.1627,4.3191,4.4225,4.4957,4.5373,4.5761,4.5985,4.5985,4.5461,4.5301,4.5803,4.5265,4.5152,4.5654,4.5646,4.5594,4.5594,4.5594,4.5594,4.5594,4.5594,4.5594,4.5594,4.5594,4.5594,4.5594,4.5594,4.5594,4.5594,4.5594,4.5594,4.5594,4.5594,4.5594,4.5594,4.5594,4.5594,4.5594,4.5594,4.5282,4.4859,4.4859,4.4551,4.4167,4.4167,0.0,0.0,0.0,0.0,0.0,0.0,0.0,0.0,0.0,0.0,0.0,0.0,0.0,0.0,0.0,0.0,0.0,0.0,0.0,0.0,0.0,0.0,0.0,0.0,5.8697,5.9664,5.9938,6.0405,6.1001,6.1773,6.1834,6.1917,6.2167,6.2156,6.2338,6.2785,6.2815,6.3003,6.3497,6.3497,6.3497,6.3497,6.3497,6.3497,6.3497,6.3042,6.2815,6.2815,6.2311,6.2028,6.1924,6.1924,6.1855,6.1719,6.1719,6.1719,6.1719,6.1719,6.1719,6.164,0.0,0.0,0.0,0.0,5.918,5.8359,3.7461,3.8281,3.9414,4.1055,4.1484,4.2383,4.4648,4.5078,4.543,4.6211,4.6199,4.6138,4.6138,4.5998,4.5939,4.5939,4.5939,4.6006,4.6087,4.597,4.5945,4.5945,4.5829,4.5778,4.5753,4.5672,4.562,4.5594,4.5594,4.5594,4.5594,4.5594,4.5594,4.5594,4.5594,4.5594,4.5594,4.5594,4.5594,4.5594,4.5594,4.5594,4.5594,4.5594,4.5667,4.5748,4.5779,4.5826,4.5907,4.5817,0.0,0.0,0.0,0.0,0.0,0.0,0.0,0.0,0.0,0.0,0.0,0.0,0.0,0.0,0.0,0.0,0.0,0.0,0.0,0.0,0.0,0.0,0.0,0.0,6.0234,6.1094,6.1875,6.1898,6.2038,6.2564,6.2746,6.3055,6.3781,6.382,6.3851,6.395,6.4028,6.4145,6.4223,6.434,0.0,0.0,0.0,6.4184,6.4106,6.3989,6.395,6.395,6.3834,6.3517,6.2949,6.2949,6.2555,6.1836,6.1836,6.1797,6.1719,6.1719,6.1719,6.1719,6.1719,6.1719,6.1601,6.0703,5.9961,5.9336,3.9492,4.0117,4.1016,4.1992,4.332,4.4414,4.4922,4.5586,4.6094,4.6289,4.6288,4.6248,4.6248,4.6145,4.6071,4.6071,4.6579,4.7218,4.7925,4.7942,4.7927,4.7927,4.7258,4.6851,4.6795,4.6123,4.5692,4.5594,4.5594,4.5594,4.5594,4.5594,4.5594,4.5594,4.5594,4.5594,4.5594,4.5594,4.5594,4.5594,4.5594,4.5594,4.5594,4.5594,4.6052,4.6651,4.6769,4.7214,4.7692,4.7098,4.7261,4.7577,4.687,4.7105,0.0,0.0,0.0,0.0,0.0,0.0,0.0,0.0,0.0,0.0,0.0,0.0,0.0,0.0,0.0,0.0,0.0,0.0,0.0,6.1055,6.2539,6.3594,6.3789,6.3788,6.3551,6.3,6.3546,6.4003,6.4028,6.4021,6.4259,6.481,6.5507,6.6208,6.6905,6.757,6.7609,6.6983,6.6944,6.6591,6.5884,6.5187,6.484,6.484,6.4145,0.0,6.385,6.385,6.3454,6.2734,6.2734,6.2344,6.1719,6.1719,6.1719,6.1719,6.1719,6.1719,6.1601,6.0703,6.0312,6.0039,4.1719,4.2148,4.2734,4.3555,4.4414,4.5156,4.5586,4.6016,4.6289,4.6289,4.6289,4.6289,4.6289,4.6246,4.62,4.62,4.6861,4.7622,4.8433,4.8507,4.8507,4.8507,4.8076,4.7813,4.7786,4.7354,4.7123,4.7043,4.7043,4.7043,4.7043,4.7043,4.7027,4.6963,4.7034,4.6966,4.6864,4.6911,4.6891,4.6855,4.6855,4.6891,4.692,4.6503,4.6615,4.7067,4.7613,4.8055,4.8333,4.7976,4.8154,4.8429,4.7999,4.8154,4.8507,0.0,0.0,0.0,0.0,0.0,0.0,0.0,0.0,0.0,0.0,0.0,0.0,0.0,0.0,5.9414,6.0273,0.0,6.25,6.293,6.3711,6.4297,6.4297,6.5039,6.5273,6.4414,6.4687,6.5272,6.6082,6.6158,6.6461,6.7211,6.7676,6.8105,6.8533,6.8962,6.9001,6.8572,6.8572,6.818,6.732,6.6853,6.6426,6.5995,6.5568,6.5196,6.4869,6.4869,6.4408,6.3633,6.3203,6.2734,6.2305,6.1875,6.1719,6.1719,6.1719,6.1719,6.164,6.1211,6.1055,6.0976,4.3633,4.4101,4.4375,4.4922,4.5156,4.5508,4.6172,4.6289,4.6289,4.6289,4.6289,4.6289,4.6289,4.6289,4.6445,4.6797,4.7333,4.8158,4.9235,4.9308,4.9308,4.9308,4.9152,4.8987,4.8813,4.8616,4.8528,4.8507,4.8507,4.8507,4.8507,4.8507,4.8448,4.8325,4.8458,4.8377,4.8162,4.8294,4.8269,4.8188,4.8188,4.8257,4.8286,4.7824,4.7663,4.7735,4.8498,4.8889,4.9007,4.8872,4.8917,4.9035,4.8878,4.9035,4.9308,4.9308,5.0018,0.0,0.0,0.0,0.0,0.0,0.0,0.0,0.0,5.7734,5.8945,5.9961,6.1406,6.2656,6.3398,6.4375,6.5078,6.5078,6.5195,6.5312,6.5273,6.6484,6.7148,6.6406,6.6328,6.6914,6.832,6.8437,6.8711,6.9336,6.957,6.9648,6.9648,6.9844,6.9883,6.9648,6.9687,6.9297,6.8437,6.8437,6.8086,6.7383,6.7226,6.6797,6.6094,6.5937,6.539,6.4492,6.3437,6.3008,6.293,6.207,6.1719,6.1719,6.1719,6.1679,6.1678,6.1679,6.1679,6.1636,4.4687,4.5469,4.5781,4.5117,4.5625,4.6172,4.6289,4.6289,4.6289,4.6289,4.6289,4.6289,4.6289,4.6289,4.6914,4.8476,4.8672,4.9726,5.2068,5.2224,5.2224,5.2224,5.1482,5.0693,4.9834,4.9051,4.8629,4.8507,4.8507,4.8507,4.8507,4.8507,4.85,4.8487,4.85,4.8491,4.8463,4.848,4.8477,4.8463,4.8463,4.8472,4.8576,4.9367,4.962,4.9549,4.9768,5.0299,5.0812,5.0227,5.0467,5.0935,5.0232,5.1014,5.2224,5.2224,5.285,5.3554,5.3554,5.4258,5.539,5.7031,5.7617,5.8515,0.0,6.168,6.1758,6.3398,6.4492,6.5195,6.5273,6.664,6.7773,6.7773,6.8398,6.8906,6.8828,6.8984,6.9062,6.8984,6.8984,6.9062,6.9336,6.9297,6.9297,6.9375,7.0117,7.0547,7.0547,7.1289,7.1367,7.0586,7.0547,7.0156,6.9258,6.9336,6.9297,6.9101,6.8398,6.8008,6.789,6.7109,6.6289,6.5351,6.3711,6.3008,6.293,6.207,6.1719,6.1719,6.1719,6.1633,6.1522,6.1677,6.1632,6.1505,4.5253,4.5839,4.5956,4.5604,4.5965,4.6289,4.6289,4.6289,4.6289,4.6289,4.6289,4.6289,4.6289,4.6758,4.7539,4.8789,4.9805,5.1016,5.2617,5.3164,5.3476,5.3476,5.3125,5.2734,5.2337,5.1986,5.1746,5.1692,5.1692,5.1692,5.1692,5.1692,5.1674,5.1598,5.1678,5.1612,5.1468,5.1534,5.125,5.0717,5.0717,5.0447,5.0111,5.0533,5.0704,5.0753,5.0809,5.1047,0.0,5.0976,5.1133,5.1328,5.1016,5.1367,5.2031,5.2539,5.332,5.4336,5.5859,5.6914,5.7734,5.8476,5.9765,6.1094,6.2031,6.2734,6.3555,6.4805,6.5742,6.6523,6.7031,6.8086,6.8906,6.8945,6.9258,6.9492,6.9453,6.9844,7.0156,7.0156,7.0586,7.0703,7.0234,7.0156,7.0586,7.1601,7.1992,7.2422,7.293,7.2812,7.2578,7.2226,7.1719,7.1055,7.0156,7.0195,6.9922,6.9414,6.9062,6.8633,6.8203,6.7812,6.6914,6.5547,6.4844,6.3945,6.2969,6.2617,6.2106,6.1581,6.1581,6.1504,6.1389,6.1521,6.1502,6.1357,4.5298,4.5765,4.5882,4.5882,4.6071,4.6198,4.6198,4.6198,4.6198,4.6198,4.6198,4.6276,4.6509,4.7095,4.7954,4.9047,5.0305,5.1598,5.2926,5.3632,5.4101,5.4336,5.4375,5.4258,5.4023,5.3984,5.3984,5.3984,5.3984,5.4101,5.4375,5.4375,5.4294,5.4236,5.4334,5.4127,5.3733,5.3828,5.3429,5.2751,5.2751,5.2437,5.1968,5.1695,5.1671,5.1719,5.1484,5.1406,5.1406,5.1406,5.1406,5.1406,5.1406,5.1719,5.2305,5.3164,5.4375,5.5859,5.7734,5.8867,5.9531,5.9531,6.1094,6.2617,6.2461,6.3398,6.4609,6.5742,6.6836,6.7773,6.8437,6.9609,7.0508,7.0547,7.0742,7.0898,7.0898,7.1211,7.1406,7.1406,7.1758,7.1758,7.1133,7.1289,7.2031,7.3555,7.3672,7.3945,7.457,7.3984,7.3555,7.332,7.2695,7.1953,7.1055,7.1055,7.0742,7.0117,6.9883,6.9453,6.8867,6.8398,6.7383,6.5937,6.5661,6.4799,6.3588,6.3072,6.2418,6.1736,6.1543,6.1357,6.1234,6.1347,6.1281,6.12,0.0,4.5378,4.5882,4.5882,4.5925,4.589,4.589,4.589,4.589,4.589,4.589,4.624,4.709,4.7207,4.7907,4.9615,4.9949,5.1089,5.359,5.39,5.4375,5.5234,5.5273,5.4844,5.4023,5.3984,5.3984,5.3984,5.3984,5.4414,5.5273,5.5273,5.5273,5.5234,5.5273,5.4805,5.3984,5.3984,5.3984,5.3945,5.3945,5.3945,5.3828,5.2969,5.2656,5.2539,5.1719,5.1406,5.1406,5.1406,5.1406,5.1406,5.1406,5.2578,5.4101,5.4961,5.7031,5.9062,5.914,5.9765,6.0351,6.0351,6.1055,6.2187,6.3828,6.4258,6.4805,6.6523,6.8164,6.9336,6.9453,7.1484,7.3164,7.3164,7.3906,7.4453,7.4453,7.375,7.3203,7.3203,7.25,7.1992,7.1953,7.2734,7.3594,7.4492,7.457,7.457,7.4609,7.457,7.418,7.332,7.3281,7.2851,7.1953,7.1953,7.1953,7.1914,7.1055,7.0664,7.0586,6.8945,6.7695,6.6797,6.575,6.5291,6.5089,6.3263,6.2496,6.2376,6.1603,6.119,6.101,6.1019,6.1019,6.101,0.0,0.0,4.569,4.569,4.569,4.569,4.569,4.5806,4.6113,4.6694,4.7271,0.0,0.0,0.0,0.0,0.0,5.0856,5.1898,5.276,5.3919,5.4716,5.5028,5.5571,5.5996,5.6266,5.6266,5.6568,5.7238,5.7238,5.7488,5.789,5.789,5.789,5.789,5.789,5.7734,5.7422,5.6836,5.6601,5.6484,5.5312,5.4844,5.4765,5.3906,5.3555,5.3437,0.0,5.1875,5.1406,5.1406,5.1797,5.2266,5.2266,5.3047,5.4297,5.5742,5.7617,5.9336,5.9844,6.0195,6.0547,6.1133,6.2344,6.3594,6.418,6.5195,6.6172,6.6797,6.7812,6.8789,6.9375,7.0625,7.1953,7.3125,7.3555,7.3945,7.4531,7.4336,7.414,7.414,7.3906,7.3945,7.4531,7.3828,7.3672,7.4531,7.5156,7.5703,7.6289,7.5781,7.5312,7.5039,7.3906,7.3164,7.2851,7.2305,7.1992,7.1992,7.1133,7.066,7.0517,6.88,6.776,6.7303,6.6405,6.5683,6.513,6.4495,6.3818,6.3149,6.2299,6.1856,6.167,6.1092,6.086,6.086,0.0,0.0,0.0,4.5594,4.5594,0.0,0.0,0.0,0.0,0.0,0.0,0.0,0.0,0.0,0.0,0.0,0.0,5.1919,5.2194,5.3602,5.4562,5.4876,5.573,5.6425,5.6967,5.6967,5.7437,5.8367,5.8367,5.8751,5.95,5.95,5.95,5.95,5.9557,5.9367,5.9055,5.8241,5.789,5.7773,5.6328,5.5742,5.5703,5.5156,5.4726,0.0,5.3828,5.3086,5.2266,5.1953,5.2226,5.2734,5.3086,5.418,5.5664,5.7109,5.875,6.0195,6.0703,6.0859,6.1015,6.1562,6.2773,6.3906,6.4219,6.539,6.6523,6.6836,6.7578,6.8359,6.8945,7.0195,7.164,7.3086,7.4062,7.5,7.5859,7.5742,7.5547,7.5547,7.4961,7.4805,7.539,7.4687,7.4609,7.5469,7.6055,7.6601,7.7187,7.668,7.6211,7.5898,7.4492,7.3633,7.3281,7.2422,7.1952,7.1906,7.1264,7.0798,7.0342,6.9211,6.8307,6.7583,6.7016,6.6244,6.5421,6.5074,6.4521,6.3866,6.3016,6.2409,6.2056,6.1781,6.132,6.0787,0.0,0.0,0.0,0.0,0.0,0.0,0.0,0.0,0.0,0.0,0.0,0.0,0.0,0.0,0.0,0.0,0.0,0.0,5.1977,5.2983,5.3955,5.4777,5.5705,5.6208,5.6247,5.6247,5.6639,5.7459,5.7498,5.8354,5.9993,6.0032,6.0032,5.9999,6.0165,5.9779,5.8928,5.8236,5.7969,5.793,5.6992,5.664,5.6719,5.668,5.6172,5.5508,5.5469,5.4883,5.4062,5.3125,5.2891,5.3125,5.3984,5.6015,5.8203,5.9023,6.043,6.1719,6.1719,6.1719,6.1719,6.1758,6.2422,6.3281,6.418,6.5,6.582,6.664,6.75,6.8086,6.8125,7.0234,7.2226,7.3164,7.5508,7.75,7.8398,7.7773,7.7265,7.7265,7.5781,7.4726,7.4726,7.5469,7.6328,7.7148,7.7187,7.7187,7.7187,7.7187,7.6836,7.5976,7.5117,7.4258,7.3437,7.2499,7.1902,7.1682,7.156,7.1043,7.0251,7.0212,6.9275,6.7705,6.7466,6.6903,6.607,6.5062,6.4666,6.4589,6.3698,6.2897,6.2326,6.3051,6.2281,6.0935,0.0,0.0,0.0,0.0,0.0,0.0,0.0,0.0,0.0,0.0,0.0,0.0,0.0,0.0,0.0,0.0,0.0,0.0,5.1042,5.248,5.3399,5.3635,5.5021,5.614,5.6797,5.6797,5.7275,5.8219,5.8874,5.9456,6.0011,6.0664,6.0628,6.0014,6.0705,6.0577,5.983,5.8984,5.9089,5.957,5.7461,5.7383,5.8476,5.7812,5.7812,5.8125,5.7461,5.7109,5.668,5.5156,5.5508,5.6719,5.7617,5.875,5.9805,6.0039,6.0859,6.1719,6.1719,6.1719,6.1875,6.25,6.332,6.4219,6.5078,6.543,6.5664,6.5898,6.6094,6.6445,6.7109,6.9297,7.1523,7.3047,7.5508,7.75,7.8398,7.832,7.8164,7.8164,7.7187,7.6523,7.6523,7.6758,7.6953,7.7187,7.7187,7.7187,7.7187,7.7187,7.7109,7.6875,7.6015,7.5386,7.5038,7.3365,7.2206,7.1549,7.1505,7.1327,7.0927,7.0268,6.9696,6.9096,6.7752,6.7067,6.6791,6.5935,6.5551,6.5474,6.4628,6.4128,6.3897,6.3468,6.3045,6.266,0.0,0.0,0.0,0.0,0.0,0.0,0.0,0.0,0.0,0.0,0.0,0.0,0.0,0.0,0.0,0.0,0.0,0.0,0.0,5.2818,5.3587,5.3236,5.4818,5.5939,5.6401,5.6786,5.7294,5.7834,5.8718,5.9368,5.9769,5.992,5.992,5.9773,5.9978,5.984,5.9387,5.8577,5.861,0.0,0.0,5.7691,5.8672,5.8906,5.9062,5.918,5.9062,5.8943,5.8777,5.7761,5.7887,5.8555,5.9062,5.9765,6.039,6.039,6.1015,6.1797,6.2187,6.2265,6.2461,6.3359,6.4219,6.4883,6.5,6.5312,6.5508,6.5117,6.5312,6.5742,6.625,6.8355,7.0611,7.233,7.5043,7.7365,7.8575,7.9081,7.9314,7.9314,7.8221,7.744,7.744,7.7129,7.6936,7.6936,7.7004,7.7056,7.7057,7.6994,7.6936,7.6936,7.6076,7.5386,7.4886,7.3394,7.2392,7.1926,7.1474,7.1185,7.1062,7.0566,7.0117,6.9667,6.8667,6.7821,6.7058,6.6596,6.6211,6.5865,6.5359,6.4936,6.4589,6.4474,6.3968,6.3352,0.0,0.0,0.0,0.0,0.0,0.0,0.0,0.0,0.0,4.8159,4.9707,5.1015,5.1813,5.2,0.0,0.0,0.0,0.0,0.0,0.0,5.4164,5.3395,5.4857,5.5708,5.5708,5.6439,5.6824,5.6824,5.7703,5.8473,5.9165,5.8588,5.8627,5.9138,5.8694,5.8424,5.8272,5.7625,5.7534,5.7821,5.7704,5.7856,5.8355,0.0,5.9996,5.9566,6.0269,6.0444,6.0352,6.0352,5.9971,5.9491,5.9531,6.0,6.0585,6.0663,6.1247,6.1988,6.2886,6.312,6.3316,6.4175,6.4878,6.5191,6.4566,6.48,6.5035,6.4371,6.4841,6.5429,6.5546,6.7553,6.9735,7.1448,7.435,7.7053,7.8843,7.973,8.0275,8.0392,7.8948,7.7937,7.782,7.7162,7.6699,7.6621,7.6738,7.6843,7.686,7.6709,7.6582,7.6582,7.5848,7.5012,7.4153,7.3229,7.2667,7.2435,7.1506,7.1014,7.0898,7.0898,7.0514,6.986,6.9744,6.8821,6.7443,6.7327,6.6865,6.6205,6.609,6.559,6.5013,6.5667,6.4936,6.3737,0.0,0.0,0.0,0.0,0.0,0.0,0.0,0.0,0.0,0.0,5.0053,5.1015,5.1813,5.2544,0.0,0.0,0.0,0.0,0.0,0.0,0.0,5.428,5.5203,5.5708,5.5708,5.5862,5.5939,5.5939,5.6786,5.7286,5.744,5.8011,5.7973,5.7445,5.8066,5.7989,5.7412,5.7281,5.7719,5.8449,5.7743,5.8338,5.9677,5.9952,6.0422,0.0,6.1086,6.111,6.1128,6.1128,6.1097,6.1101,6.1248,6.128,6.1443,6.2181,6.2364,6.2562,6.3416,6.3647,6.3884,6.4743,6.4515,6.4247,6.4834,6.4018,6.3278,6.378,6.4131,6.457,6.523,6.7446,6.974,7.1448,7.3851,7.6363,7.8765,7.9228,7.9579,8.0314,7.9489,7.8594,7.7859,7.7664,7.7318,7.666,7.6493,7.6493,7.6624,7.66,7.6582,7.6582,7.6283,7.5705,7.4857,7.4474,7.3604,7.2263,7.2048,7.1591,7.0898,7.0898,7.0821,7.0667,6.9975,6.9513,6.9206,6.8475,6.8084,6.7891,6.7167,6.6789,6.6596,6.6096,6.5705,6.5474,0.0,0.0,0.0,0.0,0.0,0.0,0.0,4.7278,4.8235,4.8663,5.024,5.1625,5.2467,5.3351,5.4049,0.0,0.0,0.0,0.0,0.0,0.0,5.4511,5.5285,5.5708,5.5708,5.6588,5.6819,5.6362,0.0,5.7665,5.7671,5.7165,5.6973,5.6983,5.6973,5.6745,5.6411,5.6401,5.7001,5.7928,5.7967,5.8798,6.0032,6.0502,6.0933,0.0,6.1186,6.115,6.115,6.115,6.1175,6.1267,6.1432,6.1467,6.1541,6.2394,6.258,6.2795,6.4117,6.4468,6.4701,6.5563,6.5103,6.4483,6.4444,6.3474,6.2693,6.3034,6.3564,6.4196,6.5049,6.6861,6.879,7.0488,7.2422,7.4712,7.7755,7.8524,7.9298,8.0603,7.9978,7.932,7.8894,7.8048,7.7395,7.7008,7.6448,7.6231,7.6438,7.6359,7.6278,7.6278,7.6203,7.5929,7.551,7.4991,7.4322,7.3476,7.2636,7.1982,7.1552,7.1091,7.0898,7.0898,7.0475,7.009,6.9667,6.9244,6.8814,6.8353,6.7936,6.7782,6.7667,6.6821,6.6519,6.6442,0.0,0.0,0.0,0.0,0.0,0.0,4.609,4.724,4.8235,4.8625,5.0543,5.2236,5.3082,5.3972,5.4818,0.0,0.0,0.0,0.0,0.0,0.0,0.0,5.5362,5.5785,5.5978,0.0,0.0,5.7286,5.7973,0.0,0.0,0.0,0.0,0.0,5.6285,5.5862,5.5708,5.5708,5.6367,0.0,0.0,5.9133,6.0233,0.0,0.0,0.0,0.0,6.0963,6.0963,6.0963,6.0963,6.0996,6.1128,6.1204,6.1389,6.2238,6.2557,6.3029,6.4586,6.513,6.5441,6.6109,6.5495,6.4527,6.3856,6.2931,6.2309,6.2605,6.3263,6.4072,6.5118,6.6303,6.7726,6.9608,7.1035,7.3137,7.6561,7.7869,7.91,8.0631,8.04,8.0015,7.9815,7.8438,7.7484,7.733,7.6476,7.6072,7.6225,7.61,7.6015,7.6015,7.6015,7.6015,7.6015,7.5322,7.4892,7.4661,7.336,7.2559,7.2175,7.1475,7.1091,7.0898,7.0898,7.0552,6.9975,6.9975,6.9552,6.893,6.8737,6.866,6.8584,6.7705,6.725,6.7019,0.0,0.0,0.0,0.0,0.0,0.0,4.7625,4.8005,4.8663,5.0245,5.1318,5.2236,5.3082,5.3972,5.4818,0.0,0.0,0.0,0.0,0.0,0.0,0.0,0.0,0.0,0.0,0.0,0.0,5.8165,5.8275,0.0,0.0,0.0,0.0,0.0,0.0,5.6439,5.5708,5.5708,0.0,0.0,0.0,0.0,0.0,0.0,0.0,0.0,0.0,6.0827,6.0827,6.0827,6.0827,6.0833,6.0823,6.093,6.1186,6.2065,6.2751,6.3436,6.4405,6.5214,6.5836,6.5913,6.4719,6.3442,6.3365,6.2099,6.1406,6.2897,6.3428,6.4097,6.5716,6.6123,6.7034,6.9492,7.0533,7.2206,7.563,7.7484,7.8869,7.9823,8.0554,8.0669,7.9892,7.8938,7.8099,7.7369,7.6476,7.5991,7.6027,7.5998,7.6015,7.6015,7.6015,7.6015,7.6015,7.5938,7.5476,7.47,7.4546,7.3668,7.2213,7.2136,7.1629,7.0898,7.0898,7.086,7.0783,7.0783,7.0744,7.0591,6.986,6.959,6.9475,6.8584,6.7782,6.7096,0.0,0.0,0.0,0.0,0.0,0.0,4.6475,4.7432,4.8355,4.9048,5.0317,5.151,5.2313,5.3197,5.4241,5.5593,0.0,0.0,0.0,0.0,0.0,0.0,0.0,0.0,0.0,0.0,5.8665,5.9011,5.9011,0.0,0.0,0.0,0.0,0.0,0.0,5.6824,5.6478,5.6478,0.0,0.0,0.0,0.0,0.0,0.0,0.0,0.0,0.0,0.0,6.0787,6.0787,6.0787,6.0787,6.0787,6.0828,6.1036,6.1923,6.2721,6.3506,6.4359,6.5243,6.5904,6.5904,6.4974,6.3929,6.3429,6.2775,6.2506,6.316,6.3767,6.4585,6.5743,6.5974,6.663,6.8663,6.9207,7.0584,7.4014,7.5476,7.6899,7.8784,7.9785,8.0169,7.9815,7.9015,7.7946,7.663,7.6207,7.6015,7.6015,7.6015,7.6015,7.6015,7.6015,7.6015,7.6015,7.6015,7.5822,7.5476,7.493,7.4084,7.2976,7.2437,7.1706,7.0898,7.0898,7.0898,7.0898,7.0898,7.0898,7.086,7.0552,7.0437,7.0321,6.9475,6.8975,6.8513,0.0,0.0,0.0,0.0,0.0,4.5706,4.5936,4.7201,4.8197,4.8471,4.9971,5.1279,5.1846,5.2928,5.4164,5.5593,5.5708,0.0,0.0,0.0,0.0,0.0,0.0,0.0,0.0,0.0,5.9627,5.9896,5.9896,5.9896,0.0,0.0,5.8896,5.8627,0.0,0.0,0.0,0.0,0.0,0.0,0.0,0.0,0.0,0.0,0.0,0.0,0.0,0.0,0.0,0.0,0.0,6.0787,6.0787,6.0787,6.0941,6.1556,6.2474,6.3429,6.4045,6.5051,6.5904,6.5904,6.5243,6.4436,6.3814,6.3506,6.3352,6.3622,6.4166,6.4859,6.5743,6.6096,6.6744,6.816,6.8814,7.0161,7.3084,7.4392,7.5861,7.7907,7.8707,7.9169,7.94,7.8631,7.7676,7.6476,7.613,7.6015,7.6015,7.6015,7.6015,7.6015,7.6015,7.6015,7.6015,7.6015,7.6015,7.5976,7.5399,7.4546,7.3469,7.286,7.1975,7.0898,7.0898,7.0898,7.0898,7.0898,7.0898,7.0898,7.0898,7.0898,7.0821,7.0244,6.9898,6.9513,0.0,0.0,0.0,0.0,0.0,0.0,4.6735,4.7582,4.8394,4.9279,5.0851,5.1885,5.1885,5.3433,5.4818,5.5631,5.5708,0.0,0.0,0.0,0.0,0.0,0.0,0.0,0.0,0.0,5.9935,6.0787,6.0787,6.0787,6.0787,6.0787,6.0319,5.9473,0.0,0.0,0.0,0.0,0.0,0.0,0.0,0.0,6.0787,0.0,0.0,0.0,0.0,0.0,0.0,0.0,0.0,0.0,0.0,6.0787,6.0787,6.0825,6.1973,6.3314,6.3314,6.4589,6.5904,6.5904,6.5243,6.4589,6.4589,6.3929,6.3545,6.4397,6.4589,6.4859,6.5743,6.6558,6.7366,6.8276,6.9783,7.1475,7.3238,7.4938,7.6322,7.7215,7.733,7.7638,7.8446,7.7792,7.733,7.7292,7.6476,7.6015,7.6015,7.6015,7.6015,7.6015,7.6015,7.6015,7.6015,7.6015,7.6015,7.6015,7.5976,7.513,7.3507,7.3507,7.2545,7.0898,7.0898,7.0898,7.0898,7.0898,7.0898,7.0898,7.0898,7.0898,7.0898,7.0898,7.0398,6.9706,0.0,0.0,0.0,0.0,0.0,0.0,4.5975,4.7201,4.8197,4.8471,5.001,5.1279,5.1846,5.2928,5.4164,5.5593,5.6247,0.0,0.0,0.0,0.0,0.0,0.0,0.0,0.0,6.0089,6.0512,6.0787,6.0787,6.0787,6.0787,6.0787,6.0666,6.0358,5.9781,5.9358,0.0,0.0,0.0,0.0,6.071,6.0787,6.0787,0.0,0.0,0.0,0.0,0.0,0.0,0.0,0.0,0.0,0.0,0.0,0.0,6.0787,6.1595,6.248,6.248,6.3281,6.4122,6.4122,6.4359,6.4436,6.3852,6.4436,6.4974,6.4666,6.5051,6.5743,6.6558,6.6942,6.759,6.9052,7.0206,7.1283,7.2437,7.4053,7.5438,7.6322,7.6945,7.7638,7.8407,7.7246,7.6399,7.6399,7.6169,7.6015,7.6015,7.6015,7.6015,7.6015,7.6015,7.6015,7.6015,7.6015,7.6015,7.6015,7.6015,7.5399,7.4315,7.3738,7.2853,7.1752,7.1168,7.0898,7.0898,7.0898,7.0898,7.0898,7.0898,7.0898,7.0898,7.0898,7.0744,7.0437,0.0,0.0,0.0,0.0,0.0,0.0,4.5594,4.7009,4.8082,4.8082,4.9894,5.1356,5.1851,5.2967,5.4357,5.6055,5.6978,0.0,0.0,0.0,0.0,0.0,0.0,0.0,5.9473,6.0393,6.0876,6.0876,6.0876,6.0876,6.0871,6.0839,6.0787,6.0787,6.0242,5.9973,0.0,0.0,0.0,0.0,6.0787,6.0787,6.0787,0.0,0.0,0.0,0.0,0.0,0.0,0.0,0.0,0.0,0.0,0.0,0.0,0.0,6.1172,6.1672,6.2018,6.2704,6.3391,6.3698,6.4199,6.4551,6.432,6.5128,6.5743,6.5205,6.5513,6.6051,6.6558,6.7167,6.7936,6.9052,7.0167,7.1321,7.2514,7.3591,7.4546,7.5399,7.6553,7.7369,7.7561,7.6592,7.613,7.6476,7.6207,7.6015,7.6015,7.6015,7.6015,7.6015,7.6015,7.6015,7.6015,7.6015,7.6015,7.6015,7.6015,7.5553,7.4661,7.3853,7.3014,7.2136,7.1283,7.0898,0.0,7.0898,7.0898,7.0898,7.0898,7.0898,7.0898,7.0898,7.0898,7.0821,0.0,0.0,0.0,0.0,0.0,0.0,0.0,4.7009,4.8082,4.8082,5.0274,5.1851,5.1962,5.3433,5.5131,5.694,5.7819,0.0,0.0,0.0,0.0,0.0,0.0,0.0,5.9584,6.0534,6.101,6.1023,6.1023,6.1023,6.1019,6.0876,6.0816,6.0816,6.0793,6.0787,0.0,0.0,0.0,0.0,6.0787,6.0787,0.0,0.0,0.0,0.0,0.0,0.0,0.0,0.0,0.0,0.0,0.0,0.0,0.0,0.0,0.0,0.0,0.0,6.2551,6.3314,6.4128,6.4436,6.4705,6.5513,6.582,0.0,6.5904,6.5904,6.5936,6.6051,6.7321,6.8353,6.8545,6.9898,7.1475,7.3161,7.3507,7.3892,7.4776,7.6245,7.6899,7.6169,7.6053,7.6322,7.7138,7.6476,7.6015,7.6015,7.6015,7.6015,7.6015,7.6015,7.6015,7.6015,7.6015,7.6015,7.6015,7.6015,7.5592,7.4776,7.3969,7.3129,7.2329,7.1475,7.1091,7.1091,7.1014,7.0975,7.0975,7.0937,7.0898,7.0898,7.0898,7.0885,7.0825,0.0,0.0,0.0,0.0,0.0,0.0,0.0,0.0,0.0,0.0,4.9779,5.1471,5.2736,5.3274,5.4703,0.0,0.0,0.0,0.0,0.0,0.0,0.0,0.0,0.0,6.064,6.0893,6.1085,6.123,6.123,6.123,6.1224,6.1027,6.0954,6.0944,6.085,6.0787,0.0,0.0,0.0,0.0,6.0787,6.0787,0.0,0.0,0.0,0.0,6.0787,6.0787,0.0,0.0,0.0,0.0,0.0,0.0,0.0,0.0,6.0787,6.0825,6.1056,0.0,6.1435,6.1627,6.2666,6.366,0.0,6.4936,6.5904,6.5904,6.5904,6.6282,6.7583,6.759,6.8052,7.0014,7.0629,7.1283,7.236,7.363,7.4976,7.6515,7.6476,7.6476,7.6938,7.6399,7.6092,7.6284,7.613,7.6015,7.6015,7.6015,7.6015,7.6015,7.6015,7.6015,7.6015,7.6015,7.6015,7.6015,7.6015,7.5899,7.5668,7.4822,7.4315,7.4091,7.3238,7.2892,7.2853,7.2168,7.1905,7.1828,7.1168,7.0898,7.0898,7.0898,7.0645,7.0298,0.0,0.0,0.0,0.0,0.0,0.0,0.0,0.0,0.0,0.0,4.9933,5.1751,5.3145,5.3656,5.513,0.0,0.0,0.0,0.0,0.0,0.0,0.0,0.0,5.9989,6.0529,6.1,6.1273,6.1383,6.1383,6.1383,6.138,6.1234,6.1097,6.0993,6.0844,6.0787,0.0,0.0,6.0787,6.0787,6.0787,0.0,0.0,0.0,0.0,0.0,6.0787,6.0787,0.0,6.0787,6.0787,6.0787,0.0,0.0,0.0,0.0,6.0787,6.0787,6.0787,6.1358,6.205,6.2435,6.3512,6.4589,6.4974,6.5474,6.5904,6.5904,6.5904,6.6167,6.709,6.7513,6.8167,6.9545,7.0398,7.1321,7.2629,7.4245,7.5668,7.6592,7.663,7.663,7.6707,7.6284,7.6015,7.6015,7.6015,7.6015,7.6015,7.6015,7.6015,7.6015,7.6015,7.6015,7.6015,7.6015,7.6015,7.6015,7.6015,7.6015,7.5976,7.5091,7.47,7.4661,7.3853,7.3507,7.3469,7.2976,7.2783,7.2706,7.1822,7.1331,7.1091,7.0678,7.0179,6.9738,0.0,0.0,0.0,0.0,0.0,0.0,0.0,0.0,0.0,0.0,0.0,0.0,0.0,0.0,0.0,0.0,0.0,0.0,0.0,0.0,0.0,0.0,6.0235,6.0141,6.0049,6.0999,6.1431,6.1325,6.1481,6.152,6.1519,6.1385,6.1224,6.0993,6.0887,6.0827,6.0787,6.0787,6.0787,6.0787,6.0787,0.0,0.0,0.0,0.0,0.0,0.0,0.0,0.0,6.0787,6.0787,6.0787,6.0787,0.0,0.0,0.0,0.0,0.0,6.0979,6.232,6.3775,6.4128,6.5051,6.6058,6.6596,6.6288,6.5904,6.5904,6.5904,6.5974,6.6244,6.7321,6.8353,6.8891,7.0167,7.1668,7.3276,7.47,7.5707,7.5976,7.663,7.683,7.6053,7.6015,7.6015,7.6015,7.6015,7.6015,7.6015,7.6015,7.6015,7.6015,7.6015,7.6015,7.6015,7.6015,7.6015,7.6015,7.6015,7.6015,7.5976,7.5245,7.4892,7.4861,7.4161,7.3892,7.3853,7.3738,7.3661,7.3577,7.2643,7.1911,7.1315,7.0475,6.9759,6.9169,0.0,0.0,0.0,0.0,0.0,0.0,0.0,0.0,0.0,0.0,0.0,0.0,0.0,0.0,0.0,0.0,0.0,0.0,0.0,0.0,0.0,6.1439,6.1216,6.0799,6.0194,6.1028,6.118,6.0584,6.1327,6.1678,6.1678,6.152,6.1292,6.1001,6.0961,6.09,6.0787,6.0787,6.0787,6.0787,6.0787,0.0,0.0,0.0,0.0,0.0,0.0,0.0,0.0,6.0787,6.0787,6.0787,6.0787,0.0,0.0,0.0,0.0,0.0,6.171,6.3672,6.5013,6.298,6.4211,6.5743,6.5128,6.5474,6.5904,6.5904,6.5904,6.632,6.7737,6.7628,6.825,7.1136,7.1828,7.236,7.3353,7.3738,7.4392,7.5822,7.613,7.613,7.6015,7.6015,7.6015,7.6015,7.6015,7.6015,7.6015,7.6015,7.6015,7.6015,7.6015,7.6015,7.6015,7.6015,7.6015,7.6015,7.6015,7.6015,7.6015,7.5861,7.5784,7.5784,7.5668,7.563,7.5553,7.4815,7.4507,7.4401,7.3041,7.2054,7.131,7.0687,6.9676,6.8544,0.0,0.0,0.0,0.0,0.0,0.0,0.0,0.0,0.0,0.0,0.0,0.0,0.0,0.0,0.0,0.0,0.0,0.0,0.0,0.0,6.1439,6.1015,6.0877,6.0667,6.0338,6.1159,6.1205,6.039,6.1289,6.1719,6.1719,6.1574,6.1421,6.1265,6.1175,6.1056,6.0905,6.0905,6.0855,6.0787,0.0,0.0,0.0,0.0,0.0,0.0,0.0,0.0,0.0,0.0,6.0787,6.0787,6.0787,0.0,0.0,0.0,0.0,0.0,6.1287,6.3249,6.4936,6.3749,6.5705,6.7859,6.7436,6.6936,6.6558,6.6558,6.6211,6.6282,6.7475,6.7744,6.8783,7.1713,7.2591,7.3206,7.4046,7.4161,7.4623,7.5861,7.6015,7.6015,7.6015,7.6015,7.6015,7.6015,7.6015,7.6015,7.6015,7.6015,7.6015,7.6015,7.6015,7.6015,7.6015,7.6015,7.6015,7.6015,7.6015,7.6015,7.6015,7.6015,7.6015,7.6015,7.6015,7.6015,7.5976,7.5553,7.5196,7.4812,7.3721,7.2699,7.1665,7.0181,6.8977,6.8021,0.0,0.0,0.0,0.0,0.0,0.0,0.0,0.0,0.0,0.0,0.0,0.0,0.0,0.0,0.0,0.0,0.0,0.0,0.0,6.1211,6.1406,6.0742,6.0508,6.0234,5.9805,6.0859,6.0976,6.0117,6.1172,6.1719,6.1719,6.1585,6.152,6.1501,6.1383,6.1256,6.1073,6.1023,6.093,6.0845,0.0,0.0,0.0,0.0,0.0,0.0,0.0,0.0,0.0,0.0,0.0,0.0,0.0,0.0,0.0,6.0787,6.0787,6.0825,6.1056,6.2666,6.4359,6.4551,6.6705,6.8898,6.9321,6.8052,6.6942,6.7327,6.6898,6.6744,6.7558,6.859,6.9937,7.1867,7.2937,7.3776,7.4584,7.47,7.5007,7.5899,7.6015,7.6015,7.6015,7.6015,7.6015,7.6015,7.6015,7.6015,7.6015,7.6015,7.6015,7.6015,7.6015,7.6015,7.6015,7.6015,7.6015,7.6015,7.6015,7.6015,7.6015,7.6015,7.6015,7.6015,7.6015,7.6015,7.6007,7.5841,7.5535,7.5005,7.4144,7.3036,7.176,6.9874,6.8678,6.7994,0.0,0.0,0.0,0.0,0.0,0.0,0.0,0.0,0.0,0.0,0.0,0.0,0.0,0.0,0.0,0.0,0.0,0.0,0.0,6.1211,6.168,6.1601,6.082,5.9687,5.8125,5.9687,6.0117,5.9297,6.0898,6.1719,6.1719,6.1679,6.1631,6.1502,6.1496,6.14,6.1259,6.1089,6.0993,6.0957,6.0861,0.0,0.0,0.0,0.0,0.0,0.0,0.0,0.0,0.0,0.0,0.0,0.0,0.0,6.0787,6.0787,6.0787,6.0979,6.1787,6.2704,6.3583,6.4397,6.5397,6.659,6.8122,6.7205,6.6436,6.7968,6.8276,6.8468,6.936,7.0821,7.1982,7.2175,7.2937,7.3776,7.4584,7.47,7.5007,7.5899,7.6015,7.6015,7.6015,7.6015,7.6015,7.6015,7.6015,7.6015,7.6015,7.6015,7.6015,7.6015,7.6015,7.6015,7.6015,7.6015,7.6015,7.6015,7.6015,7.6015,7.6015,7.6015,7.6015,7.6015,7.6015,7.6015,7.5947,7.5404,7.5136,7.497,7.3856,7.2613,7.1267,7.0358,6.9486,6.8825,0.0,0.0,0.0,0.0,0.0,0.0,0.0,0.0,0.0,0.0,0.0,0.0,0.0,0.0,0.0,0.0,0.0,0.0,5.9609,6.043,6.0898,6.0898,6.0586,5.9883,5.8711,5.9805,6.0,5.9219,6.0898,6.1719,6.1719,6.1719,6.1678,6.1632,6.1632,6.1568,6.1409,6.1325,6.1191,6.1006,6.1095,6.1087,0.0,0.0,0.0,0.0,0.0,0.0,0.0,0.0,6.0787,6.0787,6.0787,6.0787,6.0787,6.0787,6.0787,6.0864,6.121,6.2281,6.3506,6.4397,6.4859,6.5667,6.7891,6.8314,6.859,6.9706,6.9552,6.9321,6.9629,7.1052,7.2367,7.2937,7.3699,7.4546,7.5399,7.5515,7.563,7.5976,7.6015,7.6015,7.6015,7.6015,7.6015,7.6015,7.6015,7.6015,7.6015,7.6015,7.6015,7.6015,7.6015,7.6015,7.6015,7.6015,7.6015,7.6015,7.6015,7.6015,7.6015,7.6015,7.6015,7.6015,7.6015,7.5795,7.543,7.5172,7.4692,7.3966,7.3159,7.2199,7.127,7.094,7.0022,6.8885,0.0,0.0,0.0,0.0,0.0,0.0,0.0,0.0,0.0,0.0,0.0,0.0,0.0,0.0,0.0,0.0,0.0,0.0,5.875,5.957,6.0117,6.039,6.0156,5.9883,5.9609,5.9883,5.9883,5.957,6.1015,6.1719,6.1719,6.1719,6.1719,6.1719,6.1719,6.1637,6.1573,6.1514,6.1387,6.1165,6.1262,6.1253,0.0,0.0,0.0,0.0,0.0,0.0,0.0,0.0,6.0787,6.0787,6.0787,6.0787,6.0787,6.0787,6.0979,6.121,6.121,6.205,6.3128,6.3968,6.4397,6.5205,6.7475,6.8436,6.9244,7.0629,7.0475,7.009,7.009,7.1014,7.2052,7.2937,7.3776,7.4623,7.5476,7.5822,7.6015,7.6015,7.6015,7.6015,7.6015,7.5745,7.5707,7.5976,7.5745,7.5707,7.5976,7.6015,7.6015,7.6015,7.6015,7.6015,7.6015,7.6015,7.6015,7.6015,7.6015,7.6015,7.6015,7.6015,7.591,7.571,7.571,7.5387,7.4809,7.4652,7.4,7.3066,7.2658,7.2151,7.1674,7.1674,7.083,6.9655,0.0,0.0,0.0,0.0,0.0,0.0,0.0,0.0,0.0,0.0,0.0,0.0,0.0,0.0,0.0,0.0,0.0,0.0,5.789,5.8711,5.9531,6.0351,5.9648,5.9609,6.039,5.9648,5.9609,6.039,6.1289,6.1719,6.1719,6.1719,6.1719,6.1719,6.1719,6.1719,6.1679,6.1572,6.1504,6.1496,6.1347,6.1371,6.1493,0.0,0.0,0.0,0.0,0.0,0.0,0.0,6.0787,6.0787,6.0787,6.0825,6.0825,6.0787,6.1402,6.2095,6.2095,6.2095,6.2287,6.3121,6.3968,6.5051,6.675,6.7135,6.7866,7.0398,7.0898,7.0898,7.0898,7.0898,7.1206,7.2059,7.2937,7.3776,7.4584,7.5438,7.6015,7.6015,7.6015,7.6015,7.6015,7.5207,7.5084,7.5938,7.5207,7.5091,7.5938,7.6015,7.6015,7.6015,7.6015,7.6015,7.6015,7.6015,7.6015,7.6015,7.6015,7.6015,7.6015,7.6015,7.5678,7.51,7.51,7.4808,7.4239,7.3626,7.305,7.2496,7.2496,7.2496,7.2496,7.2496,7.1967,7.1307,0.0,0.0,0.0,0.0,0.0,0.0,0.0,0.0,0.0,0.0,0.0,0.0,0.0,0.0,0.0,0.0,0.0,0.0,5.7851,5.8125,5.8906,6.0351,6.0156,6.043,6.1289,6.1094,6.0781,6.039,6.1289,6.1719,6.1719,6.1719,6.1719,6.1719,6.1719,6.1719,6.1719,6.1677,6.1582,6.1501,6.1474,6.1396,6.1347,0.0,0.0,0.0,0.0,0.0,0.0,0.0,0.0,0.0,6.0787,6.121,6.1595,6.0979,6.1402,6.1979,6.1364,6.1633,6.2441,6.3858,6.4859,6.609,6.8398,6.936,7.0167,7.1521,7.1828,7.1636,7.1014,7.1398,7.1905,7.2175,7.3399,7.443,7.4661,7.5438,7.6015,7.6015,7.6015,7.6015,7.6015,7.5784,7.5707,7.5976,7.5745,7.5745,7.5976,7.6015,7.6015,7.6015,7.6015,7.6015,7.6015,7.6015,7.6015,7.6015,7.6015,7.6015,7.6015,7.6015,7.5678,7.51,7.51,7.4561,7.3602,7.3024,7.2658,7.2496,7.2496,7.2496,7.2496,7.2496,7.1967,7.1307,0.0,0.0,0.0,0.0,0.0,0.0,0.0,0.0,0.0,0.0,5.6601,5.6797,0.0,0.0,0.0,5.7344,5.6914,0.0,5.7344,5.7383,5.8125,5.9844,5.9922,6.0312,6.1172,6.1523,6.1289,6.039,6.1289,6.1719,6.1719,6.1719,6.1719,6.1719,6.1719,6.1719,6.1719,6.1719,6.1637,6.1579,6.1515,6.1432,6.1359,0.0,0.0,0.0,0.0,0.0,0.0,0.0,0.0,0.0,6.0787,6.1172,6.1556,6.1364,6.1903,6.2551,6.2358,6.2941,6.3942,6.5243,6.6244,6.7475,6.9667,7.0552,7.1052,7.1598,7.1668,7.1514,7.1014,7.1321,7.179,7.2136,7.336,7.4315,7.4661,7.5438,7.6015,7.6015,7.6015,7.6015,7.6015,7.5707,7.563,7.5976,7.5668,7.563,7.5976,7.6015,7.6015,7.6015,7.6015,7.6015,7.6015,7.6015,7.6015,7.6015,7.6015,7.5856,7.5624,7.5624,7.5344,7.4779,7.4299,7.3661,7.3024,7.2644,7.2496,7.2496,7.2496,7.2496,7.2496,7.2496,7.2188,7.1784,0.0,0.0,5.0859,5.2539,0.0,0.0,0.0,0.0,0.0,5.6484,5.6601,5.6601,0.0,0.0,0.0,5.6601,5.6601,5.6601,5.6601,5.6601,5.7383,5.9101,5.9336,5.9765,6.0508,6.1289,6.1328,6.0508,6.1328,6.1719,6.1719,6.1719,6.1719,6.1719,6.1719,6.1719,6.1719,6.1719,6.1719,6.1679,6.1525,6.1491,6.1434,6.1097,0.0,0.0,0.0,0.0,0.0,0.0,0.0,0.0,6.0787,6.0864,6.1056,6.1787,6.2589,6.3468,6.4282,6.5128,6.6019,6.6981,6.7936,6.9045,7.0552,7.0898,7.0898,7.0898,7.0898,7.0898,7.0898,7.1014,7.136,7.2098,7.3053,7.3969,7.4623,7.5438,7.6015,7.6015,7.6015,7.6015,7.6015,7.5284,7.5168,7.5938,7.5284,7.5168,7.5976,7.6015,7.6015,7.6015,7.6015,7.6015,7.6015,7.6015,7.6015,7.6015,7.5939,7.5616,7.51,7.51,7.4799,7.415,7.2997,7.2496,7.2496,7.2496,7.2496,7.2496,7.2496,7.2496,7.2496,7.2496,7.2496,7.2496,0.0,0.0,5.168,5.3437,0.0,0.0,0.0,0.0,5.5625,5.6484,5.6601,5.6601,5.6601,5.6601,0.0,5.6601,5.6601,5.6601,5.6601,5.6601,5.7383,5.9101,6.0469,6.125,6.1406,6.1601,6.1601,6.1406,6.1601,6.1719,6.1719,6.1719,6.1719,6.1719,6.1719,6.1719,6.1719,6.1719,6.1719,6.1679,6.1422,6.1334,6.1304,6.0974,6.0845,0.0,0.0,0.0,0.0,0.0,0.0,0.0,6.0787,6.1287,6.171,6.1248,6.2127,6.3352,6.3545,6.4205,6.5397,6.7583,6.9244,7.0475,7.0821,7.0898,7.0898,7.0898,7.0898,7.0898,7.0898,7.2007,7.2783,7.229,7.4053,7.5284,7.4776,7.5438,7.6015,7.6015,7.6015,7.6015,7.6015,7.5822,7.5784,7.5976,7.5822,7.5784,7.5976,7.6015,7.6015,7.6015,7.6015,7.6015,7.6015,7.6015,7.6015,7.5976,7.5535,7.5236,7.51,7.51,7.4561,7.3529,7.2816,7.2496,7.2496,7.2496,7.2496,7.2496,7.2496,7.2496,7.2496,7.2496,7.2496,7.2496,0.0,0.0,0.0,0.0,0.0,0.0,0.0,0.0,5.6094,5.6523,5.625,5.5976,5.5976,5.5625,0.0,0.0,5.5742,5.5976,5.5976,5.6367,5.7383,5.9101,6.082,6.1719,6.1719,6.1719,6.1719,6.1719,6.1719,6.1719,6.1719,6.1719,6.1719,6.1719,6.1719,6.1719,6.1719,6.1719,6.1677,6.1582,6.1373,6.124,6.1132,6.0876,6.0787,6.0787,6.0787,0.0,0.0,0.0,0.0,0.0,0.0,0.0,6.1479,6.1441,6.2056,6.2897,6.3698,6.4859,6.6397,6.8975,7.0244,7.0898,7.0898,7.0898,7.0898,7.0898,7.1245,7.1514,7.1514,7.2629,7.3469,7.3399,7.4514,7.5361,7.5322,7.5707,7.6015,7.6015,7.6015,7.6015,7.6015,7.6015,7.6015,7.6015,7.6015,7.6015,7.6015,7.6015,7.6015,7.6015,7.6015,7.6015,7.6015,7.6015,7.6015,7.5969,7.5404,7.4809,7.4309,7.4309,7.3804,7.2957,7.263,7.2496,7.2496,7.2496,7.2496,7.2496,7.2496,7.2496,7.2496,7.2496,7.2496,7.2496,0.0,0.0,0.0,0.0,0.0,0.0,0.0,0.0,0.0,5.6562,5.5859,5.5312,5.5312,5.4531,5.3984,0.0,0.0,0.0,5.5312,5.625,5.7539,5.914,6.0664,6.1562,6.1719,6.1719,6.1719,6.1719,6.1719,6.1797,6.1914,6.1758,6.1719,6.1719,6.1719,6.1719,6.1719,6.1679,6.1587,6.1495,6.132,6.1158,6.0975,6.0861,6.0787,6.0787,6.0787,6.0787,6.0787,6.0787,0.0,0.0,0.0,0.0,6.0941,6.1672,6.1979,6.2441,6.3974,6.582,6.7859,7.0129,7.0783,7.0898,7.0898,7.0898,7.0898,7.0898,7.1591,7.2213,7.2213,7.3014,7.393,7.4584,7.4815,7.5168,7.5899,7.6015,7.6015,7.6015,7.6015,7.6015,7.6015,7.6015,7.6015,7.6015,7.6015,7.6015,7.6015,7.6015,7.6015,7.6015,7.6015,7.6015,7.6015,7.6015,7.5939,7.5833,7.5118,7.4277,7.3225,7.3225,7.297,7.2496,7.2496,7.2496,7.2496,7.2496,7.2496,7.2496,7.2496,7.2496,7.2496,7.2496,7.2496,7.2496,0.0,0.0,0.0,0.0,0.0,0.0,0.0,0.0,0.0,0.0,5.5859,5.5312,5.5312,5.4531,5.3984,5.3984,5.4805,5.5312,5.5312,0.0,0.0,5.914,6.0078,6.0937,6.168,6.1719,6.1719,6.1719,6.1719,6.2109,6.2812,6.2031,6.1719,6.1719,6.1719,6.1719,6.1679,6.1579,6.1512,6.1451,6.1158,6.1027,6.0975,6.0861,6.0787,6.0787,6.0787,6.0787,6.0787,6.0787,6.0787,0.0,0.0,0.0,6.0825,6.0941,6.1518,6.2287,6.3198,6.5814,6.8468,6.959,7.0398,7.0898,7.0898,7.0898,7.0898,7.0898,7.1591,7.2213,7.2213,7.3476,7.4584,7.4661,7.5322,7.5861,7.5976,7.6015,7.6015,7.6015,7.6015,7.6015,7.6015,7.6015,7.6015,7.6015,7.6015,7.6015,7.6015,7.6015,7.6015,7.6015,7.6015,7.6015,7.6015,7.6015,7.5725,7.5227,7.4146,7.3264,7.2616,7.2616,7.2596,7.2496,7.2496,7.2496,7.2496,7.2496,7.2496,7.2496,7.2496,7.2496,7.2496,7.2496,7.2496,7.2496,0.0,0.0,0.0,0.0,0.0,0.0,0.0,0.0,0.0,0.0,0.0,5.5117,5.4609,5.3789,5.3086,5.2578,5.3359,5.4258,5.5234,5.6484,5.7578,5.8437,5.9726,6.0351,6.0312,6.0742,6.0976,6.0976,6.0508,6.1211,6.2969,6.2109,6.2226,6.3125,6.2656,6.238,6.2285,6.1713,6.1402,6.1211,6.1042,6.0959,6.0887,6.0833,6.0787,6.0787,6.0787,6.0787,6.0787,6.0787,6.0787,6.0787,6.0787,0.0,0.0,0.0,6.1056,6.1749,6.3551,6.5474,6.7436,6.9244,6.9975,7.036,7.0783,7.0898,7.0898,7.0898,7.1975,7.2937,7.2937,7.4284,7.5438,7.5438,7.6169,7.6746,7.6746,7.6746,7.6746,7.6746,7.6284,7.6015,7.6015,7.6015,7.6015,7.6015,7.6015,7.6015,7.6015,7.6015,7.6015,7.6015,7.6015,7.6015,7.6015,7.5678,7.5036,7.4157,7.3651,7.3066,7.2496,7.2496,7.2496,7.2496,7.2496,7.2496,7.2496,7.2496,7.2496,7.2496,7.2496,7.2496,7.2496,7.2496,7.2496,7.2496,0.0,0.0,0.0,0.0,0.0,0.0,0.0,0.0,0.0,0.0,0.0,5.4805,5.4375,0.0,0.0,0.0,5.2305,5.3359,5.4883,5.5781,5.664,5.7539,5.918,5.9805,5.9219,6.0,6.0312,6.0117,5.9687,6.0703,6.3008,6.2578,6.3241,6.4839,6.3512,6.2874,6.275,6.1766,6.1346,6.1302,6.105,6.0902,6.0787,6.0787,6.0787,6.0787,6.0787,6.0787,6.0787,6.0787,6.0787,6.0787,6.0787,6.0787,0.0,0.0,0.0,6.1248,6.3397,6.4743,6.6128,6.8475,6.936,6.9898,7.0706,7.0898,7.0898,7.0898,7.2276,7.3507,7.3507,7.4861,7.6053,7.6284,7.6868,7.7369,7.7599,7.7599,7.7599,7.7599,7.6861,7.6322,7.6322,7.6322,7.6245,7.6015,7.6207,7.6245,7.6015,7.6015,7.6015,7.6015,7.6015,7.6015,7.6015,7.5254,7.4405,7.3404,7.3225,7.293,7.2496,7.2496,7.2496,7.2496,7.2496,7.2496,7.2496,7.2496,7.2496,7.2496,7.2496,7.2496,7.2496,7.2496,7.2496,7.2496,0.0,0.0,0.0,0.0,0.0,0.0,0.0,0.0,0.0,0.0,0.0,5.4375,5.5156,5.3711,5.2695,5.2656,5.2656,5.3086,5.4023,5.4883,0.0,0.0,5.832,0.0,5.9219,6.0,6.0039,5.9258,5.9961,6.125,6.3008,6.3789,6.4992,6.6388,6.3892,6.2795,6.2735,6.1546,6.1484,6.2166,6.1191,6.0798,6.0787,6.0787,6.0787,6.0787,6.0787,6.0787,6.0787,6.0787,6.0787,6.0787,6.0787,6.0787,6.0787,0.0,0.0,0.0,6.1979,6.3403,6.5089,6.6827,6.8475,6.9898,7.0706,7.0898,7.0898,7.0898,7.2276,7.3507,7.3507,7.4861,7.6284,7.7099,7.7292,7.7561,7.833,7.8446,7.8446,7.8446,7.7715,7.7215,7.7215,7.7215,7.6899,7.6053,7.6784,7.6868,7.6053,7.6015,7.6015,7.6015,7.6015,7.6015,7.6015,7.4914,7.4026,7.3391,7.2816,7.2524,7.2496,7.2496,7.2496,7.2496,7.2496,7.2496,7.2496,7.2496,7.2496,7.2496,7.2496,7.2496,7.2496,7.2496,7.2496,7.2496,0.0,0.0,0.0,0.0,0.0,0.0,0.0,0.0,0.0,0.0,0.0,0.0,0.0,5.4726,5.4141,5.3594,5.3516,5.3906,5.4765,5.5117,0.0,0.0,5.8281,5.8945,5.8398,5.9219,5.9492,5.9219,5.8359,5.9414,6.2148,6.1914,6.2648,6.4159,6.3809,6.3503,6.3228,6.165,6.1138,6.1318,6.0943,6.0787,6.0787,6.0787,6.0787,6.0787,6.0787,6.0787,6.0787,6.0787,6.0787,6.0787,6.0787,6.0787,6.0787,6.0787,6.0787,6.0979,6.1864,6.2557,6.3518,6.5788,6.6782,6.7628,6.8975,6.9744,7.0129,7.0129,7.193,7.3507,7.3507,7.4861,7.6092,7.6399,7.7369,7.8176,7.8446,7.8977,7.9323,7.9323,7.8592,7.7869,7.7369,7.7292,7.6945,7.6053,7.683,7.7176,7.6861,7.6823,7.6823,7.6823,7.6284,7.5646,7.4924,7.4495,7.3794,7.2816,7.2588,7.2496,7.2496,7.2496,7.2496,7.2496,7.2496,7.2496,7.2496,7.2496,7.2496,7.2496,7.2496,7.2496,7.2496,7.2496,7.2496,7.2496,0.0,0.0,0.0,5.9258,0.0,5.7578,5.7851,5.7148,5.6601,5.6601,0.0,0.0,0.0,0.0,5.5273,5.4101,5.3984,5.4258,5.4844,5.539,0.0,0.0,5.8515,5.9219,5.8359,5.8906,5.9062,5.875,5.789,5.8789,6.125,6.1289,6.1939,6.3136,6.345,6.3447,6.3084,6.1573,6.1041,6.121,6.0941,6.0787,6.0787,6.0787,6.0787,6.0787,6.0787,6.0787,6.0787,6.0787,6.0787,6.0787,6.0787,6.0787,6.0787,6.0787,6.0787,6.0941,6.1518,6.1864,6.2633,6.4897,6.5474,6.5974,6.793,6.8853,6.9353,6.9629,7.1475,7.3161,7.343,7.463,7.5745,7.6322,7.7599,7.86,7.8907,7.9708,8.0246,8.0246,7.9477,7.8746,7.8207,7.813,7.7669,7.6515,7.7215,7.7445,7.6899,7.6868,7.6868,7.6868,7.6284,7.5526,7.4588,7.439,7.3782,7.2803,7.261,7.2496,7.2496,7.2496,7.2496,7.2496,7.2496,7.2496,7.2496,7.2496,7.2496,7.2496,7.2496,7.2496,7.2496,7.2496,7.2496,7.2496,6.043,6.043,6.0156,5.9414,5.9219,5.8906,5.8086,5.7226,5.668,5.668,0.0,0.0,0.0,0.0,0.0,5.4297,5.4141,5.4141,5.4141,5.5742,5.668,5.668,5.9062,6.0039,5.9258,5.9258,5.8828,5.7969,5.8789,5.9609,6.043,6.2148,6.3211,6.3708,6.2891,6.244,6.2209,6.118,6.1248,6.1979,6.1095,6.0787,6.0787,6.0787,6.0787,6.0787,6.0825,6.0825,6.0825,6.0825,6.0825,6.0819,6.0825,6.0787,6.0787,6.0787,6.0787,6.0787,0.0,0.0,0.0,6.4128,6.4551,6.5205,6.7699,6.8314,6.8584,6.9475,7.0975,7.2437,7.3315,7.4161,7.5245,7.6984,7.7946,7.8792,7.9631,8.0516,8.1093,8.1093,8.0362,7.9815,7.9815,7.9815,7.9131,7.7445,7.8061,7.7792,7.6169,7.6053,7.6015,7.6015,7.6015,7.5702,7.5082,7.4568,7.3992,7.3366,7.2775,7.2496,7.2496,7.2496,7.2496,7.2496,7.2496,7.2496,7.2496,7.2496,7.2496,7.2496,7.2496,7.2496,7.2496,7.2496,7.2496,7.2496,6.1211,6.082,6.0547,6.0937,6.0,5.9297,5.9648,5.9023,5.8476,0.0,0.0,0.0,5.8476,5.8476,5.8281,5.7812,5.7773,5.7773,5.7773,5.8203,5.8476,5.8476,5.9726,6.0312,6.0078,6.0078,5.9961,5.9726,5.9375,5.9609,6.039,6.0898,6.1472,6.2124,6.1804,6.1543,6.1289,6.0294,6.0358,6.1095,6.0204,6.0242,6.0787,6.0787,6.0787,6.0864,6.1518,6.1749,6.1749,6.1749,6.1749,6.1633,6.1018,6.0787,6.0787,6.0787,6.0787,6.0787,6.0787,0.0,0.0,0.0,0.0,0.0,6.5205,6.6128,6.7013,6.8468,7.009,7.1706,7.3238,7.4161,7.5046,7.6169,7.7561,7.86,7.8823,8.0131,8.1093,8.1093,8.09,8.0477,7.9854,7.9815,7.9361,7.8253,7.8369,7.8292,7.783,7.7253,7.663,7.6015,7.6015,7.5518,7.4537,7.4379,7.377,7.2733,7.2596,7.2496,7.2496,7.2496,7.2496,7.2496,7.2496,7.2496,7.2496,7.2496,7.2496,7.2496,7.2496,7.2496,7.2496,7.2496,7.2496,7.2496,6.1523,6.1289,6.1094,6.1601,6.0898,6.0273,6.039,6.0,5.957,0.0,0.0,0.0,5.9687,5.9414,5.9219,5.9219,5.9219,5.9219,5.9219,5.9492,5.9687,5.9687,6.0508,6.0937,6.0937,6.0586,6.039,6.039,5.9922,5.9922,6.039,6.0781,6.1117,6.1402,6.1326,6.1147,6.0833,5.9546,5.9704,6.0748,6.0242,6.0556,6.1287,6.0941,6.1243,6.1858,6.2056,6.2326,6.2589,6.2589,6.2364,6.1941,6.1056,6.0787,6.0787,6.0787,6.0787,6.0787,6.0787,6.0787,6.1018,6.1864,0.0,0.0,6.4128,6.4974,6.582,6.7513,6.9206,7.0821,7.2161,7.3392,7.4469,7.5322,7.7169,7.8484,7.8484,8.0015,8.1093,8.1093,8.1093,8.09,8.04,8.0323,7.9977,7.9092,7.8715,7.8176,7.7484,7.7015,7.6515,7.6015,7.6015,7.5551,7.466,7.4411,7.3818,7.2848,7.2616,7.2496,7.2496,7.2496,7.2496,7.2496,7.2496,7.2496,7.2496,7.2496,7.2496,7.2496,7.2496,7.2496,7.2496,7.2496,7.2496,7.2496,0.0,6.1719,6.1719,6.1719,6.1719,6.1445,6.0664,6.0547,6.0273,0.0,6.0195,6.0703,6.0703,6.0039,5.957,5.9492,5.9492,5.9492,5.9492,6.0156,6.0547,6.0547,6.1289,6.1719,6.1719,6.0937,6.0547,6.0547,6.0547,6.0547,6.0547,6.1328,6.1575,6.1312,6.1295,6.1054,6.0602,5.9182,5.9396,6.0666,6.0556,6.1095,6.1864,6.1095,6.1781,6.3083,6.248,6.2743,6.3429,6.3314,6.2781,6.1941,6.1056,6.0787,6.0787,6.0787,6.0787,6.0787,6.0787,6.0787,6.0979,6.1749,6.1441,0.0,6.3935,6.4551,6.5089,6.675,6.8321,6.9706,7.0706,7.2168,7.3507,7.443,7.663,7.8292,7.8484,8.0015,8.1093,8.1093,8.1093,8.1093,8.1093,8.1093,8.0785,8.0008,7.9054,7.783,7.6245,7.6053,7.6015,7.6015,7.6015,7.5686,7.5027,7.4547,7.3957,7.3277,7.2747,7.2496,7.2496,7.2496,7.2496,7.2496,7.2496,7.2496,7.2496,7.2496,7.2496,7.2496,7.2496,7.2496,7.2496,7.2496,7.2496,7.2496,6.168,6.1719,6.1719,6.1719,6.1719,6.164,6.1484,6.1445,6.1406,6.1211,6.1953,6.25,6.25,6.2344,6.1992,6.1289,6.1211,6.1211,6.1211,6.1367,6.1445,6.1445,6.1601,6.1719,6.1719,6.1523,6.1445,6.1445,6.1445,6.1445,6.1445,6.1601,6.1591,6.1474,6.1339,6.0826,5.9992,6.0234,6.0089,5.9704,5.905,5.9704,6.1056,6.0864,6.1441,6.2403,6.2897,6.3622,6.4243,6.3545,6.2781,6.1941,6.1056,6.0787,6.0787,6.0787,6.0787,6.0787,6.0787,6.0787,6.0825,6.1018,6.1441,0.0,6.3275,6.4089,6.5089,6.675,6.7366,6.8289,7.0475,7.1168,7.1937,7.3469,7.5284,7.6938,7.8292,8.0015,8.1093,8.1093,8.1093,8.1093,8.1093,8.1093,8.1016,8.0862,7.9408,7.8061,7.7099,7.6361,7.6015,7.6015,7.6015,7.5501,7.4474,7.4358,7.3735,7.2672,7.2567,7.2496,7.2496,7.2496,7.2496,7.2496,7.2496,7.2496,7.2496,7.2496,7.2496,7.2496,7.2496,7.2496,7.2496,7.2496,7.2496,7.2496,6.1719,6.1719,6.1719,6.1719,6.1719,6.1719,6.1719,6.1719,6.1875,6.2305,6.3125,6.3476,6.3047,6.3008,6.2812,6.2383,6.1953,6.1719,6.1719,6.1719,6.1719,6.1719,6.1719,6.1719,6.1719,6.1719,6.1719,6.1719,6.1719,6.1719,6.1719,6.1719,6.1633,6.1501,6.1415,6.1044,6.0377,5.9867,5.9842,6.0127,5.9704,6.0319,6.1402,6.0979,6.1589,6.2704,6.2704,6.3512,6.4397,6.3128,6.2704,6.2551,6.171,6.1441,6.1441,6.1441,6.1441,6.1364,6.0941,6.0787,6.0902,6.1325,6.1787,0.0,0.0,6.4282,6.4974,6.625,6.6827,6.7481,6.8783,7.0052,7.1206,7.2052,7.3976,7.5668,7.6476,7.8823,8.0631,8.1054,8.1093,8.1093,8.1093,8.1093,8.0939,8.0477,7.9246,7.8138,7.733,7.6476,7.6015,7.6015,7.6015,7.5459,7.4304,7.4293,7.3675,7.2496,7.2496,7.2496,7.2496,7.2496,7.2496,7.2496,7.2496,7.2496,7.2496,7.2496,7.2496,7.2496,7.2496,7.2496,7.2496,7.2496,7.2496,7.2496,6.1719,6.1719,6.1719,6.1719,6.1836,6.1953,6.1953,6.2109,6.25,6.3398,6.4258,6.4531,6.3828,6.375,6.375,6.375,6.2812,6.2187,6.2187,6.2031,6.1953,6.1953,6.1797,6.1797,6.1953,6.1797,6.1719,6.1719,6.1719,6.1719,6.1719,6.1719,6.1633,6.1504,6.1504,6.1245,6.072,5.9363,5.9525,6.0645,6.064,6.1037,6.1518,6.0825,6.1473,6.2775,6.2441,6.332,6.4359,6.2672,6.2627,6.3121,6.2172,6.1941,6.2095,6.2095,6.221,6.2172,6.1473,6.1281,6.1435,6.2172,6.2441,6.2941,0.0,0.0,0.0,6.5743,6.6404,6.6904,6.7058,6.8783,7.0283,7.0591,7.2514,7.4084,7.443,7.6969,7.92,8.0246,8.0362,8.0439,8.0592,8.0477,8.0285,8.0092,7.8784,7.7869,7.7561,7.6553,7.6015,7.6015,7.6015,7.5501,7.4474,7.4347,7.3735,7.2672,7.2567,7.2496,7.2496,7.2496,7.2496,7.2496,7.2496,7.2496,7.2496,7.2496,7.2496,7.2496,7.2496,7.2496,7.2496,7.2496,7.2496,7.2496,6.1719,6.1719,6.1719,6.1719,6.2344,6.2851,6.2851,6.3515,6.4336,6.5195,6.6055,6.6562,6.6484,6.6445,6.6445,6.6445,6.4961,6.3984,6.3984,6.3281,6.2851,6.2851,6.2109,6.207,6.2851,6.2109,6.1719,6.1719,6.1719,6.1719,6.1719,6.1719,6.1633,6.1504,6.1504,6.098,6.0107,5.9898,5.9927,6.0077,6.01,5.996,5.9781,5.9704,6.0242,6.1281,6.266,6.3775,6.4359,6.2672,6.2627,6.3006,6.1435,6.1479,6.2095,6.2095,6.2589,6.3121,6.3045,6.3006,6.3045,6.3121,6.3737,6.4359,6.4551,0.0,6.5788,6.5859,0.0,6.625,6.6981,0.0,0.0,6.959,7.0667,7.186,7.343,7.4584,7.5899,7.7561,7.7715,7.8023,7.8715,7.8138,7.8631,8.0785,7.8054,7.6899,7.8292,7.6861,7.6015,7.6015,7.6015,7.5686,7.5027,7.4547,7.3957,7.3277,7.2747,7.2496,7.2496,7.2496,7.2496,7.2496,7.2496,7.2496,7.2496,7.2496,7.2496,7.2496,7.2496,7.2496,7.2496,7.2496,7.2496,7.2496,6.1914,6.1719,6.1719,6.1719,6.1992,6.2422,6.293,6.4609,6.5742,6.5625,6.6797,6.7851,6.8359,6.75,6.7305,6.832,6.6797,6.5586,6.5078,6.4726,6.4297,6.3789,6.293,6.2617,6.3008,6.2148,6.1719,6.1719,6.1719,6.1719,6.1719,6.1719,6.1678,6.163,6.163,6.1331,6.0824,6.0315,6.0078,5.9963,5.9463,5.9147,5.9137,6.005,6.0552,6.0979,6.2166,6.3128,6.3737,6.3012,6.3006,6.3275,6.3089,6.2595,6.2172,6.2666,6.3051,6.3198,6.2743,6.2935,6.3429,6.3929,6.432,6.4743,6.5243,6.5628,6.5904,6.5904,0.0,0.0,0.0,0.0,0.0,0.0,7.0052,7.1168,7.1898,7.2283,7.3514,7.6207,7.6553,7.6861,7.7715,7.7061,7.74,7.9446,7.7361,7.6515,7.7753,7.6669,7.6015,7.6015,7.6015,7.571,7.5109,7.4578,7.3992,7.3391,7.2789,7.2496,7.2496,7.2496,7.2496,7.2496,7.2496,7.2496,7.2496,7.2496,7.2496,7.2496,7.2496,7.2496,7.2496,7.2496,7.2496,7.2496,6.2656,6.2226,6.2148,6.2383,6.2422,6.2851,6.4219,6.6055,6.7109,6.6719,6.7969,6.9219,7.0078,6.9062,6.8906,7.039,6.8945,6.7461,6.6367,6.6094,6.5586,6.4687,6.3828,6.3359,6.3359,6.25,6.1953,6.1719,6.1719,6.1719,6.1719,6.1719,6.1719,6.1719,6.1719,6.1636,6.1493,6.0636,6.0333,6.0382,5.9537,5.944,5.9893,6.0682,6.1074,6.1287,6.2133,6.2974,6.3622,6.3391,6.3468,6.3737,6.4122,6.3551,6.2864,6.3198,6.3622,6.382,6.3018,6.3397,6.4128,6.4512,6.4782,6.5013,6.5166,6.5743,6.6173,6.5942,6.6282,0.0,0.0,0.0,6.8468,6.8737,0.0,7.0667,7.086,7.0898,7.1898,7.463,7.5361,7.5976,7.6868,7.5976,7.6092,7.8023,7.6399,7.5899,7.7215,7.6476,7.6015,7.6015,7.6015,7.571,7.5109,7.4578,7.3992,7.3391,7.2789,7.2496,7.2496,7.2496,7.2496,7.2496,7.2496,7.2496,7.2496,7.2496,7.2496,7.2496,7.2496,7.2496,7.2496,7.2496,7.2496,7.2496,6.4219,6.3555,6.3203,6.4062,6.4219,6.5078,6.7656,6.8086,6.8437,6.9258,7.0117,7.0937,7.1836,7.1875,7.2187,7.3086,7.1562,6.9883,6.8203,6.7344,6.6484,6.5586,6.4726,6.4258,6.4258,6.3398,6.2539,6.1719,6.1719,6.1719,6.1719,6.1719,6.1719,6.1719,6.1719,6.1719,6.164,6.0742,6.0898,6.1562,6.0703,6.1277,6.2537,6.1437,6.1422,6.2172,6.2974,6.3814,6.4436,6.3583,6.3852,6.4436,6.3583,6.3891,6.4359,6.3545,6.4474,6.5628,6.4743,6.5166,6.5628,6.4782,6.5243,6.5436,6.3775,6.5282,6.6827,6.6051,6.7205,6.8314,6.8314,6.8353,6.866,6.9513,6.9706,0.0,0.0,7.0898,7.1245,7.2213,7.3745,7.5084,7.5976,7.4546,7.463,7.7138,7.5014,7.4668,7.7176,7.6476,7.6015,7.6015,7.6015,7.571,7.5109,7.4578,7.3992,7.3391,7.2789,7.2496,7.2496,7.2496,7.2496,7.2496,7.2496,7.2496,7.2496,7.2496,7.2496,7.2496,7.2496,7.2496,7.2496,7.2496,7.2496,7.2496,6.6015,6.5312,6.4648,6.4336,6.4297,6.5,6.7031,6.8281,6.9492,7.0976,7.1406,7.2344,7.4375,7.3555,7.3437,7.4883,7.3437,7.1953,7.0781,6.9883,6.9023,6.8164,6.6758,6.6015,6.6015,6.4023,6.2851,6.2578,6.1992,6.1719,6.1719,6.1719,6.1719,6.1719,6.1719,6.1719,6.1719,6.1992,6.1601,6.0859,6.1133,6.2217,6.3525,6.2465,6.2535,6.3312,6.4034,6.4466,6.4749,6.4971,6.482,6.4666,6.4936,6.4436,6.3814,6.4083,6.4589,6.4974,6.4666,6.5243,6.582,6.5513,6.5243,6.4897,6.4282,6.5282,6.625,6.5981,6.7244,6.8391,6.8391,6.8853,6.9353,6.9667,7.0167,7.0398,0.0,7.0129,7.0629,7.2021,7.2206,7.2514,7.3406,7.2437,7.2822,7.5399,7.3745,7.3745,7.6284,7.563,7.5399,7.5976,7.6015,7.571,7.5109,7.4578,7.3992,7.3391,7.2789,7.2496,7.2496,7.2496,7.2496,7.2496,7.2496,7.2496,7.2496,7.2496,7.2496,7.2496,7.2496,7.2496,7.2496,7.2496,7.2826,7.3377,6.7422,6.7148,6.6601,6.543,6.5469,6.6172,6.7578,6.9219,7.0859,7.2265,7.2734,7.3672,7.5664,7.4883,7.4687,7.5781,7.4883,7.3594,7.2109,7.1758,7.0976,6.9453,6.8672,6.7812,6.6914,6.5234,6.4062,6.3476,6.2578,6.2148,6.2148,6.1836,6.1719,6.1719,6.1719,6.1875,6.2187,6.2773,6.2539,6.1836,6.2383,6.3434,6.4543,6.3912,6.3918,6.436,6.5087,6.5334,6.5311,6.5826,6.5572,6.5166,6.5705,6.5128,6.4282,6.4551,6.482,6.4974,6.4666,6.5243,6.5904,6.5904,6.5705,6.532,6.4743,6.5743,6.6705,6.6397,6.7667,6.893,6.9237,6.9744,7.0129,7.0129,7.0552,7.0706,0.0,6.9898,7.0206,7.1598,7.1521,7.1591,7.2136,7.1675,7.2052,7.3707,7.2822,7.306,7.5014,7.4853,7.4969,7.5515,7.5822,7.571,7.5109,7.4578,7.3992,7.3391,7.2789,7.2496,7.2496,7.2496,7.2496,7.2496,7.2496,7.2496,7.2496,7.2496,7.2496,7.2496,7.2496,7.2496,7.2496,7.2496,7.2826,7.334,6.8398,6.8945,6.9023,6.7383,6.7695,6.8476,6.9336,7.0898,7.2344,7.3281,7.4219,7.5117,7.5976,7.6094,7.6055,7.6015,7.5976,7.4883,7.2344,7.293,7.2265,6.9765,7.039,6.9687,6.7226,6.7031,6.6133,6.4414,6.3515,6.3047,6.2969,6.2148,6.1758,6.1719,6.1719,6.2187,6.3008,6.3047,6.3594,6.4414,6.4375,6.4883,6.5664,6.5664,6.5509,6.5366,6.6133,6.6287,6.6108,6.6133,6.6024,6.5923,6.5923,6.5916,6.575,6.4897,6.5243,6.575,6.4936,6.532,6.5981,6.6019,6.6558,6.6673,6.5089,6.6622,6.816,6.7327,6.8552,6.9975,7.0706,7.0821,7.0821,7.0783,7.0744,7.0744,7.0783,7.009,6.986,7.0667,7.1514,7.2059,7.2136,7.2098,7.2098,7.2175,7.2136,7.2476,7.343,7.4238,7.4661,7.47,7.5553,7.571,7.5109,7.4578,7.3992,7.3391,7.2789,7.2496,7.2496,7.2496,7.2496,7.2496,7.2496,7.2496,7.2496,7.2496,7.2496,7.2496,7.2496,7.2496,7.2496,7.2532,7.2569,7.2569,6.9219,6.9844,7.0234,6.9805,6.8867,6.8672,7.0156,7.1289,7.2773,7.4961,7.6562,7.7812,7.8633,7.8711,7.8476,7.789,7.7226,7.6328,7.5,7.4492,7.3984,7.3281,7.2851,7.2031,7.0703,6.8828,6.7344,6.6211,6.4726,6.3633,6.3008,6.2773,6.2305,6.1719,6.1719,6.2187,6.3047,6.3672,6.4844,6.6172,6.5547,6.5781,6.6562,6.6562,6.6911,6.7324,6.6764,6.6523,6.6442,6.6364,6.6217,6.6049,6.6049,6.5974,6.5865,6.5628,6.5705,6.5981,6.6365,6.6635,6.6942,6.759,6.7436,6.6981,6.6558,6.7475,6.8353,6.8122,6.9398,7.0475,7.009,7.0014,6.9821,6.9161,6.8513,6.8282,6.893,6.8321,6.809,6.893,6.9237,6.986,7.1091,7.0706,7.086,7.2098,7.1052,7.1283,7.3392,7.3699,7.4084,7.4661,7.5553,7.571,7.5109,7.4578,7.3992,7.3391,7.2789,7.2496,7.2496,7.2496,7.2496,7.2496,7.2496,7.2496,7.2496,7.2496,7.2496,7.2496,7.2496,7.2496,7.2569,7.3156,7.3377,7.3487,7.1172,7.1836,7.2383,7.2383,7.1953,7.1758,7.2305,7.25,7.3359,7.5625,7.7109,7.8086,7.8555,7.9258,7.9531,7.9062,7.8594,7.7773,7.6562,7.6367,7.5781,7.4648,7.4492,7.3867,7.2617,7.0781,6.9258,6.8008,6.5898,6.4414,6.3555,6.2773,6.2187,6.1719,6.1719,6.2187,6.3086,6.4336,6.543,6.6328,6.6211,6.668,0.0,6.7461,6.8008,6.8672,6.8036,6.7543,6.7195,6.7528,6.7013,6.6286,6.6577,6.6363,6.5969,6.5903,6.6134,6.6519,6.6981,6.7366,6.7898,6.8744,6.859,6.8244,6.8244,6.8629,6.8968,6.8968,6.9436,6.9783,6.9706,6.9398,6.8968,6.8468,6.7667,6.7398,6.8276,6.7667,6.7552,6.8814,6.8622,6.9045,7.0744,7.0167,7.0244,7.1514,7.0744,7.086,7.2276,7.2706,7.3322,7.4161,7.4976,7.5318,7.5109,7.4578,7.3992,7.3391,7.2789,7.2496,7.2496,7.2496,7.2496,7.2496,7.2496,7.2496,7.2496,7.2496,7.2496,7.2496,7.2496,7.2936,7.356,7.367,7.3487,7.3303,7.3633,7.4336,7.4883,7.4805,7.5508,7.5898,7.5351,7.4531,7.457,7.6172,7.7265,7.7851,7.7851,7.918,8.0,7.9883,7.9883,7.9219,7.7617,7.8242,7.7617,7.5195,7.5859,7.543,7.3672,7.2656,7.1328,6.957,6.7148,6.539,6.4258,6.2734,6.1914,6.1719,6.1719,6.2265,6.3281,6.4922,6.5742,6.6015,6.6758,6.7578,6.8359,6.8359,6.8906,6.9648,6.9609,6.8937,6.8195,6.8977,6.8136,6.6866,6.7444,6.7088,6.6424,6.6293,6.6742,6.7346,6.7417,6.7975,6.8776,6.9629,6.986,6.986,6.986,6.986,6.9821,6.9706,6.9084,6.8737,6.9244,6.8667,6.8122,6.8199,6.7513,6.7244,6.8122,6.7475,6.7558,6.9167,6.8584,0.0,7.0552,7.0014,6.9898,7.0821,7.0783,7.0783,7.0898,7.1745,7.2552,7.3315,7.4123,7.4689,7.5045,7.4419,7.3959,7.3614,7.2871,7.2539,7.2602,7.2539,7.2496,7.2496,7.2496,7.2496,7.2496,7.2496,7.2496,7.2496,7.2606,7.3523,7.4683,7.4184,7.3523,7.2899,7.543,7.6133,7.6523,7.5781,7.6406,7.7383,7.8633,7.8125,7.793,7.8906,8.0429,8.1406,8.1406,8.1679,8.1562,8.0859,8.0781,8.0351,7.9336,7.9414,7.8984,7.7851,7.7969,7.7226,7.5469,7.3906,7.2226,7.0469,6.8633,6.6562,6.4297,6.3984,6.3086,6.1719,6.1719,6.2578,6.414,6.5156,6.6445,6.7773,6.789,6.8476,6.9219,6.9258,6.9765,7.0508,7.0469,6.9882,6.9178,6.9373,6.9117,6.8741,6.8841,6.8683,6.8384,6.8268,6.8305,6.8557,6.9091,6.936,6.9667,7.0475,7.0706,7.0706,7.0706,7.0706,7.0514,6.986,6.959,6.909,6.7789,6.6898,6.6551,6.7212,6.6635,6.6397,6.7212,6.6628,6.6481,6.7443,6.6821,6.7282,6.9667,6.9122,6.9276,7.0783,7.0283,7.0206,7.086,7.1745,7.229,7.2399,7.3238,7.4055,7.4758,7.3754,7.3745,7.478,7.3238,7.2747,7.3237,7.2742,7.2496,7.2496,7.2496,7.2496,7.2496,7.2496,7.2496,7.2569,7.323,7.367,7.4037,7.5249,7.5175,7.45,7.7851,7.8203,7.8359,7.793,7.8594,7.9453,8.0234,8.0429,8.0273,7.9765,8.0429,8.0937,8.0937,8.1758,8.2148,8.1719,8.1679,8.1289,8.0429,8.0351,8.0,7.914,7.9101,7.8515,7.7265,7.5976,7.4258,7.2031,6.9922,6.7773,6.5625,6.4258,6.3164,6.2383,6.2383,6.2851,6.375,6.5508,6.6758,6.7617,6.8515,6.9375,7.0078,7.0117,7.0625,7.1367,7.1367,7.1094,7.0742,7.0781,7.0114,6.9357,6.9757,6.952,6.9021,6.8854,6.9103,6.9515,6.9745,7.0118,7.0545,7.083,7.0898,7.0898,7.0898,7.0591,7.0167,6.9783,6.8975,6.809,6.725,6.6442,6.632,6.759,6.7051,6.6827,6.7667,6.7051,6.6821,6.7667,6.6667,6.6898,6.9436,6.8891,6.9084,7.0783,7.0552,7.0475,7.0898,7.1283,7.1745,7.2175,7.2591,7.3067,7.3619,7.3515,7.3637,7.3987,7.3305,7.3119,7.3379,7.2775,7.2496,7.2496,7.2496,7.2496,7.2532,7.2936,7.2899,7.2569,7.3377,7.3964,7.4404,7.5212,7.5234,7.494,7.9961,7.9961,7.9922,7.9726,8.0429,8.1015,8.1015,8.1758,8.1797,8.0429,8.0234,8.0234,8.0234,8.1484,8.2304,8.2304,8.2304,8.1992,8.1328,8.1289,8.0898,8.0,7.9961,7.9609,7.8789,7.7734,7.6015,7.3594,7.1211,6.8945,6.6875,6.4805,6.3633,6.3281,6.3281,6.3476,6.3945,6.6015,6.7226,6.7812,6.9219,7.0234,7.0976,7.0976,7.1406,7.1992,7.1992,7.1992,7.1992,7.1992,7.1094,7.0038,7.0641,7.0353,6.9754,6.9533,6.9994,7.046,7.0287,7.0719,7.1164,7.0998,7.0914,7.0898,7.0898,7.0283,6.9667,6.9475,6.8167,6.7096,6.7096,6.6744,6.6936,6.843,6.7936,6.7667,6.8545,6.7936,6.7705,6.8584,6.7359,6.7282,6.9475,6.909,6.9276,7.0783,7.0898,7.0975,7.1168,7.1014,7.1206,7.1905,7.1905,7.2209,7.2779,7.3334,7.3639,7.3634,7.3494,7.3479,7.359,7.2844,7.2496,7.2496,7.2496,7.2496,7.2569,7.3193,7.3156,7.2826,7.345,7.4294,7.516,7.516,7.527,7.5491,8.0898,8.0898,8.0625,7.9844,8.0429,8.1015,8.1015,8.1758,8.2226,8.207,8.207,8.207,8.207,8.2187,8.2304,8.2304,8.2304,8.2265,8.2187,8.2187,8.1797,8.0937,8.0898,8.0469,7.9609,7.8008,7.6328,7.4492,7.2656,7.0117,6.6875,6.664,6.5703,6.418,6.418,6.5078,6.6562,6.6797,6.8242,7.0351,7.0508,7.1094,7.1875,7.1875,7.1914,7.1992,7.1992,7.1992,7.1992,7.1992,7.1875,7.1758,7.1836,7.1796,7.1716,7.151,7.1484,7.1538,7.1391,7.1275,7.1211,7.1185,7.1014,7.0898,7.0898,7.0283,6.9475,6.866,6.7744,6.7096,6.7096,6.7667,6.8468,6.9436,6.8853,6.8584,6.9475,6.8814,6.8584,6.9475,6.8737,6.8584,6.959,6.9629,6.9937,7.0821,7.0898,7.1245,7.2059,7.1321,7.0937,7.1014,7.1014,7.1801,7.3418,7.2953,7.3747,7.5695,7.4141,7.3675,7.4172,7.3024,7.2496,7.2496,7.2496,7.2496,7.2496,7.2569,7.301,7.3597,7.3685,7.4625,7.5983,7.5983,7.6445,7.6995,8.3359,8.2929,8.2617,8.2773,8.2695,8.2734,8.3242,8.3633,8.3867,8.3867,8.2969,8.2304,8.2304,8.2304,8.2304,8.2304,8.2304,8.2304,8.2304,8.2304,8.2148,8.1797,8.1797,8.1367,8.0508,7.9805,7.8398,7.6172,7.4414,7.2344,6.9922,6.8398,6.7031,6.5898,6.6406,6.7305,6.8476,6.9531,7.0859,7.2305,7.2812,7.3242,7.3555,7.3555,7.3555,7.3555,7.3555,7.3555,7.3476,7.2969,7.2422,7.1992,7.1992,7.1992,7.1992,7.1907,7.1864,7.1855,7.1657,7.1544,7.1449,7.1262,7.1131,7.1032,7.0946,6.986,6.8814,6.8468,6.7705,6.725,6.7782,6.816,6.8853,7.0206,6.9706,6.9667,7.1014,7.0014,6.9475,7.0321,6.8744,6.7975,6.8853,6.893,6.9276,7.0129,7.0629,7.1283,7.2136,7.136,7.0898,7.0898,7.0898,7.1475,7.2706,7.3008,7.3852,7.5192,7.4333,7.4072,7.4249,7.3064,7.2496,7.2496,7.2496,7.2496,7.2532,7.301,7.3413,7.3758,7.4221,7.4808,7.538,7.538,7.5285,7.5102,8.4883,8.4414,8.4179,8.4804,8.4375,8.4179,8.4804,8.4883,8.4883,8.4883,8.3828,8.2969,8.2695,8.2695,8.2578,8.2304,8.2304,8.2304,8.2304,8.2304,8.2304,8.2304,8.2304,8.1992,8.1406,8.1133,8.0,7.793,7.6211,7.4453,7.2695,7.039,6.8984,6.8437,6.9023,6.9765,7.0625,7.1875,7.289,7.375,7.4336,7.4609,7.4609,7.4609,7.4609,7.4609,7.4609,7.4609,7.4492,7.3906,7.3281,7.2734,7.2461,7.2383,7.2422,7.2695,7.2578,7.2421,7.2517,7.2334,7.2047,7.1788,7.145,7.1164,7.1029,6.9855,6.8699,6.8468,6.8129,6.8052,6.866,6.8968,6.9507,7.0706,7.0437,7.0552,7.2021,7.0975,7.0244,7.0821,6.909,6.7898,6.8013,6.8237,6.8776,6.9629,7.0244,7.0821,7.1437,7.1091,7.0783,7.0552,7.1014,7.1706,7.2552,7.343,7.4276,7.5084,7.4704,7.4464,7.4249,7.3064,7.2496,7.2496,7.2496,7.2496,7.2532,7.312,7.3487,7.3758,7.4331,7.4683,7.4903,7.4903,7.4551,7.4001,8.4883,8.4883,8.4883,8.4883,8.4883,8.4883,8.4883,8.4883,8.4883,8.4883,8.4883,8.4531,8.3672,8.3594,8.3242,8.2383,8.2304,8.2304,8.2304,8.2304,8.2304,8.2304,8.2304,8.2304,8.2265,8.1445,8.0547,7.9687,7.8008,7.6289,7.4531,7.2773,7.1953,7.1953,7.1953,7.2422,7.3242,7.3281,7.3789,7.4609,7.4609,7.4609,7.4609,7.4609,7.4609,7.4609,7.4609,7.4609,7.4609,7.4609,7.457,7.4414,7.3555,7.3281,7.3437,7.4336,7.3945,7.3476,7.4336,7.3773,7.2981,7.2979,7.2068,7.1216,7.1216,7.0409,6.9436,6.8584,6.909,6.9667,6.9667,7.0321,7.0898,7.0898,7.0898,7.1206,7.2098,7.1437,7.0898,7.0898,7.0167,6.9013,6.7289,6.7898,6.8776,6.9629,6.9706,6.9706,6.9744,7.0475,7.0552,6.9744,7.1321,7.2591,7.3469,7.4276,7.513,7.5969,7.5396,7.479,7.4249,7.3064,7.2496,7.2496,7.2496,7.2496,7.2496,7.2496,7.2973,7.3722,7.3722,7.4184,7.4903,7.4903,7.4903,7.4757,8.6679,8.6679,8.6679,8.6679,8.6679,8.6679,8.6679,8.6679,8.6679,8.6679,8.6679,8.6328,8.5469,8.4297,8.3711,8.4023,8.3008,8.2539,8.3164,8.2617,8.2304,8.2304,8.2304,8.2304,8.2304,8.2031,8.1445,8.0586,7.9453,7.7734,7.5469,7.4297,7.3789,7.3789,7.3789,7.4258,7.5078,7.5078,7.5586,7.6367,7.6367,7.6367,7.6445,7.7031,7.6875,7.6445,7.7031,7.6875,7.6289,7.5703,7.5898,7.6211,7.5351,7.4648,7.4258,7.4531,7.4414,7.4258,7.4531,7.4334,7.3933,7.319,7.2627,7.2094,7.1378,7.0409,6.9436,6.8584,6.9084,6.9706,6.9706,7.036,7.1091,7.1675,7.1783,7.2283,7.3707,7.2668,7.1783,7.1783,7.0014,6.8359,6.7212,6.7898,6.8276,6.7936,6.9552,7.0783,7.136,7.1091,7.1052,7.1398,7.1905,7.286,7.4315,7.4584,7.513,7.5969,7.5404,7.4612,7.3651,7.2871,7.2496,7.2496,7.2496,7.2496,7.2496,7.2496,7.2973,7.3722,7.3722,7.3854,7.4074,7.4074,7.3744,7.323,8.7969,8.7969,8.8047,8.8398,8.8437,8.832,8.8008,8.7969,8.7851,8.7539,8.75,8.7304,8.6758,8.5429,8.4648,8.4883,8.3594,8.3008,8.3554,8.2773,8.2304,8.2304,8.2304,8.2304,8.2304,8.2304,8.2031,8.1484,8.0625,7.9219,7.7305,7.6758,7.6523,7.6523,7.6523,7.6836,7.7344,7.7344,7.7656,7.8125,7.8125,7.8125,7.8203,7.875,7.8437,7.7812,7.8633,7.8203,7.7187,7.6953,7.7226,7.7578,7.7031,7.6484,7.6015,7.5664,7.5351,7.5156,7.5508,7.5351,7.4921,7.4279,7.347,7.2575,7.146,7.064,7.0014,6.943,6.9783,7.0244,7.0591,7.1052,7.1668,7.2552,7.2706,7.3053,7.4084,7.3053,7.2098,7.1752,7.0052,6.8545,6.7667,6.8084,6.8314,6.809,6.9552,7.0821,7.1668,7.1514,7.1475,7.1713,7.2629,7.363,7.47,7.5007,7.5476,7.6007,7.5183,7.4426,7.3699,7.2899,7.2496,7.2496,7.2496,7.2496,7.2496,7.2496,7.2789,7.323,7.323,7.323,7.323,7.323,7.2936,7.2496,8.8789,8.8789,8.9062,8.9844,9.0,8.9726,8.8906,8.8789,8.8515,8.7773,8.7656,8.7656,8.7578,8.6875,8.6015,8.5156,8.4219,8.3711,8.3789,8.2969,8.2461,8.2383,8.2383,8.2344,8.2304,8.2304,8.2304,8.2304,8.1445,8.0586,7.9805,7.9726,7.9687,7.9687,7.9687,7.9687,7.9687,7.9687,7.9687,7.9687,7.9687,7.9687,7.9726,7.9765,7.9297,7.8672,7.9492,7.875,7.75,7.832,7.8594,7.8594,7.8594,7.8594,7.8398,7.7539,7.668,7.6172,7.6992,7.6601,7.5976,7.5937,7.4434,7.2679,7.1532,7.1104,7.0898,7.0898,7.0898,7.1168,7.2059,7.2213,7.2514,7.343,7.3584,7.3584,7.3584,7.2783,7.1867,7.1014,7.0129,6.9276,6.8468,6.8468,6.8814,6.9629,6.9744,7.0129,7.086,7.1783,7.1905,7.1129,7.343,7.4738,7.4776,7.5592,7.6015,7.6007,7.4895,7.4336,7.426,7.308,7.2539,7.2496,7.2496,7.2496,7.2496,7.2496,7.2496,7.2496,7.2569,7.2569,7.2496,7.2569,7.2569,7.2496,8.9687,8.9687,8.9765,8.9961,9.0,8.9922,8.9726,8.9687,8.9609,8.9414,8.9414,8.914,8.8476,8.8242,8.7773,8.6953,8.5469,8.4883,8.5547,8.4765,8.3984,8.332,8.3281,8.2969,8.2304,8.2304,8.2304,8.2304,8.1445,8.0898,8.0664,8.0,7.9687,7.9687,7.9687,7.9687,7.9687,7.9687,7.9687,7.9687,7.9687,7.9687,7.9765,8.0429,8.0156,7.9531,8.039,8.0,7.914,7.9336,7.9414,7.9414,7.9414,7.9414,7.9258,7.8437,7.7578,7.6953,7.7148,7.7031,7.6719,7.6055,7.4361,7.2744,7.2279,7.1502,7.0898,7.0898,7.0898,7.1168,7.2059,7.2213,7.2668,7.4161,7.443,7.443,7.443,7.3129,7.1867,7.1014,6.959,6.8622,6.843,6.9007,6.9475,6.9667,7.0283,7.0706,7.0898,7.236,7.3091,7.2892,7.4084,7.5007,7.5707,7.5899,7.6015,7.5969,7.5245,7.471,7.4271,7.3541,7.293,7.2496,7.2496,7.2496,7.2496,7.2496,7.2496,7.2569,7.3193,7.3046,7.2569,7.3193,7.3046,7.2496,9.0586,9.0586,9.0703,9.1133,9.1172,9.1054,9.0664,9.0586,9.0469,9.0039,9.0,8.9804,8.9336,8.8945,8.8515,8.8086,8.6484,8.5703,8.6172,8.539,8.4687,8.4219,8.3828,8.3398,8.289,8.25,8.2304,8.2304,8.1836,8.1601,8.1562,8.1094,8.0898,8.0898,8.0898,8.0898,8.0898,8.0898,8.0898,8.0898,8.0898,8.0898,8.0937,8.1406,8.1054,8.039,8.1289,8.0781,7.9765,8.0156,8.0273,8.0273,8.0273,8.0273,8.0195,7.9765,7.8789,7.7695,7.7305,7.7187,7.6992,7.6133,7.4891,7.3798,7.3294,7.2606,7.2091,7.2091,7.2091,7.236,7.3206,7.3322,7.3783,7.5091,7.4969,7.4584,7.4199,7.2668,7.1437,7.0975,6.9783,6.9122,6.9507,6.9975,7.0244,7.0244,7.0667,7.1052,7.1475,7.2783,7.3507,7.3507,7.4661,7.5515,7.6015,7.6015,7.6015,7.5969,7.5404,7.4961,7.466,7.4444,7.4014,7.348,7.3877,7.3683,7.3046,7.3046,7.2826,7.2569,7.3377,7.3413,7.3156,7.3964,7.3964,7.3546,9.1484,9.1484,9.1719,9.2461,9.2617,9.2344,9.1601,9.1484,9.1211,9.0508,9.039,9.0351,9.0195,8.9531,8.9023,8.8906,8.7461,8.6523,8.6406,8.5703,8.5234,8.5117,8.4375,8.3867,8.3594,8.2734,8.2304,8.2304,8.2304,8.2304,8.2304,8.2304,8.2304,8.2304,8.2304,8.2304,8.2304,8.2304,8.2304,8.2304,8.2304,8.2304,8.2304,8.2304,8.1836,8.1289,8.2031,8.1367,8.0195,8.0937,8.1211,8.1211,8.1211,8.1211,8.1172,8.1054,8.0,7.8672,7.7656,7.7305,7.7031,7.6249,7.5661,7.5104,7.4328,7.3801,7.3507,7.3507,7.3507,7.3738,7.4546,7.47,7.4976,7.5861,7.5284,7.443,7.3623,7.2014,7.0898,7.0898,7.0206,7.0014,7.0821,7.0898,7.0898,7.0898,7.1014,7.1398,7.2175,7.3129,7.3661,7.3661,7.5207,7.6015,7.6015,7.6015,7.6015,7.5976,7.5463,7.5248,7.532,7.5532,7.5351,7.4831,7.5578,7.5142,7.3891,7.3891,7.3487,7.2936,7.3744,7.4001,7.3964,7.4771,7.5014,7.4793,9.2383,9.2383,9.2422,9.2578,9.2617,9.2539,9.2422,9.2383,9.2344,9.2226,9.2187,9.1914,9.1172,9.0976,9.0586,8.9844,8.8906,8.8008,8.7344,8.7187,8.6758,8.6015,8.5859,8.5117,8.3633,8.2734,8.2304,8.2304,8.2304,8.2304,8.2304,8.2304,8.2304,8.2304,8.2304,8.2304,8.2304,8.2304,8.2304,8.2304,8.2304,8.2304,8.2304,8.2304,8.2226,8.2109,8.2265,8.2148,8.1914,8.2031,8.2109,8.2109,8.2109,8.2109,8.1953,8.1211,8.082,8.0273,7.8711,7.7773,7.7147,7.6838,7.6027,7.5222,7.4907,7.4158,7.3507,7.3507,7.3507,7.3738,7.4546,7.47,7.4976,7.5861,7.5284,7.443,7.3623,7.2014,7.0898,7.0898,7.0206,7.0014,7.0821,7.0898,7.0898,7.0898,7.1598,7.2059,7.2175,7.3668,7.4507,7.4507,7.5476,7.6015,7.6015,7.6015,7.6015,7.6015,7.5917,7.5967,7.6206,7.6237,7.6042,7.569,7.5852,7.5462,7.472,7.472,7.4647,7.461,7.5432,7.5322,7.4793,7.5616,7.5469,7.4867,9.3828,9.3633,9.3437,9.3906,9.3984,9.3828,9.3359,9.3281,9.3125,9.2656,9.2617,9.2461,9.2031,9.1562,9.1133,9.0742,8.9883,8.9258,8.8867,8.8008,8.7304,8.6914,8.6445,8.539,8.3633,8.3203,8.2773,8.2304,8.2304,8.2304,8.2304,8.2304,8.2304,8.2304,8.2304,8.2304,8.2304,8.2304,8.2304,8.2304,8.2304,8.2304,8.2304,8.2304,8.2304,8.2304,8.2304,8.2304,8.2304,8.2304,8.2304,8.2304,8.2304,8.2304,8.2226,8.1836,8.1054,8.0039,7.8828,7.812,7.7589,7.7046,7.6372,7.5794,7.5712,7.524,7.4853,7.4853,7.4853,7.4976,7.5322,7.5399,7.5515,7.5938,7.4892,7.393,7.3546,7.1629,7.0398,7.086,7.0552,7.0667,7.1521,7.2014,7.2315,7.2315,7.2668,7.3091,7.3514,7.4276,7.4938,7.5399,7.5784,7.6015,7.6015,7.6476,7.6707,7.6707,7.6707,7.7001,7.7538,7.7538,7.755,7.753,7.7622,7.7089,7.6078,7.5684,7.527,7.4977,7.5799,7.5873,7.5652,7.6445,7.6518,7.6114,9.4883,9.4648,9.4414,9.5078,9.5195,9.4922,9.4023,9.3906,9.3594,9.2695,9.2617,9.2617,9.2617,9.1992,9.1601,9.1601,9.082,9.0312,9.0312,8.8906,8.8008,8.7773,8.6758,8.5586,8.4219,8.4023,8.3476,8.2617,8.2617,8.25,8.2304,8.2304,8.2304,8.2304,8.2304,8.2304,8.2304,8.2304,8.2304,8.2304,8.2304,8.2304,8.2304,8.2304,8.2304,8.2304,8.2304,8.2304,8.2304,8.2304,8.2304,8.2304,8.2304,8.2304,8.2304,8.2304,8.1327,8.0074,7.9214,7.8761,7.8234,7.7319,7.6816,7.6544,7.6287,7.6108,7.6015,7.6015,7.6015,7.6015,7.6015,7.6015,7.6015,7.6015,7.4591,7.3584,7.3738,7.1745,7.0591,7.1398,7.1514,7.1783,7.2437,7.3129,7.3507,7.3507,7.3661,7.4046,7.4661,7.4892,7.5322,7.5976,7.6207,7.6207,7.6015,7.6868,7.7292,7.7292,7.7292,7.783,7.8792,7.8792,7.8938,7.9181,7.9193,7.8515,7.7338,7.6641,7.6019,7.5527,7.6151,7.6387,7.6445,7.7069,7.7289,7.7215,9.5039,9.5156,9.5117,9.5195,9.5195,9.4922,9.4023,9.3906,9.3594,9.2695,9.2617,9.2617,9.2617,9.2539,9.25,9.25,9.1719,9.1211,9.1211,9.0312,8.9453,8.8633,8.707,8.6133,8.6015,8.5234,8.4375,8.3515,8.3515,8.3086,8.2304,8.2304,8.2304,8.2304,8.2304,8.2304,8.2304,8.2304,8.2304,8.2304,8.2304,8.2304,8.2304,8.2304,8.2304,8.2304,8.2304,8.2304,8.2304,8.2304,8.2304,8.2304,8.2304,8.2304,8.2304,8.2304,8.2094,8.165,8.0751,7.9926,7.9047,7.7831,7.7517,7.726,7.6251,7.5998,7.6015,7.6015,7.6015,7.6015,7.6015,7.6015,7.6015,7.6015,7.4591,7.3776,7.4507,7.3091,7.2322,7.3199,7.3315,7.3315,7.3392,7.3469,7.3507,7.3507,7.4199,7.4623,7.47,7.5476,7.5938,7.6015,7.6784,7.6823,7.6015,7.6868,7.7292,7.7292,7.7292,7.813,7.97,7.97,7.9812,7.9971,7.942,7.884,7.818,7.7474,7.7179,7.7142,7.7179,7.7215,7.7215,7.7289,7.7289,7.7289,9.6484,9.6367,9.6172,9.664,9.6758,9.6289,9.4922,9.4726,9.4219,9.2773,9.2617,9.2617,9.2617,9.2617,9.2617,9.2617,9.2304,9.2109,9.2109,9.1289,9.0195,8.875,8.8086,8.7265,8.6211,8.5898,8.5,8.3594,8.3594,8.3164,8.2304,8.2304,8.2304,8.2304,8.2304,8.2304,8.2304,8.2304,8.2304,8.2304,8.2304,8.2304,8.2304,8.2304,8.2304,8.2304,8.2304,8.2304,8.2304,8.2304,8.2304,8.2304,8.2304,8.222,8.2071,8.1973,8.1875,8.1724,8.1247,8.0509,7.9609,7.8585,7.7884,7.7424,7.7513,7.6746,7.613,7.6669,7.6361,7.6015,7.6015,7.6015,7.6015,7.6015,7.5014,7.4353,7.4661,7.3699,7.3129,7.3469,7.393,7.4238,7.4238,7.4738,7.5053,7.5053,7.5322,7.5515,7.5515,7.6322,7.7022,7.7515,7.84,7.8207,7.6823,7.8169,7.8861,7.8861,7.8861,7.9477,8.0592,8.0046,8.0152,8.066,8.0056,7.9414,7.8829,7.8187,7.7917,7.7875,7.745,7.7555,7.786,7.7435,7.7289,7.7289,9.7422,9.7265,9.7031,9.7617,9.7695,9.7226,9.582,9.539,9.4687,9.3203,9.2773,9.2617,9.2617,9.2617,9.2617,9.2617,9.2617,9.2617,9.2617,9.2031,9.082,8.8789,8.8476,8.7773,8.664,8.6601,8.5898,8.4414,8.414,8.3554,8.2695,8.2422,8.2304,8.2304,8.2304,8.2304,8.2304,8.2304,8.2304,8.2304,8.2304,8.2304,8.2304,8.2304,8.2304,8.2304,8.2304,8.2304,8.2304,8.2304,8.2304,8.2304,8.2221,8.2062,8.1878,8.1725,8.1675,8.1582,8.1425,8.0909,8.0209,7.9346,7.8588,7.8169,7.8446,7.7599,7.6938,7.7561,7.7015,7.6476,7.6746,7.6592,7.6476,7.6746,7.6053,7.5592,7.5861,7.4969,7.4392,7.4668,7.4938,7.513,7.513,7.5668,7.6015,7.6015,7.6015,7.613,7.6399,7.7476,7.8207,7.8484,7.9592,7.9515,7.8092,7.9246,7.9815,7.9815,7.9815,8.0246,8.1093,8.0477,8.0516,8.1069,8.0379,7.9878,7.9436,7.8841,7.8563,7.8549,7.809,7.8163,7.851,7.7846,7.7592,7.7599,9.7539,9.7695,9.7695,9.7695,9.7695,9.7422,9.6601,9.5781,9.4883,9.4023,9.3164,9.2617,9.2617,9.2617,9.2617,9.2617,9.2617,9.2617,9.2617,9.2578,9.1445,8.8828,8.7969,8.7539,8.75,8.75,8.707,8.6211,8.5312,8.4453,8.3594,8.2734,8.2304,8.2304,8.2304,8.2304,8.2304,8.2304,8.2304,8.2304,8.2304,8.2304,8.2304,8.2304,8.2304,8.2304,8.2304,8.2304,8.2304,8.2304,8.2304,8.2264,8.2058,8.1861,8.168,8.1719,8.1553,8.1407,8.1407,8.1238,8.09,8.0015,7.9815,7.9592,7.8715,7.8523,7.8484,7.8523,7.7869,7.7561,7.8369,7.7869,7.7561,7.8369,7.783,7.7599,7.8407,7.7053,7.6322,7.7215,7.6515,7.6015,7.6015,7.6015,7.6015,7.6015,7.6015,7.6399,7.7292,7.89,7.94,7.8561,8.0208,8.0669,7.9815,7.9815,7.9815,7.9815,7.9815,8.0246,8.1093,8.1093,8.1093,8.1069,8.0379,8.0087,8.0038,7.9458,7.921,7.921,7.921,7.921,7.9128,7.8536,7.8309,7.82,9.7656,9.7695,9.7695,9.7695,9.7695,9.7422,9.6601,9.6289,9.5781,9.4922,9.4062,9.3515,9.3515,9.2969,9.2617,9.2617,9.2617,9.2617,9.2617,9.2031,9.1328,9.0547,8.9726,8.8984,8.8359,8.7773,8.707,8.6211,8.5937,8.5039,8.3594,8.3945,8.3476,8.2344,8.2929,8.2851,8.2304,8.2304,8.2304,8.2304,8.2304,8.2304,8.2304,8.2304,8.2304,8.2304,8.2304,8.2304,8.2265,8.2125,8.2071,8.2046,8.1707,8.1529,8.1464,8.1317,8.1249,8.1196,8.1196,8.1146,8.1054,8.0785,8.0246,7.9892,8.0246,7.9369,7.8677,7.9285,7.8746,7.8215,7.8446,7.8292,7.8215,7.8446,7.8292,7.8215,7.8484,7.7599,7.7015,7.7292,7.6515,7.6015,7.6015,7.6015,7.6015,7.6015,7.6553,7.7553,7.8977,7.9508,7.9977,8.0323,8.0823,8.0977,8.0708,8.0708,8.0708,8.0708,8.0708,8.0862,8.1093,8.1093,8.1093,8.1085,8.088,8.0517,8.0105,7.9908,7.9847,7.9806,7.9369,7.9458,7.9695,7.8666,7.8309,7.82,9.7695,9.7695,9.7695,9.7695,9.7695,9.7422,9.6601,9.6484,9.6054,9.4844,9.4219,9.3789,9.3437,9.2929,9.2617,9.2617,9.2617,9.2617,9.2617,9.2109,9.1797,9.1797,9.0976,8.9922,8.8711,8.8203,8.7578,8.6719,8.6367,8.5664,8.4648,8.4804,8.4336,8.3359,8.3867,8.3828,8.332,8.332,8.3125,8.2851,8.3203,8.3125,8.2812,8.2812,8.2771,8.2643,8.2292,8.2124,8.2053,8.1909,8.1837,8.1699,8.1485,8.1361,8.1244,8.1131,8.1093,8.1093,8.1093,8.1093,8.1093,8.1093,8.0708,8.0439,8.0977,8.0285,7.9669,8.0208,7.9631,7.9131,7.9438,7.9254,7.9131,7.9485,7.9523,7.9523,7.9523,7.8823,7.8284,7.8284,7.7515,7.6976,7.6976,7.6976,7.6976,7.6976,7.7784,7.8746,7.9738,8.0131,8.0554,8.1093,8.1093,8.1093,8.1093,8.1093,8.1093,8.1093,8.1093,8.1093,8.1093,8.1093,8.1093,8.1093,8.1093,8.0871,8.049,8.049,8.049,8.0463,8.0086,8.0154,8.0399,7.9358,7.8998,7.8901,9.7695,9.7695,9.7695,9.7695,9.7695,9.7422,9.6601,9.6484,9.5898,9.4219,9.3945,9.3594,9.2812,9.2656,9.2617,9.2617,9.2617,9.2617,9.2617,9.2617,9.2617,9.2617,9.1836,9.0625,8.8984,8.8789,8.8359,8.7617,8.6758,8.6289,8.6172,8.5469,8.5039,8.4883,8.4961,8.4961,8.4883,8.4883,8.4453,8.3789,8.457,8.4414,8.3711,8.371,8.3537,8.3202,8.237,8.1939,8.168,8.166,8.1534,8.1365,8.1365,8.1263,8.1093,8.1093,8.1093,8.1093,8.1093,8.1093,8.1093,8.1093,8.1093,8.1093,8.1093,8.1093,8.1093,8.1093,8.0477,8.0162,8.0939,8.0439,8.0169,8.0977,8.1093,8.1093,8.1093,8.0362,7.9815,7.9815,7.9015,7.8484,7.8484,7.8484,7.8523,7.86,7.9361,7.9815,7.9892,8.0669,8.1093,8.1093,8.1093,8.1093,8.1093,8.1093,8.1093,8.1093,8.1093,8.1093,8.1093,8.1093,8.1093,8.1093,8.1093,8.1093,8.1093,8.1093,8.1093,8.1093,8.1093,8.1093,8.1007,8.0343,8.0115,7.9998,9.7695,9.7695,9.7695,9.7695,9.7695,9.7422,9.6601,9.6484,9.6133,9.5078,9.4336,9.3828,9.3633,9.3008,9.2617,9.2617,9.2617,9.2617,9.2617,9.2617,9.2617,9.2617,9.2422,9.1836,9.0742,8.9414,8.8594,8.8437,8.7617,8.6875,8.6211,8.6719,8.6211,8.4922,8.5625,8.5547,8.4883,8.4883,8.4804,8.4648,8.4804,8.4804,8.4609,8.4424,8.3921,8.3231,8.2919,8.2337,8.1699,8.1504,8.1336,8.1183,8.1183,8.1123,8.1093,8.1093,8.1093,8.1093,8.1093,8.1093,8.1093,8.1093,8.1093,8.1093,8.1093,8.1093,8.1093,8.1093,8.0939,8.09,8.1054,8.0939,8.09,8.1054,8.1093,8.1093,8.1093,8.0362,7.9815,7.9815,7.9015,7.8484,7.8484,7.8484,7.8784,7.9477,7.97,8.0085,8.0785,8.1016,8.1093,8.1093,8.1093,8.1093,8.1093,8.1093,8.1093,8.1093,8.1093,8.1093,8.1093,8.1093,8.1093,8.1093,8.1093,8.1093,8.1093,8.1093,8.1093,8.1093,8.1093,8.1093,8.1007,8.0343,8.0115,7.9998,9.7695,9.7695,9.7695,9.7695,9.7383,9.6836,9.6015,9.5898,9.5429,9.414,9.3906,9.375,9.332,9.2851,9.2617,9.2617,9.2617,9.2617,9.2617,9.2617,9.2617,9.2617,9.2617,9.2383,9.1914,9.0625,8.9531,8.8711,8.789,8.7265,8.6836,8.7304,8.6992,8.6172,8.6601,8.6562,8.6133,8.6133,8.5898,8.5547,8.5976,8.5898,8.5508,8.5416,8.5037,8.4479,8.381,8.2893,8.1982,8.1845,8.1497,8.1093,8.1093,8.1093,8.1093,8.1093,8.1093,8.1093,8.1093,8.1093,8.1093,8.1093,8.1093,8.1093,8.1093,8.1093,8.1093,8.1093,8.1093,8.1093,8.1093,8.1093,8.1093,8.1093,8.1093,8.1093,8.1093,8.0708,8.0439,8.0439,8.0015,7.9746,7.9746,7.9746,7.9939,8.04,8.0439,8.0631,8.1093,8.1093,8.1093,8.1093,8.1093,8.1093,8.1093,8.1093,8.1093,8.1093,8.1093,8.1093,8.1093,8.1093,8.1093,8.1093,8.1093,8.1093,8.1093,8.1093,8.1093,8.1093,8.1093,8.1093,8.1069,8.0716,8.0591,8.0517,9.7695,9.7695,9.7656,9.7539,9.6953,9.6172,9.5117,9.4961,9.4414,9.2812,9.3242,9.3398,9.2695,9.2617,9.2617,9.2617,9.2617,9.2617,9.2617,9.2617,9.2617,9.2617,9.2617,9.2617,9.2617,9.1758,9.0586,8.914,8.8164,8.7695,8.7695,8.7578,8.75,8.75,8.75,8.75,8.75,8.75,8.707,8.6484,8.7226,8.707,8.6406,8.6366,8.6145,8.5698,8.4739,8.3555,8.2516,8.2516,8.2093,8.1516,8.1362,8.14,8.1477,8.117,8.1208,8.1285,8.1131,8.1093,8.1093,8.1093,8.1093,8.1093,8.1093,8.1093,8.1093,8.1093,8.1093,8.1093,8.1093,8.1093,8.1093,8.1093,8.1093,8.1093,8.1093,8.1093,8.1093,8.1093,8.1093,8.1093,8.1093,8.1093,8.1093,8.1093,8.1093,8.1093,8.1093,8.1093,8.1093,8.1093,8.1093,8.1093,8.1093,8.1093,8.1093,8.1093,8.1093,8.1093,8.1093,8.1093,8.1093,8.1093,8.1093,8.1093,8.1093,8.1093,8.1093,8.1093,8.1093,8.1093,8.1093,8.1093,8.1093,8.1093,9.7695,9.7695,9.7461,9.6797,9.6562,9.5937,9.4336,9.4062,9.3711,9.2734,9.2695,9.2734,9.2617,9.2617,9.2617,9.2617,9.2617,9.2617,9.2617,9.2617,9.2617,9.2617,9.2617,9.2617,9.2617,9.1758,9.1172,9.0937,8.9336,8.8554,8.8515,8.7812,8.75,8.75,8.75,8.75,8.75,8.75,8.7422,8.7344,8.7461,8.7422,8.7304,8.7074,8.6392,8.5518,8.5186,8.4364,8.3409,8.3409,8.337,8.3139,8.2362,8.2678,8.2986,8.1516,8.1593,8.1977,8.1285,8.1093,8.1093,8.1093,8.1093,8.1093,8.1093,8.1093,8.1093,8.1093,8.1093,8.1093,8.1093,8.1093,8.1093,8.1093,8.1093,8.1093,8.1093,8.1093,8.1093,8.1093,8.1093,8.1093,8.1093,8.1093,8.1093,8.1093,8.1093,8.1093,8.1093,8.1093,8.1093,8.1093,8.1093,8.1093,8.1093,8.1093,8.1093,8.1093,8.1093,8.1093,8.1093,8.1093,8.1093,8.1093,8.1093,8.1093,8.1093,8.1093,8.1093,8.1093,8.1093,8.1093,8.1093,8.1093,8.1093,8.1093,9.7695,9.7695,9.7578,9.7226,9.6797,9.625,9.5469,9.4922,9.4492,9.4101,9.3633,9.332,9.332,9.289,9.2617,9.2617,9.2617,9.2617,9.2617,9.2617,9.2617,9.2617,9.2617,9.2617,9.2617,9.2226,9.2031,9.2031,8.9804,8.8711,8.8672,8.789,8.75,8.75,8.75,8.75,8.75,8.75,8.75,8.75,8.75,8.75,8.746,8.7181,8.68,8.6361,8.6034,8.525,8.4324,8.4324,8.3978,8.3524,8.3139,8.3293,8.3447,8.2716,8.2747,8.2832,8.2016,8.1785,8.167,8.1208,8.1093,8.1093,8.1093,8.1093,8.1093,8.1093,8.1093,8.1093,8.1093,8.1093,8.1093,8.1093,8.1093,8.1093,8.1093,8.1093,8.1093,8.1093,8.1093,8.1093,8.1093,8.1093,8.1093,8.1093,8.1093,8.1093,8.1093,8.1093,8.1093,8.1093,8.1093,8.1093,8.1093,8.1093,8.1093,8.1093,8.1093,8.1093,8.1093,8.1093,8.1093,8.1093,8.1093,8.1093,8.1093,8.1093,8.1093,8.1093,8.1093,8.1093,8.1093,8.1093,8.1093,8.1093]}]]